Darstellungsparameter: Aktuell verwendete Einstellungen:
Skalierung der Graphiken ... ?
xyx+y,   Skalierungsfaktor:      Skalierung: Modus: x, Faktor: 1
Darstellungszeitraum ... ?
Vom - - bis: - -   Zeitraum: 19.11.2015 - 18.02.2016
Min/Max/Avg-Anzeige ... ?
Zeige MMA aktuell
Zeige MMA Monat
Zeige MMA alles
Zeige --A aktuell
Zeige --A Monat
Zeige --A alles
Keine MMA-Anzeige
MMA:
Keine MMA-Graphiken
MMA-Basis: 19.11.2015 - 18.02.2016
Quicknavigation für Darstellung... ?
Tage:      1T, 2T, 3T, 5T -1T -2T -3T -5T +1T +2T +3T +5T
Wochen: 1W, 2W, 3W -1W -2W -3W +1W +2W +3W
Monate: 1M, 3M, 6M -1M -3M -6M +1M +3M +6M
Jahre:    1J, 3J, 5J, 10J -1J -3J -5J -10J +1J +3J +5J +10J
Nutze für die Darstellung ... ?
Originaldaten oder Mittelwerte auf ...
Stundenbasis Tagesbasis Wochenbasis
Monatsbasis Jahresbasis      Datenbasis: Original-Daten
Darstellen als:
Statistik (Auto) Statistik J:M      Darstellung:
Zur Graphik,    zurück zur Übersicht aller Sensoren.
 
Tabellarische Datenbersicht: ?
 
Sensor: Nr:Datum:Temp:Feuchte:Taupunkt:
Aussen-T/F 1 19-11-2015 00:00:00 14.1 C 78 % 10.33 C
2 19-11-2015 00:05:00 14.2 C 78 % 10.42 C
3 19-11-2015 00:10:00 14.2 C 78 % 10.42 C
4 19-11-2015 00:15:00 14.2 C 78 % 10.42 C
5 19-11-2015 00:20:00 14.2 C 78 % 10.42 C
6 19-11-2015 00:25:00 14.3 C 78 % 10.52 C
7 19-11-2015 00:30:00 14.3 C 78 % 10.52 C
8 19-11-2015 00:35:00 14.3 C 78 % 10.52 C
9 19-11-2015 00:40:00 14.3 C 78 % 10.52 C
10 19-11-2015 00:45:00 14.3 C 79 % 10.71 C
11 19-11-2015 00:50:00 14.3 C 79 % 10.71 C
12 19-11-2015 00:55:00 14.2 C 80 % 10.8 C
13 19-11-2015 01:00:00 14.2 C 80 % 10.8 C
14 19-11-2015 01:05:00 14.2 C 80 % 10.8 C
15 19-11-2015 01:10:00 14.2 C 80 % 10.8 C
16 19-11-2015 01:15:00 14.2 C 80 % 10.8 C
17 19-11-2015 01:20:00 14.2 C 80 % 10.8 C
18 19-11-2015 01:25:00 14.3 C 80 % 10.9 C
19 19-11-2015 01:30:00 14.3 C 80 % 10.9 C
20 19-11-2015 01:35:00 14.3 C 81 % 11.09 C
21 19-11-2015 01:40:00 14.3 C 81 % 11.09 C
22 19-11-2015 01:45:00 14.3 C 81 % 11.09 C
23 19-11-2015 01:50:00 14.3 C 80 % 10.9 C
24 19-11-2015 01:55:00 14.4 C 80 % 11 C
25 19-11-2015 02:00:00 14.4 C 80 % 11 C
Sensor: Nr:Datum:Temp:Feuchte:Taupunkt:
Aussen-T/F 26 19-11-2015 02:05:00 14.5 C 80 % 11.09 C
27 19-11-2015 02:10:00 14.6 C 79 % 11 C
28 19-11-2015 02:15:00 14.6 C 79 % 11 C
29 19-11-2015 02:20:00 14.6 C 79 % 11 C
30 19-11-2015 02:25:00 14.7 C 78 % 10.91 C
31 19-11-2015 02:30:00 14.6 C 78 % 10.81 C
32 19-11-2015 02:35:00 14.6 C 78 % 10.81 C
33 19-11-2015 02:40:00 14.6 C 78 % 10.81 C
34 19-11-2015 02:45:00 14.5 C 79 % 10.91 C
35 19-11-2015 02:50:00 14.4 C 79 % 10.81 C
36 19-11-2015 02:55:00 14.5 C 79 % 10.91 C
37 19-11-2015 03:00:00 14.5 C 80 % 11.09 C
38 19-11-2015 03:05:00 14.6 C 80 % 11.19 C
39 19-11-2015 03:10:00 14.6 C 80 % 11.19 C
40 19-11-2015 03:15:00 14.5 C 80 % 11.09 C
41 19-11-2015 03:20:00 14.5 C 80 % 11.09 C
42 19-11-2015 03:25:00 14.5 C 80 % 11.09 C
43 19-11-2015 03:30:00 14.5 C 81 % 11.28 C
44 19-11-2015 03:35:00 14.4 C 83 % 11.55 C
45 19-11-2015 03:40:00 14.3 C 85 % 11.81 C
46 19-11-2015 03:45:00 14 C 86 % 11.7 C
47 19-11-2015 03:50:00 13.8 C 87 % 11.68 C
48 19-11-2015 03:55:00 13.7 C 88 % 11.75 C
49 19-11-2015 04:00:00 13.6 C 88 % 11.65 C
50 19-11-2015 04:05:00 13.4 C 88 % 11.45 C
Sensor: Nr:Datum:Temp:Feuchte:Taupunkt:
Aussen-T/F 51 19-11-2015 04:10:00 13.4 C 88 % 11.45 C
52 19-11-2015 04:15:00 13.4 C 87 % 11.28 C
53 19-11-2015 04:20:00 13.5 C 86 % 11.21 C
54 19-11-2015 04:25:00 13.6 C 84 % 10.95 C
55 19-11-2015 04:30:00 13.7 C 83 % 10.87 C
56 19-11-2015 04:35:00 13.8 C 82 % 10.78 C
57 19-11-2015 04:40:00 13.8 C 82 % 10.78 C
58 19-11-2015 04:45:00 13.9 C 82 % 10.88 C
59 19-11-2015 04:50:00 13.9 C 82 % 10.88 C
60 19-11-2015 04:55:00 13.9 C 81 % 10.7 C
61 19-11-2015 05:00:00 13.9 C 81 % 10.7 C
62 19-11-2015 05:05:00 13.8 C 80 % 10.41 C
63 19-11-2015 05:10:00 13.9 C 80 % 10.51 C
64 19-11-2015 05:15:00 13.9 C 79 % 10.32 C
65 19-11-2015 05:20:00 14 C 78 % 10.23 C
66 19-11-2015 05:25:00 14.1 C 78 % 10.33 C
67 19-11-2015 05:30:00 14.1 C 78 % 10.33 C
68 19-11-2015 05:35:00 14.1 C 77 % 10.13 C
69 19-11-2015 05:40:00 14.1 C 78 % 10.33 C
70 19-11-2015 05:45:00 14.1 C 78 % 10.33 C
71 19-11-2015 05:50:00 14 C 78 % 10.23 C
72 19-11-2015 05:55:00 14 C 77 % 10.04 C
73 19-11-2015 06:00:00 14.1 C 77 % 10.13 C
74 19-11-2015 06:05:00 14.1 C 77 % 10.13 C
75 19-11-2015 06:10:00 13.9 C 77 % 9.94 C
Sensor: Nr:Datum:Temp:Feuchte:Taupunkt:
Aussen-T/F 76 19-11-2015 06:15:00 13.8 C 78 % 10.03 C
77 19-11-2015 06:20:00 13.7 C 79 % 10.13 C
78 19-11-2015 06:25:00 13.6 C 80 % 10.22 C
79 19-11-2015 06:30:00 13.5 C 81 % 10.31 C
80 19-11-2015 06:35:00 13.3 C 82 % 10.3 C
81 19-11-2015 06:40:00 13.2 C 82 % 10.2 C
82 19-11-2015 06:45:00 13.2 C 82 % 10.2 C
83 19-11-2015 06:50:00 13.2 C 81 % 10.01 C
84 19-11-2015 06:55:00 13.2 C 81 % 10.01 C
85 19-11-2015 07:00:00 13.3 C 79 % 9.74 C
86 19-11-2015 07:05:00 13.3 C 78 % 9.55 C
87 19-11-2015 07:10:00 13.4 C 77 % 9.45 C
88 19-11-2015 07:15:00 13.4 C 78 % 9.65 C
89 19-11-2015 07:20:00 13.4 C 77 % 9.45 C
90 19-11-2015 07:25:00 13.4 C 77 % 9.45 C
91 19-11-2015 07:30:00 13.4 C 78 % 9.65 C
92 19-11-2015 07:35:00 13.4 C 78 % 9.65 C
93 19-11-2015 07:40:00 13.3 C 79 % 9.74 C
94 19-11-2015 07:45:00 13.3 C 79 % 9.74 C
95 19-11-2015 07:50:00 13.2 C 80 % 9.83 C
96 19-11-2015 07:55:00 13.1 C 81 % 9.92 C
97 19-11-2015 08:00:00 13 C 81 % 9.82 C
98 19-11-2015 08:05:00 13 C 81 % 9.82 C
99 19-11-2015 08:10:00 13 C 80 % 9.63 C
100 19-11-2015 08:15:00 13.1 C 80 % 9.73 C
Sensor: Nr:Datum:Temp:Feuchte:Taupunkt:
Aussen-T/F 101 19-11-2015 08:20:00 13.1 C 80 % 9.73 C
102 19-11-2015 08:25:00 13.1 C 80 % 9.73 C
103 19-11-2015 08:30:00 13.1 C 80 % 9.73 C
104 19-11-2015 08:35:00 13.1 C 80 % 9.73 C
105 19-11-2015 08:40:00 13.1 C 79 % 9.54 C
106 19-11-2015 08:45:00 13.1 C 79 % 9.54 C
107 19-11-2015 08:50:00 13.2 C 79 % 9.64 C
108 19-11-2015 08:55:00 13.2 C 80 % 9.83 C
109 19-11-2015 09:00:00 13.2 C 78 % 9.45 C
110 19-11-2015 09:05:00 13.2 C 77 % 9.26 C
111 19-11-2015 09:10:00 13.2 C 76 % 9.07 C
112 19-11-2015 09:15:00 13.2 C 75 % 8.87 C
113 19-11-2015 09:20:00 13.1 C 74 % 8.58 C
114 19-11-2015 09:25:00 13.1 C 74 % 8.58 C
115 19-11-2015 09:30:00 13.1 C 74 % 8.58 C
116 19-11-2015 09:35:00 13.1 C 73 % 8.38 C
117 19-11-2015 09:40:00 13.1 C 72 % 8.17 C
118 19-11-2015 09:45:00 13.1 C 72 % 8.17 C
119 19-11-2015 09:50:00 13.1 C 72 % 8.17 C
120 19-11-2015 09:55:00 13.1 C 72 % 8.17 C
121 19-11-2015 10:00:00 13.1 C 71 % 7.97 C
122 19-11-2015 10:05:00 13.1 C 71 % 7.97 C
123 19-11-2015 10:10:00 13.1 C 71 % 7.97 C
124 19-11-2015 10:15:00 13.1 C 71 % 7.97 C
125 19-11-2015 10:20:00 13.1 C 72 % 8.17 C
Sensor: Nr:Datum:Temp:Feuchte:Taupunkt:
Aussen-T/F 126 19-11-2015 10:25:00 13.2 C 72 % 8.27 C
127 19-11-2015 10:30:00 13.2 C 72 % 8.27 C
128 19-11-2015 10:35:00 13.2 C 72 % 8.27 C
129 19-11-2015 10:40:00 13.2 C 73 % 8.47 C
130 19-11-2015 10:45:00 13.3 C 73 % 8.57 C
131 19-11-2015 10:50:00 13.3 C 74 % 8.77 C
132 19-11-2015 10:55:00 13.3 C 75 % 8.97 C
133 19-11-2015 11:00:00 13.2 C 75 % 8.87 C
134 19-11-2015 11:05:00 13.2 C 75 % 8.87 C
135 19-11-2015 11:10:00 13.2 C 76 % 9.07 C
136 19-11-2015 11:15:00 13.2 C 76 % 9.07 C
137 19-11-2015 11:20:00 13.2 C 77 % 9.26 C
138 19-11-2015 11:25:00 13.2 C 78 % 9.45 C
139 19-11-2015 11:30:00 13.1 C 80 % 9.73 C
140 19-11-2015 11:35:00 13.1 C 81 % 9.92 C
141 19-11-2015 11:40:00 12.9 C 84 % 10.26 C
142 19-11-2015 11:45:00 12.7 C 85 % 10.25 C
143 19-11-2015 11:50:00 12.5 C 87 % 10.4 C
144 19-11-2015 11:55:00 12.4 C 87 % 10.3 C
145 19-11-2015 12:00:00 12.4 C 87 % 10.3 C
146 19-11-2015 12:05:00 12.6 C 86 % 10.32 C
147 19-11-2015 12:10:00 12.7 C 86 % 10.42 C
148 19-11-2015 12:15:00 12.8 C 86 % 10.52 C
149 19-11-2015 12:20:00 12.9 C 85 % 10.44 C
150 19-11-2015 12:25:00 13.2 C 84 % 10.56 C
Sensor: Nr:Datum:Temp:Feuchte:Taupunkt:
Aussen-T/F 151 19-11-2015 12:30:00 13.3 C 84 % 10.66 C
152 19-11-2015 12:35:00 13.2 C 85 % 10.74 C
153 19-11-2015 12:40:00 13.1 C 85 % 10.64 C
154 19-11-2015 12:45:00 12.9 C 86 % 10.62 C
155 19-11-2015 12:50:00 12.8 C 86 % 10.52 C
156 19-11-2015 12:55:00 12.8 C 86 % 10.52 C
157 19-11-2015 13:00:00 12.8 C 86 % 10.52 C
158 19-11-2015 13:05:00 12.9 C 85 % 10.44 C
159 19-11-2015 13:10:00 12.9 C 84 % 10.26 C
160 19-11-2015 13:15:00 13.1 C 84 % 10.46 C
161 19-11-2015 13:20:00 13.1 C 83 % 10.28 C
162 19-11-2015 13:25:00 13.1 C 83 % 10.28 C
163 19-11-2015 13:30:00 13.1 C 85 % 10.64 C
164 19-11-2015 13:35:00 12.8 C 87 % 10.69 C
165 19-11-2015 13:40:00 12.6 C 88 % 10.67 C
166 19-11-2015 13:45:00 12.4 C 89 % 10.64 C
167 19-11-2015 13:50:00 12.3 C 90 % 10.71 C
168 19-11-2015 13:55:00 12.2 C 91 % 10.78 C
169 19-11-2015 14:00:00 12.1 C 91 % 10.68 C
170 19-11-2015 14:05:00 12.1 C 92 % 10.84 C
171 19-11-2015 14:10:00 12 C 92 % 10.74 C
172 19-11-2015 14:15:00 11.9 C 92 % 10.64 C
173 19-11-2015 14:20:00 11.9 C 92 % 10.64 C
174 19-11-2015 14:25:00 11.8 C 92 % 10.54 C
175 19-11-2015 14:30:00 11.8 C 92 % 10.54 C
Sensor: Nr:Datum:Temp:Feuchte:Taupunkt:
Aussen-T/F 176 19-11-2015 14:35:00 11.7 C 93 % 10.61 C
177 19-11-2015 14:40:00 11.7 C 93 % 10.61 C
178 19-11-2015 14:45:00 11.7 C 93 % 10.61 C
179 19-11-2015 14:50:00 11.7 C 93 % 10.61 C
180 19-11-2015 14:55:00 11.6 C 93 % 10.51 C
181 19-11-2015 15:00:00 11.6 C 94 % 10.67 C
182 19-11-2015 15:05:00 11.6 C 94 % 10.67 C
183 19-11-2015 15:10:00 11.5 C 94 % 10.57 C
184 19-11-2015 15:15:00 11.4 C 93 % 10.31 C
185 19-11-2015 15:20:00 11.3 C 93 % 10.21 C
186 19-11-2015 15:25:00 11.3 C 92 % 10.05 C
187 19-11-2015 15:30:00 11.3 C 91 % 9.89 C
188 19-11-2015 15:35:00 11.3 C 91 % 9.89 C
189 19-11-2015 15:40:00 11.4 C 90 % 9.82 C
190 19-11-2015 15:45:00 11.4 C 90 % 9.82 C
191 19-11-2015 15:50:00 11.4 C 90 % 9.82 C
192 19-11-2015 15:55:00 11.5 C 90 % 9.92 C
193 19-11-2015 16:00:00 11.4 C 91 % 9.98 C
194 19-11-2015 16:05:00 11.4 C 91 % 9.98 C
195 19-11-2015 16:10:00 11.3 C 91 % 9.89 C
196 19-11-2015 16:15:00 11.3 C 92 % 10.05 C
197 19-11-2015 16:20:00 11.2 C 92 % 9.95 C
198 19-11-2015 16:25:00 11.2 C 92 % 9.95 C
199 19-11-2015 16:30:00 11.1 C 92 % 9.85 C
200 19-11-2015 16:35:00 11.1 C 93 % 10.01 C
Sensor: Nr:Datum:Temp:Feuchte:Taupunkt:
Aussen-T/F 201 19-11-2015 16:40:00 11 C 93 % 9.91 C
202 19-11-2015 16:45:00 10.9 C 93 % 9.81 C
203 19-11-2015 16:50:00 10.9 C 93 % 9.81 C
204 19-11-2015 16:55:00 10.8 C 93 % 9.71 C
205 19-11-2015 17:00:00 10.7 C 93 % 9.62 C
206 19-11-2015 17:05:00 10.7 C 93 % 9.62 C
207 19-11-2015 17:10:00 10.6 C 93 % 9.52 C
208 19-11-2015 17:15:00 10.5 C 94 % 9.58 C
209 19-11-2015 17:20:00 10.4 C 93 % 9.32 C
210 19-11-2015 17:25:00 10.3 C 94 % 9.38 C
211 19-11-2015 17:30:00 10.3 C 94 % 9.38 C
212 19-11-2015 17:35:00 10.3 C 94 % 9.38 C
213 19-11-2015 17:40:00 10.2 C 94 % 9.28 C
214 19-11-2015 17:45:00 10.2 C 94 % 9.28 C
215 19-11-2015 17:50:00 10.2 C 94 % 9.28 C
216 19-11-2015 17:55:00 10.2 C 94 % 9.28 C
217 19-11-2015 18:00:00 10.1 C 94 % 9.18 C
218 19-11-2015 18:05:00 10.1 C 94 % 9.18 C
219 19-11-2015 18:10:00 10.1 C 95 % 9.34 C
220 19-11-2015 18:15:00 10.1 C 95 % 9.34 C
221 19-11-2015 18:20:00 10.1 C 95 % 9.34 C
222 19-11-2015 18:25:00 10.1 C 95 % 9.34 C
223 19-11-2015 18:30:00 10 C 95 % 9.24 C
224 19-11-2015 18:35:00 10 C 95 % 9.24 C
225 19-11-2015 18:40:00 10 C 95 % 9.24 C
Sensor: Nr:Datum:Temp:Feuchte:Taupunkt:
Aussen-T/F 226 19-11-2015 18:45:00 10 C 95 % 9.24 C
227 19-11-2015 18:50:00 10 C 95 % 9.24 C
228 19-11-2015 18:55:00 10.1 C 95 % 9.34 C
229 19-11-2015 19:00:00 10 C 95 % 9.24 C
230 19-11-2015 19:05:00 10 C 95 % 9.24 C
231 19-11-2015 19:10:00 10 C 95 % 9.24 C
232 19-11-2015 19:15:00 9.9 C 95 % 9.14 C
233 19-11-2015 19:20:00 9.9 C 95 % 9.14 C
234 19-11-2015 19:25:00 9.9 C 95 % 9.14 C
235 19-11-2015 19:30:00 9.9 C 96 % 9.29 C
236 19-11-2015 19:35:00 9.9 C 96 % 9.29 C
237 19-11-2015 19:40:00 9.9 C 96 % 9.29 C
238 19-11-2015 19:45:00 9.9 C 96 % 9.29 C
239 19-11-2015 19:50:00 9.9 C 96 % 9.29 C
240 19-11-2015 19:55:00 9.9 C 96 % 9.29 C
241 19-11-2015 20:00:00 9.9 C 96 % 9.29 C
242 19-11-2015 20:05:00 9.9 C 96 % 9.29 C
243 19-11-2015 20:10:00 9.9 C 96 % 9.29 C
244 19-11-2015 20:15:00 9.9 C 96 % 9.29 C
245 19-11-2015 20:20:00 9.9 C 96 % 9.29 C
246 19-11-2015 20:25:00 9.9 C 96 % 9.29 C
247 19-11-2015 20:30:00 9.9 C 96 % 9.29 C
248 19-11-2015 20:35:00 10 C 96 % 9.39 C
249 19-11-2015 20:40:00 10.1 C 96 % 9.49 C
250 19-11-2015 20:45:00 10.2 C 96 % 9.59 C
Sensor: Nr:Datum:Temp:Feuchte:Taupunkt:
Aussen-T/F 251 19-11-2015 20:50:00 10.4 C 97 % 9.94 C
252 19-11-2015 20:55:00 11.2 C 97 % 10.74 C
253 19-11-2015 21:00:00 11.8 C 97 % 11.34 C
254 19-11-2015 21:05:00 11.7 C 97 % 11.24 C
255 19-11-2015 21:10:00 11 C 96 % 10.39 C
256 19-11-2015 21:15:00 10.6 C 95 % 9.83 C
257 19-11-2015 21:20:00 10.4 C 95 % 9.63 C
258 19-11-2015 21:25:00 10.3 C 95 % 9.54 C
259 19-11-2015 21:30:00 10.3 C 96 % 9.69 C
260 19-11-2015 21:35:00 10.2 C 96 % 9.59 C
261 19-11-2015 21:40:00 10.2 C 96 % 9.59 C
262 19-11-2015 21:45:00 10.2 C 95 % 9.44 C
263 19-11-2015 21:50:00 10.1 C 95 % 9.34 C
264 19-11-2015 21:55:00 9.9 C 95 % 9.14 C
265 19-11-2015 22:00:00 9.8 C 95 % 9.04 C
266 19-11-2015 22:05:00 9.8 C 95 % 9.04 C
267 19-11-2015 22:10:00 9.7 C 95 % 8.94 C
268 19-11-2015 22:15:00 9.6 C 94 % 8.68 C
269 19-11-2015 22:20:00 9.4 C 94 % 8.48 C
270 19-11-2015 22:25:00 9.3 C 94 % 8.39 C
271 19-11-2015 22:30:00 9.2 C 94 % 8.29 C
272 19-11-2015 22:35:00 9.1 C 94 % 8.19 C
273 19-11-2015 22:40:00 9.1 C 94 % 8.19 C
274 19-11-2015 22:45:00 9.1 C 95 % 8.34 C
275 19-11-2015 22:50:00 9 C 95 % 8.24 C
Sensor: Nr:Datum:Temp:Feuchte:Taupunkt:
Aussen-T/F 276 19-11-2015 22:55:00 8.9 C 95 % 8.14 C
277 19-11-2015 23:00:00 8.9 C 95 % 8.14 C
278 19-11-2015 23:05:00 8.9 C 95 % 8.14 C
279 19-11-2015 23:10:00 8.9 C 95 % 8.14 C
280 19-11-2015 23:15:00 8.9 C 95 % 8.14 C
281 19-11-2015 23:20:00 8.9 C 95 % 8.14 C
282 19-11-2015 23:25:00 8.9 C 95 % 8.14 C
283 19-11-2015 23:30:00 8.9 C 95 % 8.14 C
284 19-11-2015 23:35:00 9 C 95 % 8.24 C
285 19-11-2015 23:40:00 9 C 95 % 8.24 C
286 19-11-2015 23:45:00 8.9 C 96 % 8.3 C
287 19-11-2015 23:50:00 9 C 96 % 8.4 C
288 19-11-2015 23:55:00 8.9 C 96 % 8.3 C
289 20-11-2015 00:00:00 9 C 96 % 8.4 C
290 20-11-2015 00:05:00 9 C 96 % 8.4 C
291 20-11-2015 00:10:00 9 C 96 % 8.4 C
292 20-11-2015 00:15:00 9 C 96 % 8.4 C
293 20-11-2015 00:20:00 9 C 96 % 8.4 C
294 20-11-2015 00:25:00 9 C 96 % 8.4 C
295 20-11-2015 00:30:00 9 C 96 % 8.4 C
296 20-11-2015 00:35:00 9 C 96 % 8.4 C
297 20-11-2015 00:40:00 9 C 96 % 8.4 C
298 20-11-2015 00:45:00 9 C 96 % 8.4 C
299 20-11-2015 00:50:00 9 C 96 % 8.4 C
300 20-11-2015 00:55:00 8.9 C 96 % 8.3 C
Sensor: Nr:Datum:Temp:Feuchte:Taupunkt:
Aussen-T/F 301 20-11-2015 01:00:00 8.9 C 96 % 8.3 C
302 20-11-2015 01:05:00 8.9 C 96 % 8.3 C
303 20-11-2015 01:10:00 8.9 C 96 % 8.3 C
304 20-11-2015 01:15:00 8.9 C 96 % 8.3 C
305 20-11-2015 01:20:00 8.9 C 96 % 8.3 C
306 20-11-2015 01:25:00 8.9 C 96 % 8.3 C
307 20-11-2015 01:30:00 8.9 C 96 % 8.3 C
308 20-11-2015 01:35:00 8.9 C 96 % 8.3 C
309 20-11-2015 01:40:00 9 C 96 % 8.4 C
310 20-11-2015 01:45:00 9 C 96 % 8.4 C
311 20-11-2015 01:50:00 9 C 96 % 8.4 C
312 20-11-2015 01:55:00 9.1 C 96 % 8.5 C
313 20-11-2015 02:00:00 9.1 C 96 % 8.5 C
314 20-11-2015 02:05:00 9.2 C 96 % 8.6 C
315 20-11-2015 02:10:00 9.2 C 96 % 8.6 C
316 20-11-2015 02:15:00 9.3 C 97 % 8.85 C
317 20-11-2015 02:20:00 9.3 C 97 % 8.85 C
318 20-11-2015 02:25:00 9.4 C 97 % 8.95 C
319 20-11-2015 02:30:00 9.5 C 97 % 9.05 C
320 20-11-2015 02:35:00 9.6 C 97 % 9.15 C
321 20-11-2015 02:40:00 9.6 C 97 % 9.15 C
322 20-11-2015 02:45:00 9.6 C 97 % 9.15 C
323 20-11-2015 02:50:00 9.6 C 97 % 9.15 C
324 20-11-2015 02:55:00 9.6 C 97 % 9.15 C
325 20-11-2015 03:00:00 9.7 C 97 % 9.25 C
Sensor: Nr:Datum:Temp:Feuchte:Taupunkt:
Aussen-T/F 326 20-11-2015 03:05:00 9.7 C 97 % 9.25 C
327 20-11-2015 03:10:00 9.7 C 97 % 9.25 C
328 20-11-2015 03:15:00 9.7 C 97 % 9.25 C
329 20-11-2015 03:20:00 9.7 C 97 % 9.25 C
330 20-11-2015 03:25:00 9.7 C 97 % 9.25 C
331 20-11-2015 03:30:00 9.7 C 97 % 9.25 C
332 20-11-2015 03:35:00 9.7 C 97 % 9.25 C
333 20-11-2015 03:40:00 9.7 C 97 % 9.25 C
334 20-11-2015 03:45:00 9.8 C 97 % 9.35 C
335 20-11-2015 03:50:00 9.8 C 97 % 9.35 C
336 20-11-2015 03:55:00 9.8 C 97 % 9.35 C
337 20-11-2015 04:00:00 9.8 C 97 % 9.35 C
338 20-11-2015 04:05:00 9.8 C 97 % 9.35 C
339 20-11-2015 04:10:00 9.8 C 97 % 9.35 C
340 20-11-2015 04:15:00 9.8 C 97 % 9.35 C
341 20-11-2015 04:20:00 9.9 C 97 % 9.45 C
342 20-11-2015 04:25:00 9.8 C 97 % 9.35 C
343 20-11-2015 04:30:00 9.8 C 97 % 9.35 C
344 20-11-2015 04:35:00 9.8 C 97 % 9.35 C
345 20-11-2015 04:40:00 9.8 C 97 % 9.35 C
346 20-11-2015 04:45:00 9.8 C 97 % 9.35 C
347 20-11-2015 04:50:00 9.8 C 97 % 9.35 C
348 20-11-2015 04:55:00 9.8 C 97 % 9.35 C
349 20-11-2015 05:00:00 9.7 C 97 % 9.25 C
350 20-11-2015 05:05:00 9.7 C 97 % 9.25 C
Sensor: Nr:Datum:Temp:Feuchte:Taupunkt:
Aussen-T/F 351 20-11-2015 05:10:00 9.7 C 96 % 9.09 C
352 20-11-2015 05:15:00 9.6 C 97 % 9.15 C
353 20-11-2015 05:20:00 9.6 C 97 % 9.15 C
354 20-11-2015 05:25:00 9.6 C 97 % 9.15 C
355 20-11-2015 05:30:00 9.6 C 97 % 9.15 C
356 20-11-2015 05:35:00 9.5 C 97 % 9.05 C
357 20-11-2015 05:40:00 9.4 C 97 % 8.95 C
358 20-11-2015 05:45:00 9.3 C 96 % 8.7 C
359 20-11-2015 05:50:00 9.2 C 96 % 8.6 C
360 20-11-2015 05:55:00 9.1 C 96 % 8.5 C
361 20-11-2015 06:00:00 9 C 96 % 8.4 C
362 20-11-2015 06:05:00 8.9 C 96 % 8.3 C
363 20-11-2015 06:10:00 8.9 C 96 % 8.3 C
364 20-11-2015 06:15:00 8.8 C 96 % 8.2 C
365 20-11-2015 06:20:00 8.8 C 96 % 8.2 C
366 20-11-2015 06:25:00 8.8 C 96 % 8.2 C
367 20-11-2015 06:30:00 8.7 C 96 % 8.1 C
368 20-11-2015 06:35:00 8.7 C 96 % 8.1 C
369 20-11-2015 06:40:00 8.6 C 95 % 7.85 C
370 20-11-2015 06:45:00 8.6 C 95 % 7.85 C
371 20-11-2015 06:50:00 8.6 C 95 % 7.85 C
372 20-11-2015 06:55:00 8.6 C 95 % 7.85 C
373 20-11-2015 07:00:00 8.6 C 95 % 7.85 C
374 20-11-2015 07:05:00 8.5 C 95 % 7.75 C
375 20-11-2015 07:10:00 8.5 C 95 % 7.75 C
Sensor: Nr:Datum:Temp:Feuchte:Taupunkt:
Aussen-T/F 376 20-11-2015 07:15:00 8.5 C 95 % 7.75 C
377 20-11-2015 07:20:00 8.5 C 95 % 7.75 C
378 20-11-2015 07:25:00 8.5 C 95 % 7.75 C
379 20-11-2015 07:30:00 8.5 C 95 % 7.75 C
380 20-11-2015 07:35:00 8.5 C 94 % 7.59 C
381 20-11-2015 07:40:00 8.5 C 94 % 7.59 C
382 20-11-2015 07:45:00 8.6 C 94 % 7.69 C
383 20-11-2015 07:50:00 8.6 C 93 % 7.53 C
384 20-11-2015 07:55:00 8.7 C 92 % 7.47 C
385 20-11-2015 08:00:00 8.8 C 92 % 7.57 C
386 20-11-2015 08:05:00 8.8 C 92 % 7.57 C
387 20-11-2015 08:10:00 8.8 C 92 % 7.57 C
388 20-11-2015 08:15:00 8.8 C 92 % 7.57 C
389 20-11-2015 08:20:00 8.7 C 92 % 7.47 C
390 20-11-2015 08:25:00 8.7 C 92 % 7.47 C
391 20-11-2015 08:30:00 8.7 C 93 % 7.63 C
392 20-11-2015 08:35:00 8.7 C 92 % 7.47 C
393 20-11-2015 08:40:00 8.6 C 92 % 7.38 C
394 20-11-2015 08:45:00 8.6 C 92 % 7.38 C
395 20-11-2015 08:50:00 8.6 C 92 % 7.38 C
396 20-11-2015 08:55:00 8.6 C 92 % 7.38 C
397 20-11-2015 09:00:00 8.6 C 92 % 7.38 C
398 20-11-2015 09:05:00 8.6 C 92 % 7.38 C
399 20-11-2015 09:10:00 8.6 C 92 % 7.38 C
400 20-11-2015 09:15:00 8.6 C 92 % 7.38 C
Sensor: Nr:Datum:Temp:Feuchte:Taupunkt:
Aussen-T/F 401 20-11-2015 09:20:00 8.7 C 92 % 7.47 C
402 20-11-2015 09:25:00 8.7 C 91 % 7.32 C
403 20-11-2015 09:30:00 8.7 C 92 % 7.47 C
404 20-11-2015 09:35:00 8.7 C 91 % 7.32 C
405 20-11-2015 09:40:00 8.7 C 91 % 7.32 C
406 20-11-2015 09:45:00 8.7 C 91 % 7.32 C
407 20-11-2015 09:50:00 8.7 C 91 % 7.32 C
408 20-11-2015 09:55:00 8.7 C 91 % 7.32 C
409 20-11-2015 10:00:00 8.7 C 91 % 7.32 C
410 20-11-2015 10:05:00 8.7 C 91 % 7.32 C
411 20-11-2015 10:10:00 8.7 C 91 % 7.32 C
412 20-11-2015 10:15:00 8.7 C 90 % 7.15 C
413 20-11-2015 10:20:00 8.7 C 91 % 7.32 C
414 20-11-2015 10:25:00 8.7 C 91 % 7.32 C
415 20-11-2015 10:30:00 8.7 C 91 % 7.32 C
416 20-11-2015 10:35:00 8.7 C 91 % 7.32 C
417 20-11-2015 10:40:00 8.7 C 91 % 7.32 C
418 20-11-2015 10:45:00 8.6 C 92 % 7.38 C
419 20-11-2015 10:50:00 8.6 C 92 % 7.38 C
420 20-11-2015 10:55:00 8.6 C 92 % 7.38 C
421 20-11-2015 11:00:00 8.5 C 93 % 7.43 C
422 20-11-2015 11:05:00 8.4 C 93 % 7.34 C
423 20-11-2015 11:10:00 8.4 C 93 % 7.34 C
424 20-11-2015 11:15:00 8.4 C 93 % 7.34 C
425 20-11-2015 11:20:00 8.4 C 93 % 7.34 C
Sensor: Nr:Datum:Temp:Feuchte:Taupunkt:
Aussen-T/F 426 20-11-2015 11:25:00 8.4 C 93 % 7.34 C
427 20-11-2015 11:30:00 8.4 C 93 % 7.34 C
428 20-11-2015 11:35:00 8.4 C 93 % 7.34 C
429 20-11-2015 11:40:00 8.4 C 93 % 7.34 C
430 20-11-2015 11:45:00 8.4 C 93 % 7.34 C
431 20-11-2015 11:50:00 8.4 C 94 % 7.49 C
432 20-11-2015 11:55:00 8.4 C 93 % 7.34 C
433 20-11-2015 12:00:00 8.4 C 93 % 7.34 C
434 20-11-2015 12:05:00 8.4 C 93 % 7.34 C
435 20-11-2015 12:10:00 8.4 C 93 % 7.34 C
436 20-11-2015 12:15:00 8.4 C 93 % 7.34 C
437 20-11-2015 12:20:00 8.4 C 93 % 7.34 C
438 20-11-2015 12:25:00 8.4 C 93 % 7.34 C
439 20-11-2015 12:30:00 8.4 C 93 % 7.34 C
440 20-11-2015 12:35:00 8.4 C 93 % 7.34 C
441 20-11-2015 12:40:00 8.4 C 93 % 7.34 C
442 20-11-2015 12:45:00 8.4 C 93 % 7.34 C
443 20-11-2015 12:50:00 8.4 C 94 % 7.49 C
444 20-11-2015 12:55:00 8.4 C 94 % 7.49 C
445 20-11-2015 13:00:00 8.4 C 94 % 7.49 C
446 20-11-2015 13:05:00 8.4 C 94 % 7.49 C
447 20-11-2015 13:10:00 8.4 C 94 % 7.49 C
448 20-11-2015 13:15:00 8.3 C 94 % 7.39 C
449 20-11-2015 13:20:00 8.3 C 94 % 7.39 C
450 20-11-2015 13:25:00 8.3 C 94 % 7.39 C
Sensor: Nr:Datum:Temp:Feuchte:Taupunkt:
Aussen-T/F 451 20-11-2015 13:30:00 8.2 C 94 % 7.29 C
452 20-11-2015 13:35:00 8.1 C 94 % 7.19 C
453 20-11-2015 13:40:00 8.1 C 94 % 7.19 C
454 20-11-2015 13:45:00 8.1 C 94 % 7.19 C
455 20-11-2015 13:50:00 8.1 C 94 % 7.19 C
456 20-11-2015 13:55:00 8.1 C 94 % 7.19 C
457 20-11-2015 14:00:00 8 C 94 % 7.09 C
458 20-11-2015 14:05:00 8 C 94 % 7.09 C
459 20-11-2015 14:10:00 8 C 94 % 7.09 C
460 20-11-2015 14:15:00 7.9 C 94 % 7 C
461 20-11-2015 14:20:00 7.9 C 94 % 7 C
462 20-11-2015 14:25:00 7.9 C 94 % 7 C
463 20-11-2015 14:30:00 7.7 C 94 % 6.8 C
464 20-11-2015 14:35:00 7.6 C 93 % 6.54 C
465 20-11-2015 14:40:00 7.5 C 94 % 6.6 C
466 20-11-2015 14:45:00 7.4 C 94 % 6.5 C
467 20-11-2015 14:50:00 7.3 C 94 % 6.4 C
468 20-11-2015 14:55:00 7.3 C 94 % 6.4 C
469 20-11-2015 15:00:00 7.2 C 94 % 6.3 C
470 20-11-2015 15:05:00 7.2 C 94 % 6.3 C
471 20-11-2015 15:10:00 7.2 C 94 % 6.3 C
472 20-11-2015 15:15:00 7.1 C 94 % 6.2 C
473 20-11-2015 15:20:00 7 C 94 % 6.1 C
474 20-11-2015 15:25:00 6.9 C 94 % 6 C
475 20-11-2015 15:30:00 6.9 C 94 % 6 C
Sensor: Nr:Datum:Temp:Feuchte:Taupunkt:
Aussen-T/F 476 20-11-2015 15:35:00 6.8 C 94 % 5.9 C
477 20-11-2015 15:40:00 6.8 C 94 % 5.9 C
478 20-11-2015 15:45:00 6.8 C 94 % 5.9 C
479 20-11-2015 15:50:00 6.8 C 94 % 5.9 C
480 20-11-2015 15:55:00 6.7 C 94 % 5.8 C
481 20-11-2015 16:00:00 6.7 C 94 % 5.8 C
482 20-11-2015 16:05:00 6.7 C 94 % 5.8 C
483 20-11-2015 16:10:00 6.6 C 94 % 5.71 C
484 20-11-2015 16:15:00 6.6 C 94 % 5.71 C
485 20-11-2015 16:20:00 6.5 C 94 % 5.61 C
486 20-11-2015 16:25:00 6.4 C 94 % 5.51 C
487 20-11-2015 16:30:00 6.3 C 94 % 5.41 C
488 20-11-2015 16:35:00 6.3 C 95 % 5.56 C
489 20-11-2015 16:40:00 6.2 C 95 % 5.46 C
490 20-11-2015 16:45:00 6.2 C 95 % 5.46 C
491 20-11-2015 16:50:00 6.2 C 95 % 5.46 C
492 20-11-2015 16:55:00 6.2 C 95 % 5.46 C
493 20-11-2015 17:00:00 6.1 C 95 % 5.36 C
494 20-11-2015 17:05:00 6.1 C 95 % 5.36 C
495 20-11-2015 17:10:00 6.1 C 95 % 5.36 C
496 20-11-2015 17:15:00 6 C 95 % 5.26 C
497 20-11-2015 17:20:00 6 C 95 % 5.26 C
498 20-11-2015 17:25:00 5.9 C 95 % 5.16 C
499 20-11-2015 17:30:00 5.9 C 95 % 5.16 C
500 20-11-2015 17:35:00 5.9 C 95 % 5.16 C
Sensor: Nr:Datum:Temp:Feuchte:Taupunkt:
Aussen-T/F 501 20-11-2015 17:40:00 5.9 C 95 % 5.16 C
502 20-11-2015 17:45:00 5.8 C 95 % 5.06 C
503 20-11-2015 17:50:00 5.8 C 95 % 5.06 C
504 20-11-2015 17:55:00 5.8 C 95 % 5.06 C
505 20-11-2015 18:00:00 5.8 C 95 % 5.06 C
506 20-11-2015 18:05:00 5.8 C 96 % 5.21 C
507 20-11-2015 18:10:00 5.7 C 96 % 5.11 C
508 20-11-2015 18:15:00 5.7 C 96 % 5.11 C
509 20-11-2015 18:20:00 5.7 C 96 % 5.11 C
510 20-11-2015 18:25:00 5.7 C 95 % 4.96 C
511 20-11-2015 18:30:00 5.7 C 95 % 4.96 C
512 20-11-2015 18:35:00 5.7 C 95 % 4.96 C
513 20-11-2015 18:40:00 5.6 C 96 % 5.01 C
514 20-11-2015 18:45:00 5.6 C 96 % 5.01 C
515 20-11-2015 18:50:00 5.6 C 96 % 5.01 C
516 20-11-2015 18:55:00 5.6 C 96 % 5.01 C
517 20-11-2015 19:00:00 5.6 C 96 % 5.01 C
518 20-11-2015 19:05:00 5.6 C 96 % 5.01 C
519 20-11-2015 19:10:00 5.6 C 96 % 5.01 C
520 20-11-2015 19:15:00 5.6 C 96 % 5.01 C
521 20-11-2015 19:20:00 5.5 C 96 % 4.91 C
522 20-11-2015 19:25:00 5.4 C 95 % 4.66 C
523 20-11-2015 19:30:00 5.4 C 95 % 4.66 C
524 20-11-2015 19:35:00 5.4 C 96 % 4.81 C
525 20-11-2015 19:40:00 5.4 C 96 % 4.81 C
Sensor: Nr:Datum:Temp:Feuchte:Taupunkt:
Aussen-T/F 526 20-11-2015 19:45:00 5.4 C 96 % 4.81 C
527 20-11-2015 19:50:00 5.5 C 96 % 4.91 C
528 20-11-2015 19:55:00 5.6 C 96 % 5.01 C
529 20-11-2015 20:00:00 5.6 C 96 % 5.01 C
530 20-11-2015 20:05:00 5.6 C 95 % 4.86 C
531 20-11-2015 20:10:00 5.7 C 95 % 4.96 C
532 20-11-2015 20:15:00 5.7 C 95 % 4.96 C
533 20-11-2015 20:20:00 5.7 C 95 % 4.96 C
534 20-11-2015 20:25:00 5.7 C 95 % 4.96 C
535 20-11-2015 20:30:00 5.7 C 95 % 4.96 C
536 20-11-2015 20:35:00 5.7 C 95 % 4.96 C
537 20-11-2015 20:40:00 5.6 C 95 % 4.86 C
538 20-11-2015 20:45:00 5.6 C 95 % 4.86 C
539 20-11-2015 20:50:00 5.6 C 95 % 4.86 C
540 20-11-2015 20:55:00 5.6 C 95 % 4.86 C
541 20-11-2015 21:00:00 5.5 C 95 % 4.76 C
542 20-11-2015 21:05:00 5.4 C 95 % 4.66 C
543 20-11-2015 21:10:00 5.4 C 95 % 4.66 C
544 20-11-2015 21:15:00 5.3 C 95 % 4.57 C
545 20-11-2015 21:20:00 5.3 C 95 % 4.57 C
546 20-11-2015 21:25:00 5.2 C 95 % 4.47 C
547 20-11-2015 21:30:00 5.2 C 95 % 4.47 C
548 20-11-2015 21:35:00 5.2 C 95 % 4.47 C
549 20-11-2015 21:40:00 5.2 C 95 % 4.47 C
550 20-11-2015 21:45:00 5.2 C 95 % 4.47 C
Sensor: Nr:Datum:Temp:Feuchte:Taupunkt:
Aussen-T/F 551 20-11-2015 21:50:00 5.2 C 95 % 4.47 C
552 20-11-2015 21:55:00 5.2 C 95 % 4.47 C
553 20-11-2015 22:00:00 5.2 C 95 % 4.47 C
554 20-11-2015 22:05:00 5.1 C 95 % 4.37 C
555 20-11-2015 22:10:00 5.1 C 95 % 4.37 C
556 20-11-2015 22:15:00 5.1 C 95 % 4.37 C
557 20-11-2015 22:20:00 5.1 C 95 % 4.37 C
558 20-11-2015 22:25:00 5.1 C 95 % 4.37 C
559 20-11-2015 22:30:00 5.1 C 95 % 4.37 C
560 20-11-2015 22:35:00 5.1 C 95 % 4.37 C
561 20-11-2015 22:40:00 5 C 94 % 4.12 C
562 20-11-2015 22:45:00 4.9 C 94 % 4.02 C
563 20-11-2015 22:50:00 4.7 C 94 % 3.82 C
564 20-11-2015 22:55:00 4.6 C 94 % 3.72 C
565 20-11-2015 23:00:00 4.5 C 94 % 3.62 C
566 20-11-2015 23:05:00 4.5 C 94 % 3.62 C
567 20-11-2015 23:10:00 4.6 C 94 % 3.72 C
568 20-11-2015 23:15:00 4.6 C 94 % 3.72 C
569 20-11-2015 23:20:00 4.6 C 94 % 3.72 C
570 20-11-2015 23:25:00 4.6 C 94 % 3.72 C
571 20-11-2015 23:30:00 4.6 C 94 % 3.72 C
572 20-11-2015 23:35:00 4.6 C 94 % 3.72 C
573 20-11-2015 23:40:00 4.6 C 94 % 3.72 C
574 20-11-2015 23:45:00 4.6 C 94 % 3.72 C
575 20-11-2015 23:50:00 4.6 C 94 % 3.72 C
Sensor: Nr:Datum:Temp:Feuchte:Taupunkt:
Aussen-T/F 576 20-11-2015 23:55:00 4.6 C 94 % 3.72 C
577 21-11-2015 00:00:00 4.4 C 94 % 3.52 C
578 21-11-2015 00:05:00 4.4 C 94 % 3.52 C
579 21-11-2015 00:10:00 4.4 C 93 % 3.37 C
580 21-11-2015 00:15:00 4.3 C 94 % 3.42 C
581 21-11-2015 00:20:00 4.2 C 94 % 3.32 C
582 21-11-2015 00:25:00 4.2 C 94 % 3.32 C
583 21-11-2015 00:30:00 4.1 C 94 % 3.22 C
584 21-11-2015 00:35:00 4 C 94 % 3.12 C
585 21-11-2015 00:40:00 4 C 94 % 3.12 C
586 21-11-2015 00:45:00 4.1 C 94 % 3.22 C
587 21-11-2015 00:50:00 4.2 C 94 % 3.32 C
588 21-11-2015 00:55:00 4.3 C 93 % 3.27 C
589 21-11-2015 01:00:00 4.3 C 93 % 3.27 C
590 21-11-2015 01:05:00 4.4 C 93 % 3.37 C
591 21-11-2015 01:10:00 4.3 C 93 % 3.27 C
592 21-11-2015 01:15:00 4.3 C 92 % 3.12 C
593 21-11-2015 01:20:00 4.3 C 92 % 3.12 C
594 21-11-2015 01:25:00 4.3 C 92 % 3.12 C
595 21-11-2015 01:30:00 4.3 C 92 % 3.12 C
596 21-11-2015 01:35:00 4.3 C 92 % 3.12 C
597 21-11-2015 01:40:00 4.4 C 92 % 3.22 C
598 21-11-2015 01:45:00 4.4 C 92 % 3.22 C
599 21-11-2015 01:50:00 4.5 C 92 % 3.32 C
600 21-11-2015 01:55:00 4.6 C 91 % 3.26 C
Sensor: Nr:Datum:Temp:Feuchte:Taupunkt:
Aussen-T/F 601 21-11-2015 02:00:00 4.7 C 91 % 3.36 C
602 21-11-2015 02:05:00 4.8 C 91 % 3.46 C
603 21-11-2015 02:10:00 4.9 C 91 % 3.56 C
604 21-11-2015 02:15:00 5 C 90 % 3.5 C
605 21-11-2015 02:20:00 5.1 C 90 % 3.6 C
606 21-11-2015 02:25:00 5.2 C 89 % 3.54 C
607 21-11-2015 02:30:00 5.3 C 89 % 3.64 C
608 21-11-2015 02:35:00 5.3 C 89 % 3.64 C
609 21-11-2015 02:40:00 5.3 C 88 % 3.48 C
610 21-11-2015 02:45:00 5.3 C 88 % 3.48 C
611 21-11-2015 02:50:00 5.2 C 88 % 3.38 C
612 21-11-2015 02:55:00 5.2 C 88 % 3.38 C
613 21-11-2015 03:00:00 5.1 C 89 % 3.44 C
614 21-11-2015 03:05:00 5 C 89 % 3.34 C
615 21-11-2015 03:10:00 4.9 C 89 % 3.24 C
616 21-11-2015 03:15:00 4.9 C 90 % 3.4 C
617 21-11-2015 03:20:00 4.8 C 90 % 3.3 C
618 21-11-2015 03:25:00 4.8 C 90 % 3.3 C
619 21-11-2015 03:30:00 4.8 C 90 % 3.3 C
620 21-11-2015 03:35:00 4.8 C 90 % 3.3 C
621 21-11-2015 03:40:00 4.9 C 89 % 3.24 C
622 21-11-2015 03:45:00 4.9 C 89 % 3.24 C
623 21-11-2015 03:50:00 4.8 C 88 % 2.99 C
624 21-11-2015 03:55:00 4.7 C 89 % 3.05 C
625 21-11-2015 04:00:00 4.7 C 89 % 3.05 C
Sensor: Nr:Datum:Temp:Feuchte:Taupunkt:
Aussen-T/F 626 21-11-2015 04:05:00 4.5 C 89 % 2.85 C
627 21-11-2015 04:10:00 4.5 C 89 % 2.85 C
628 21-11-2015 04:15:00 4.5 C 89 % 2.85 C
629 21-11-2015 04:20:00 4.5 C 89 % 2.85 C
630 21-11-2015 04:25:00 4.6 C 89 % 2.95 C
631 21-11-2015 04:30:00 4.6 C 89 % 2.95 C
632 21-11-2015 04:35:00 4.6 C 89 % 2.95 C
633 21-11-2015 04:40:00 4.6 C 89 % 2.95 C
634 21-11-2015 04:45:00 4.6 C 89 % 2.95 C
635 21-11-2015 04:50:00 4.6 C 89 % 2.95 C
636 21-11-2015 04:55:00 4.4 C 89 % 2.75 C
637 21-11-2015 05:00:00 4.4 C 89 % 2.75 C
638 21-11-2015 05:05:00 4.3 C 89 % 2.65 C
639 21-11-2015 05:10:00 4.2 C 90 % 2.71 C
640 21-11-2015 05:15:00 4.2 C 90 % 2.71 C
641 21-11-2015 05:20:00 4.2 C 91 % 2.87 C
642 21-11-2015 05:25:00 4.2 C 91 % 2.87 C
643 21-11-2015 05:30:00 4.3 C 90 % 2.81 C
644 21-11-2015 05:35:00 4.4 C 90 % 2.91 C
645 21-11-2015 05:40:00 4.4 C 90 % 2.91 C
646 21-11-2015 05:45:00 4.6 C 90 % 3.1 C
647 21-11-2015 05:50:00 4.6 C 89 % 2.95 C
648 21-11-2015 05:55:00 4.7 C 89 % 3.05 C
649 21-11-2015 06:00:00 4.8 C 89 % 3.14 C
650 21-11-2015 06:05:00 4.8 C 88 % 2.99 C
Sensor: Nr:Datum:Temp:Feuchte:Taupunkt:
Aussen-T/F 651 21-11-2015 06:10:00 4.8 C 88 % 2.99 C
652 21-11-2015 06:15:00 4.8 C 88 % 2.99 C
653 21-11-2015 06:20:00 4.8 C 88 % 2.99 C
654 21-11-2015 06:25:00 4.7 C 87 % 2.73 C
655 21-11-2015 06:30:00 4.7 C 88 % 2.89 C
656 21-11-2015 06:35:00 4.6 C 88 % 2.79 C
657 21-11-2015 06:40:00 4.5 C 89 % 2.85 C
658 21-11-2015 06:45:00 4.4 C 89 % 2.75 C
659 21-11-2015 06:50:00 4.4 C 90 % 2.91 C
660 21-11-2015 06:55:00 4.3 C 90 % 2.81 C
661 21-11-2015 07:00:00 4.3 C 90 % 2.81 C
662 21-11-2015 07:05:00 4.2 C 90 % 2.71 C
663 21-11-2015 07:10:00 4.2 C 91 % 2.87 C
664 21-11-2015 07:15:00 4.2 C 91 % 2.87 C
665 21-11-2015 07:20:00 4.2 C 91 % 2.87 C
666 21-11-2015 07:25:00 4.2 C 91 % 2.87 C
667 21-11-2015 07:30:00 4.3 C 91 % 2.96 C
668 21-11-2015 07:35:00 4.3 C 91 % 2.96 C
669 21-11-2015 07:40:00 4.3 C 90 % 2.81 C
670 21-11-2015 07:45:00 4.4 C 90 % 2.91 C
671 21-11-2015 07:50:00 4.4 C 89 % 2.75 C
672 21-11-2015 07:55:00 4.4 C 90 % 2.91 C
673 21-11-2015 08:00:00 4.4 C 90 % 2.91 C
674 21-11-2015 08:05:00 4.4 C 90 % 2.91 C
675 21-11-2015 08:10:00 4.4 C 90 % 2.91 C
Sensor: Nr:Datum:Temp:Feuchte:Taupunkt:
Aussen-T/F 676 21-11-2015 08:15:00 4.4 C 90 % 2.91 C
677 21-11-2015 08:20:00 4.4 C 90 % 2.91 C
678 21-11-2015 08:25:00 4.4 C 90 % 2.91 C
679 21-11-2015 08:30:00 4.5 C 90 % 3.01 C
680 21-11-2015 08:35:00 4.5 C 90 % 3.01 C
681 21-11-2015 08:40:00 4.6 C 90 % 3.1 C
682 21-11-2015 08:45:00 4.6 C 90 % 3.1 C
683 21-11-2015 08:50:00 4.6 C 91 % 3.26 C
684 21-11-2015 08:55:00 4.6 C 91 % 3.26 C
685 21-11-2015 09:00:00 4.6 C 91 % 3.26 C
686 21-11-2015 09:05:00 4.6 C 91 % 3.26 C
687 21-11-2015 09:10:00 4.6 C 91 % 3.26 C
688 21-11-2015 09:15:00 4.6 C 91 % 3.26 C
689 21-11-2015 09:20:00 4.7 C 91 % 3.36 C
690 21-11-2015 09:25:00 4.7 C 91 % 3.36 C
691 21-11-2015 09:30:00 4.7 C 91 % 3.36 C
692 21-11-2015 09:35:00 4.8 C 91 % 3.46 C
693 21-11-2015 09:40:00 4.8 C 91 % 3.46 C
694 21-11-2015 09:45:00 4.8 C 91 % 3.46 C
695 21-11-2015 09:50:00 4.9 C 91 % 3.56 C
696 21-11-2015 09:55:00 4.9 C 91 % 3.56 C
697 21-11-2015 10:00:00 5 C 91 % 3.66 C
698 21-11-2015 10:05:00 5.1 C 91 % 3.76 C
699 21-11-2015 10:10:00 5.1 C 90 % 3.6 C
700 21-11-2015 10:15:00 5.1 C 90 % 3.6 C
Sensor: Nr:Datum:Temp:Feuchte:Taupunkt:
Aussen-T/F 701 21-11-2015 10:20:00 5.2 C 90 % 3.7 C
702 21-11-2015 10:25:00 5.2 C 89 % 3.54 C
703 21-11-2015 10:30:00 5.3 C 89 % 3.64 C
704 21-11-2015 10:35:00 5.4 C 88 % 3.58 C
705 21-11-2015 10:40:00 5.6 C 89 % 3.93 C
706 21-11-2015 10:45:00 5.6 C 88 % 3.77 C
707 21-11-2015 10:50:00 5.7 C 88 % 3.87 C
708 21-11-2015 10:55:00 5.8 C 87 % 3.81 C
709 21-11-2015 11:00:00 5.8 C 87 % 3.81 C
710 21-11-2015 11:05:00 5.9 C 87 % 3.91 C
711 21-11-2015 11:10:00 5.9 C 87 % 3.91 C
712 21-11-2015 11:15:00 6 C 87 % 4 C
713 21-11-2015 11:20:00 6 C 86 % 3.84 C
714 21-11-2015 11:25:00 6 C 87 % 4 C
715 21-11-2015 11:30:00 6.1 C 87 % 4.1 C
716 21-11-2015 11:35:00 6.1 C 87 % 4.1 C
717 21-11-2015 11:40:00 6.1 C 87 % 4.1 C
718 21-11-2015 11:45:00 6.1 C 86 % 3.94 C
719 21-11-2015 11:50:00 6.1 C 86 % 3.94 C
720 21-11-2015 11:55:00 6.2 C 86 % 4.04 C
721 21-11-2015 12:00:00 6.2 C 86 % 4.04 C
722 21-11-2015 12:05:00 6.2 C 86 % 4.04 C
723 21-11-2015 12:10:00 6.2 C 85 % 3.87 C
724 21-11-2015 12:15:00 6.1 C 85 % 3.77 C
725 21-11-2015 12:20:00 6.1 C 86 % 3.94 C
Sensor: Nr:Datum:Temp:Feuchte:Taupunkt:
Aussen-T/F 726 21-11-2015 12:25:00 6.1 C 85 % 3.77 C
727 21-11-2015 12:30:00 6.1 C 85 % 3.77 C
728 21-11-2015 12:35:00 6.2 C 86 % 4.04 C
729 21-11-2015 12:40:00 6.3 C 85 % 3.97 C
730 21-11-2015 12:45:00 6.4 C 84 % 3.9 C
731 21-11-2015 12:50:00 6.6 C 83 % 3.92 C
732 21-11-2015 12:55:00 6.6 C 83 % 3.92 C
733 21-11-2015 13:00:00 6.7 C 82 % 3.85 C
734 21-11-2015 13:05:00 6.7 C 82 % 3.85 C
735 21-11-2015 13:10:00 6.7 C 83 % 4.02 C
736 21-11-2015 13:15:00 6.7 C 83 % 4.02 C
737 21-11-2015 13:20:00 6.7 C 82 % 3.85 C
738 21-11-2015 13:25:00 6.7 C 83 % 4.02 C
739 21-11-2015 13:30:00 6.7 C 82 % 3.85 C
740 21-11-2015 13:35:00 6.7 C 81 % 3.68 C
741 21-11-2015 13:40:00 6.7 C 81 % 3.68 C
742 21-11-2015 13:45:00 6.8 C 82 % 3.95 C
743 21-11-2015 13:50:00 6.8 C 81 % 3.77 C
744 21-11-2015 13:55:00 6.8 C 82 % 3.95 C
745 21-11-2015 14:00:00 6.9 C 81 % 3.87 C
746 21-11-2015 14:05:00 6.6 C 81 % 3.58 C
747 21-11-2015 14:10:00 6 C 81 % 2.99 C
748 21-11-2015 14:15:00 5.4 C 83 % 2.75 C
749 21-11-2015 14:20:00 5.1 C 85 % 2.79 C
750 21-11-2015 14:25:00 4.7 C 87 % 2.73 C
Sensor: Nr:Datum:Temp:Feuchte:Taupunkt:
Aussen-T/F 751 21-11-2015 14:30:00 4.5 C 88 % 2.69 C
752 21-11-2015 14:35:00 4.3 C 89 % 2.65 C
753 21-11-2015 14:40:00 4.2 C 90 % 2.71 C
754 21-11-2015 14:45:00 4.1 C 90 % 2.61 C
755 21-11-2015 14:50:00 4.1 C 91 % 2.77 C
756 21-11-2015 14:55:00 4 C 92 % 2.82 C
757 21-11-2015 15:00:00 4 C 92 % 2.82 C
758 21-11-2015 15:05:00 3.9 C 93 % 2.87 C
759 21-11-2015 15:10:00 3.8 C 93 % 2.77 C
760 21-11-2015 15:15:00 3.8 C 93 % 2.77 C
761 21-11-2015 15:20:00 3.7 C 93 % 2.68 C
762 21-11-2015 15:25:00 3.7 C 93 % 2.68 C
763 21-11-2015 15:30:00 3.6 C 93 % 2.58 C
764 21-11-2015 15:35:00 3.6 C 94 % 2.73 C
765 21-11-2015 15:40:00 3.6 C 93 % 2.58 C
766 21-11-2015 15:45:00 3.4 C 93 % 2.38 C
767 21-11-2015 15:50:00 3.3 C 93 % 2.28 C
768 21-11-2015 15:55:00 3.2 C 93 % 2.18 C
769 21-11-2015 16:00:00 2.9 C 93 % 1.88 C
770 21-11-2015 16:05:00 2.7 C 92 % 1.53 C
771 21-11-2015 16:10:00 2.4 C 92 % 1.24 C
772 21-11-2015 16:15:00 2.2 C 92 % 1.04 C
773 21-11-2015 16:20:00 1.9 C 93 % 0.89 C
774 21-11-2015 16:25:00 1.8 C 93 % 0.79 C
775 21-11-2015 16:30:00 1.7 C 93 % 0.69 C
Sensor: Nr:Datum:Temp:Feuchte:Taupunkt:
Aussen-T/F 776 21-11-2015 16:35:00 1.7 C 94 % 0.84 C
777 21-11-2015 16:40:00 1.7 C 94 % 0.84 C
778 21-11-2015 16:45:00 1.7 C 94 % 0.84 C
779 21-11-2015 16:50:00 1.8 C 94 % 0.94 C
780 21-11-2015 16:55:00 1.8 C 95 % 1.09 C
781 21-11-2015 17:00:00 1.9 C 95 % 1.19 C
782 21-11-2015 17:05:00 1.9 C 95 % 1.19 C
783 21-11-2015 17:10:00 2 C 95 % 1.29 C
784 21-11-2015 17:15:00 2.1 C 95 % 1.38 C
785 21-11-2015 17:20:00 2.1 C 95 % 1.38 C
786 21-11-2015 17:25:00 2.1 C 95 % 1.38 C
787 21-11-2015 17:30:00 2.1 C 95 % 1.38 C
788 21-11-2015 17:35:00 1.9 C 95 % 1.19 C
789 21-11-2015 17:40:00 1.9 C 95 % 1.19 C
790 21-11-2015 17:45:00 1.9 C 95 % 1.19 C
791 21-11-2015 17:50:00 1.9 C 95 % 1.19 C
792 21-11-2015 17:55:00 1.9 C 95 % 1.19 C
793 21-11-2015 18:00:00 2 C 96 % 1.43 C
794 21-11-2015 18:05:00 2.1 C 95 % 1.38 C
795 21-11-2015 18:10:00 2.2 C 96 % 1.63 C
796 21-11-2015 18:15:00 2.2 C 96 % 1.63 C
797 21-11-2015 18:20:00 2.3 C 96 % 1.73 C
798 21-11-2015 18:25:00 2.3 C 96 % 1.73 C
799 21-11-2015 18:30:00 2.4 C 96 % 1.83 C
800 21-11-2015 18:35:00 2.4 C 96 % 1.83 C
Sensor: Nr:Datum:Temp:Feuchte:Taupunkt:
Aussen-T/F 801 21-11-2015 18:40:00 2.4 C 96 % 1.83 C
802 21-11-2015 18:45:00 2.5 C 96 % 1.93 C
803 21-11-2015 18:50:00 2.6 C 96 % 2.03 C
804 21-11-2015 18:55:00 2.6 C 96 % 2.03 C
805 21-11-2015 19:00:00 2.7 C 96 % 2.13 C
806 21-11-2015 19:05:00 2.7 C 96 % 2.13 C
807 21-11-2015 19:10:00 2.7 C 96 % 2.13 C
808 21-11-2015 19:15:00 2.7 C 96 % 2.13 C
809 21-11-2015 19:20:00 2.7 C 96 % 2.13 C
810 21-11-2015 19:25:00 2.6 C 96 % 2.03 C
811 21-11-2015 19:30:00 2.6 C 96 % 2.03 C
812 21-11-2015 19:35:00 2.5 C 96 % 1.93 C
813 21-11-2015 19:40:00 2.4 C 96 % 1.83 C
814 21-11-2015 19:45:00 2.4 C 96 % 1.83 C
815 21-11-2015 19:50:00 2.4 C 96 % 1.83 C
816 21-11-2015 19:55:00 2.4 C 96 % 1.83 C
817 21-11-2015 20:00:00 2.3 C 96 % 1.73 C
818 21-11-2015 20:05:00 2.3 C 96 % 1.73 C
819 21-11-2015 20:10:00 2.1 C 96 % 1.53 C
820 21-11-2015 20:15:00 1.9 C 96 % 1.33 C
821 21-11-2015 20:20:00 1.8 C 95 % 1.09 C
822 21-11-2015 20:25:00 1.6 C 96 % 1.03 C
823 21-11-2015 20:30:00 1.5 C 96 % 0.93 C
824 21-11-2015 20:35:00 1.4 C 95 % 0.69 C
825 21-11-2015 20:40:00 1.3 C 95 % 0.59 C
Sensor: Nr:Datum:Temp:Feuchte:Taupunkt:
Aussen-T/F 826 21-11-2015 20:45:00 1.3 C 96 % 0.73 C
827 21-11-2015 20:50:00 1.2 C 95 % 0.49 C
828 21-11-2015 20:55:00 1.2 C 96 % 0.63 C
829 21-11-2015 21:00:00 1.2 C 96 % 0.63 C
830 21-11-2015 21:05:00 1.2 C 96 % 0.63 C
831 21-11-2015 21:10:00 1.2 C 96 % 0.63 C
832 21-11-2015 21:15:00 1.2 C 96 % 0.63 C
833 21-11-2015 21:20:00 1.3 C 96 % 0.73 C
834 21-11-2015 21:25:00 1.2 C 96 % 0.63 C
835 21-11-2015 21:30:00 1.2 C 96 % 0.63 C
836 21-11-2015 21:35:00 1.1 C 96 % 0.54 C
837 21-11-2015 21:40:00 1 C 96 % 0.44 C
838 21-11-2015 21:45:00 0.9 C 96 % 0.34 C
839 21-11-2015 21:50:00 0.9 C 96 % 0.34 C
840 21-11-2015 21:55:00 0.9 C 96 % 0.34 C
841 21-11-2015 22:00:00 0.8 C 96 % 0.24 C
842 21-11-2015 22:05:00 0.8 C 96 % 0.24 C
843 21-11-2015 22:10:00 0.9 C 96 % 0.34 C
844 21-11-2015 22:15:00 1.1 C 96 % 0.54 C
845 21-11-2015 22:20:00 1.2 C 96 % 0.63 C
846 21-11-2015 22:25:00 1.2 C 96 % 0.63 C
847 21-11-2015 22:30:00 1.3 C 96 % 0.73 C
848 21-11-2015 22:35:00 1.3 C 96 % 0.73 C
849 21-11-2015 22:40:00 1.4 C 96 % 0.83 C
850 21-11-2015 22:45:00 1.4 C 96 % 0.83 C
Sensor: Nr:Datum:Temp:Feuchte:Taupunkt:
Aussen-T/F 851 21-11-2015 22:50:00 1.5 C 97 % 1.08 C
852 21-11-2015 22:55:00 1.6 C 97 % 1.18 C
853 21-11-2015 23:00:00 1.6 C 97 % 1.18 C
854 21-11-2015 23:05:00 1.6 C 97 % 1.18 C
855 21-11-2015 23:10:00 1.7 C 96 % 1.13 C
856 21-11-2015 23:15:00 1.7 C 96 % 1.13 C
857 21-11-2015 23:20:00 1.7 C 96 % 1.13 C
858 21-11-2015 23:25:00 1.7 C 96 % 1.13 C
859 21-11-2015 23:30:00 1.7 C 96 % 1.13 C
860 21-11-2015 23:35:00 1.7 C 96 % 1.13 C
861 21-11-2015 23:40:00 1.7 C 96 % 1.13 C
862 21-11-2015 23:45:00 1.6 C 96 % 1.03 C
863 21-11-2015 23:50:00 1.6 C 96 % 1.03 C
864 21-11-2015 23:55:00 1.6 C 96 % 1.03 C
865 22-11-2015 00:00:00 1.6 C 96 % 1.03 C
866 22-11-2015 00:05:00 1.6 C 96 % 1.03 C
867 22-11-2015 00:10:00 1.5 C 96 % 0.93 C
868 22-11-2015 00:15:00 1.4 C 96 % 0.83 C
869 22-11-2015 00:20:00 1.4 C 96 % 0.83 C
870 22-11-2015 00:25:00 1.3 C 96 % 0.73 C
871 22-11-2015 00:30:00 1.2 C 96 % 0.63 C
872 22-11-2015 00:35:00 1.2 C 96 % 0.63 C
873 22-11-2015 00:40:00 1.1 C 96 % 0.54 C
874 22-11-2015 00:45:00 1.1 C 96 % 0.54 C
875 22-11-2015 00:50:00 1 C 96 % 0.44 C
Sensor: Nr:Datum:Temp:Feuchte:Taupunkt:
Aussen-T/F 876 22-11-2015 00:55:00 1 C 96 % 0.44 C
877 22-11-2015 01:00:00 1 C 96 % 0.44 C
878 22-11-2015 01:05:00 1.1 C 96 % 0.54 C
879 22-11-2015 01:10:00 1.1 C 96 % 0.54 C
880 22-11-2015 01:15:00 1.1 C 96 % 0.54 C
881 22-11-2015 01:20:00 1.3 C 97 % 0.88 C
882 22-11-2015 01:25:00 1.4 C 97 % 0.98 C
883 22-11-2015 01:30:00 1.5 C 97 % 1.08 C
884 22-11-2015 01:35:00 1.6 C 97 % 1.18 C
885 22-11-2015 01:40:00 1.7 C 97 % 1.28 C
886 22-11-2015 01:45:00 1.7 C 97 % 1.28 C
887 22-11-2015 01:50:00 1.8 C 97 % 1.38 C
888 22-11-2015 01:55:00 1.9 C 97 % 1.48 C
889 22-11-2015 02:00:00 1.9 C 97 % 1.48 C
890 22-11-2015 02:05:00 1.9 C 97 % 1.48 C
891 22-11-2015 02:10:00 1.9 C 97 % 1.48 C
892 22-11-2015 02:15:00 1.8 C 97 % 1.38 C
893 22-11-2015 02:20:00 1.8 C 97 % 1.38 C
894 22-11-2015 02:25:00 1.9 C 97 % 1.48 C
895 22-11-2015 02:30:00 1.9 C 97 % 1.48 C
896 22-11-2015 02:35:00 1.9 C 97 % 1.48 C
897 22-11-2015 02:40:00 1.8 C 97 % 1.38 C
898 22-11-2015 02:45:00 1.9 C 97 % 1.48 C
899 22-11-2015 02:50:00 2 C 97 % 1.58 C
900 22-11-2015 02:55:00 2.1 C 97 % 1.67 C
Sensor: Nr:Datum:Temp:Feuchte:Taupunkt:
Aussen-T/F 901 22-11-2015 03:00:00 2.1 C 97 % 1.67 C
902 22-11-2015 03:05:00 2 C 97 % 1.58 C
903 22-11-2015 03:10:00 2 C 97 % 1.58 C
904 22-11-2015 03:15:00 2.2 C 97 % 1.77 C
905 22-11-2015 03:20:00 2.3 C 97 % 1.87 C
906 22-11-2015 03:25:00 2.3 C 97 % 1.87 C
907 22-11-2015 03:30:00 2.3 C 97 % 1.87 C
908 22-11-2015 03:35:00 2.2 C 97 % 1.77 C
909 22-11-2015 03:40:00 2.1 C 97 % 1.67 C
910 22-11-2015 03:45:00 2 C 96 % 1.43 C
911 22-11-2015 03:50:00 1.8 C 96 % 1.23 C
912 22-11-2015 03:55:00 1.7 C 96 % 1.13 C
913 22-11-2015 04:00:00 1.6 C 96 % 1.03 C
914 22-11-2015 04:05:00 1.4 C 96 % 0.83 C
915 22-11-2015 04:10:00 1.4 C 96 % 0.83 C
916 22-11-2015 04:15:00 1.6 C 97 % 1.18 C
917 22-11-2015 04:20:00 1.7 C 97 % 1.28 C
918 22-11-2015 04:25:00 1.8 C 97 % 1.38 C
919 22-11-2015 04:30:00 1.9 C 97 % 1.48 C
920 22-11-2015 04:35:00 1.9 C 97 % 1.48 C
921 22-11-2015 04:40:00 2 C 97 % 1.58 C
922 22-11-2015 04:45:00 2.1 C 97 % 1.67 C
923 22-11-2015 04:50:00 2.2 C 97 % 1.77 C
924 22-11-2015 04:55:00 2.2 C 97 % 1.77 C
925 22-11-2015 05:00:00 2.3 C 97 % 1.87 C
Sensor: Nr:Datum:Temp:Feuchte:Taupunkt:
Aussen-T/F 926 22-11-2015 05:05:00 2.3 C 97 % 1.87 C
927 22-11-2015 05:10:00 2.4 C 97 % 1.97 C
928 22-11-2015 05:15:00 2.4 C 97 % 1.97 C
929 22-11-2015 05:20:00 2.4 C 97 % 1.97 C
930 22-11-2015 05:25:00 2.4 C 97 % 1.97 C
931 22-11-2015 05:30:00 2.5 C 97 % 2.07 C
932 22-11-2015 05:35:00 2.6 C 97 % 2.17 C
933 22-11-2015 05:40:00 2.5 C 96 % 1.93 C
934 22-11-2015 05:45:00 2.5 C 96 % 1.93 C
935 22-11-2015 05:50:00 2.4 C 96 % 1.83 C
936 22-11-2015 05:55:00 2.4 C 96 % 1.83 C
937 22-11-2015 06:00:00 2.5 C 96 % 1.93 C
938 22-11-2015 06:05:00 2.6 C 95 % 1.88 C
939 22-11-2015 06:10:00 2.6 C 95 % 1.88 C
940 22-11-2015 06:15:00 2.7 C 94 % 1.83 C
941 22-11-2015 06:20:00 2.8 C 93 % 1.78 C
942 22-11-2015 06:25:00 2.8 C 93 % 1.78 C
943 22-11-2015 06:30:00 2.8 C 93 % 1.78 C
944 22-11-2015 06:35:00 2.8 C 93 % 1.78 C
945 22-11-2015 06:40:00 2.8 C 92 % 1.63 C
946 22-11-2015 06:45:00 2.8 C 92 % 1.63 C
947 22-11-2015 06:50:00 2.8 C 92 % 1.63 C
948 22-11-2015 06:55:00 2.8 C 92 % 1.63 C
949 22-11-2015 07:00:00 2.8 C 92 % 1.63 C
950 22-11-2015 07:05:00 2.8 C 91 % 1.48 C
Sensor: Nr:Datum:Temp:Feuchte:Taupunkt:
Aussen-T/F 951 22-11-2015 07:10:00 2.8 C 91 % 1.48 C
952 22-11-2015 07:15:00 2.8 C 92 % 1.63 C
953 22-11-2015 07:20:00 2.8 C 91 % 1.48 C
954 22-11-2015 07:25:00 2.7 C 92 % 1.53 C
955 22-11-2015 07:30:00 2.7 C 92 % 1.53 C
956 22-11-2015 07:35:00 2.7 C 92 % 1.53 C
957 22-11-2015 07:40:00 2.7 C 92 % 1.53 C
958 22-11-2015 07:45:00 2.7 C 92 % 1.53 C
959 22-11-2015 07:50:00 2.8 C 92 % 1.63 C
960 22-11-2015 07:55:00 2.8 C 92 % 1.63 C
961 22-11-2015 08:00:00 2.8 C 91 % 1.48 C
962 22-11-2015 08:05:00 2.8 C 91 % 1.48 C
963 22-11-2015 08:10:00 2.8 C 91 % 1.48 C
964 22-11-2015 08:15:00 2.8 C 91 % 1.48 C
965 22-11-2015 08:20:00 2.8 C 91 % 1.48 C
966 22-11-2015 08:25:00 2.8 C 91 % 1.48 C
967 22-11-2015 08:30:00 2.8 C 92 % 1.63 C
968 22-11-2015 08:35:00 2.8 C 91 % 1.48 C
969 22-11-2015 08:40:00 2.9 C 92 % 1.73 C
970 22-11-2015 08:45:00 2.9 C 92 % 1.73 C
971 22-11-2015 08:50:00 2.9 C 92 % 1.73 C
972 22-11-2015 08:55:00 2.9 C 92 % 1.73 C
973 22-11-2015 09:00:00 2.9 C 92 % 1.73 C
974 22-11-2015 09:05:00 3 C 93 % 1.98 C
975 22-11-2015 09:10:00 3.1 C 93 % 2.08 C
Sensor: Nr:Datum:Temp:Feuchte:Taupunkt:
Aussen-T/F 976 22-11-2015 09:15:00 3 C 92 % 1.83 C
977 22-11-2015 09:20:00 3 C 92 % 1.83 C
978 22-11-2015 09:25:00 3.1 C 92 % 1.93 C
979 22-11-2015 09:30:00 3.1 C 92 % 1.93 C
980 22-11-2015 09:35:00 3.1 C 92 % 1.93 C
981 22-11-2015 09:40:00 3.1 C 93 % 2.08 C
982 22-11-2015 09:45:00 3.2 C 93 % 2.18 C
983 22-11-2015 09:50:00 3.2 C 92 % 2.03 C
984 22-11-2015 09:55:00 3.2 C 92 % 2.03 C
985 22-11-2015 10:00:00 3.3 C 93 % 2.28 C
986 22-11-2015 10:05:00 3.3 C 93 % 2.28 C
987 22-11-2015 10:10:00 3.4 C 93 % 2.38 C
988 22-11-2015 10:15:00 3.4 C 93 % 2.38 C
989 22-11-2015 10:20:00 3.5 C 93 % 2.48 C
990 22-11-2015 10:25:00 3.6 C 93 % 2.58 C
991 22-11-2015 10:30:00 3.6 C 93 % 2.58 C
992 22-11-2015 10:35:00 3.6 C 92 % 2.42 C
993 22-11-2015 10:40:00 3.7 C 92 % 2.52 C
994 22-11-2015 10:45:00 3.8 C 92 % 2.62 C
995 22-11-2015 10:50:00 3.9 C 92 % 2.72 C
996 22-11-2015 10:55:00 3.9 C 90 % 2.41 C
997 22-11-2015 11:00:00 3.8 C 90 % 2.31 C
998 22-11-2015 11:05:00 3.7 C 91 % 2.37 C
999 22-11-2015 11:10:00 3.7 C 91 % 2.37 C
1000 22-11-2015 11:15:00 3.7 C 91 % 2.37 C
Sensor: Nr:Datum:Temp:Feuchte:Taupunkt:
Aussen-T/F 1001 22-11-2015 11:20:00 3.7 C 91 % 2.37 C
1002 22-11-2015 11:25:00 3.7 C 91 % 2.37 C
1003 22-11-2015 11:30:00 3.7 C 92 % 2.52 C
1004 22-11-2015 11:35:00 3.7 C 91 % 2.37 C
1005 22-11-2015 11:40:00 3.7 C 92 % 2.52 C
1006 22-11-2015 11:45:00 3.8 C 92 % 2.62 C
1007 22-11-2015 11:50:00 3.8 C 92 % 2.62 C
1008 22-11-2015 11:55:00 3.9 C 92 % 2.72 C
1009 22-11-2015 12:00:00 4 C 93 % 2.97 C
1010 22-11-2015 12:05:00 4.1 C 92 % 2.92 C
1011 22-11-2015 12:10:00 4.2 C 92 % 3.02 C
1012 22-11-2015 12:15:00 4.3 C 92 % 3.12 C
1013 22-11-2015 12:20:00 4.4 C 92 % 3.22 C
1014 22-11-2015 12:25:00 4.5 C 91 % 3.16 C
1015 22-11-2015 12:30:00 4.6 C 91 % 3.26 C
1016 22-11-2015 12:35:00 4.7 C 90 % 3.2 C
1017 22-11-2015 12:40:00 4.8 C 88 % 2.99 C
1018 22-11-2015 12:45:00 5 C 87 % 3.02 C
1019 22-11-2015 12:50:00 5 C 86 % 2.86 C
1020 22-11-2015 12:55:00 4.9 C 85 % 2.6 C
1021 22-11-2015 13:00:00 4.9 C 86 % 2.76 C
1022 22-11-2015 13:05:00 4.8 C 87 % 2.82 C
1023 22-11-2015 13:10:00 4.8 C 86 % 2.66 C
1024 22-11-2015 13:15:00 4.8 C 85 % 2.5 C
1025 22-11-2015 13:20:00 4.8 C 85 % 2.5 C
Sensor: Nr:Datum:Temp:Feuchte:Taupunkt:
Aussen-T/F 1026 22-11-2015 13:25:00 4.8 C 84 % 2.33 C
1027 22-11-2015 13:30:00 4.9 C 84 % 2.43 C
1028 22-11-2015 13:35:00 4.9 C 84 % 2.43 C
1029 22-11-2015 13:40:00 4.9 C 85 % 2.6 C
1030 22-11-2015 13:45:00 4.9 C 84 % 2.43 C
1031 22-11-2015 13:50:00 5 C 84 % 2.53 C
1032 22-11-2015 13:55:00 5 C 82 % 2.19 C
1033 22-11-2015 14:00:00 5.1 C 82 % 2.29 C
1034 22-11-2015 14:05:00 5.1 C 80 % 1.94 C
1035 22-11-2015 14:10:00 5.1 C 79 % 1.77 C
1036 22-11-2015 14:15:00 5.2 C 78 % 1.69 C
1037 22-11-2015 14:20:00 5.3 C 78 % 1.78 C
1038 22-11-2015 14:25:00 5.4 C 78 % 1.88 C
1039 22-11-2015 14:30:00 5.6 C 77 % 1.89 C
1040 22-11-2015 14:35:00 5.7 C 77 % 1.99 C
1041 22-11-2015 14:40:00 5.8 C 76 % 1.91 C
1042 22-11-2015 14:45:00 5.7 C 75 % 1.62 C
1043 22-11-2015 14:50:00 5.7 C 76 % 1.81 C
1044 22-11-2015 14:55:00 5.7 C 76 % 1.81 C
1045 22-11-2015 15:00:00 5.6 C 75 % 1.53 C
1046 22-11-2015 15:05:00 5.5 C 75 % 1.43 C
1047 22-11-2015 15:10:00 5.5 C 76 % 1.62 C
1048 22-11-2015 15:15:00 5.5 C 76 % 1.62 C
1049 22-11-2015 15:20:00 5.4 C 77 % 1.7 C
1050 22-11-2015 15:25:00 5.4 C 75 % 1.33 C
Sensor: Nr:Datum:Temp:Feuchte:Taupunkt:
Aussen-T/F 1051 22-11-2015 15:30:00 5.3 C 76 % 1.42 C
1052 22-11-2015 15:35:00 5.3 C 77 % 1.6 C
1053 22-11-2015 15:40:00 5.2 C 77 % 1.51 C
1054 22-11-2015 15:45:00 5.2 C 76 % 1.32 C
1055 22-11-2015 15:50:00 5.1 C 76 % 1.23 C
1056 22-11-2015 15:55:00 5.2 C 76 % 1.32 C
1057 22-11-2015 16:00:00 5.1 C 77 % 1.41 C
1058 22-11-2015 16:05:00 5 C 77 % 1.31 C
1059 22-11-2015 16:10:00 4.8 C 77 % 1.12 C
1060 22-11-2015 16:15:00 4.8 C 77 % 1.12 C
1061 22-11-2015 16:20:00 4.7 C 78 % 1.2 C
1062 22-11-2015 16:25:00 4.7 C 77 % 1.02 C
1063 22-11-2015 16:30:00 4.6 C 78 % 1.1 C
1064 22-11-2015 16:35:00 4.6 C 77 % 0.92 C
1065 22-11-2015 16:40:00 4.5 C 78 % 1.01 C
1066 22-11-2015 16:45:00 4.4 C 79 % 1.09 C
1067 22-11-2015 16:50:00 4.3 C 79 % 0.99 C
1068 22-11-2015 16:55:00 4.2 C 80 % 1.07 C
1069 22-11-2015 17:00:00 4.1 C 80 % 0.97 C
1070 22-11-2015 17:05:00 4.1 C 80 % 0.97 C
1071 22-11-2015 17:10:00 4.2 C 80 % 1.07 C
1072 22-11-2015 17:15:00 4.2 C 79 % 0.89 C
1073 22-11-2015 17:20:00 4.3 C 79 % 0.99 C
1074 22-11-2015 17:25:00 4.5 C 78 % 1.01 C
1075 22-11-2015 17:30:00 4.1 C 81 % 1.14 C
Sensor: Nr:Datum:Temp:Feuchte:Taupunkt:
Aussen-T/F 1076 22-11-2015 17:35:00 3.4 C 83 % 0.79 C
1077 22-11-2015 17:40:00 2.9 C 86 % 0.8 C
1078 22-11-2015 17:45:00 2.6 C 88 % 0.82 C
1079 22-11-2015 17:50:00 2.3 C 90 % 0.83 C
1080 22-11-2015 17:55:00 2.1 C 91 % 0.79 C
1081 22-11-2015 18:00:00 1.9 C 92 % 0.74 C
1082 22-11-2015 18:05:00 1.8 C 92 % 0.64 C
1083 22-11-2015 18:10:00 1.8 C 93 % 0.79 C
1084 22-11-2015 18:15:00 1.8 C 93 % 0.79 C
1085 22-11-2015 18:20:00 1.8 C 94 % 0.94 C
1086 22-11-2015 18:25:00 1.7 C 93 % 0.69 C
1087 22-11-2015 18:30:00 1.6 C 93 % 0.59 C
1088 22-11-2015 18:35:00 1.4 C 93 % 0.4 C
1089 22-11-2015 18:40:00 1.3 C 94 % 0.44 C
1090 22-11-2015 18:45:00 1.3 C 94 % 0.44 C
1091 22-11-2015 18:50:00 1.3 C 94 % 0.44 C
1092 22-11-2015 18:55:00 1.3 C 94 % 0.44 C
1093 22-11-2015 19:00:00 1.3 C 94 % 0.44 C
1094 22-11-2015 19:05:00 1.4 C 94 % 0.54 C
1095 22-11-2015 19:10:00 1.4 C 95 % 0.69 C
1096 22-11-2015 19:15:00 1.4 C 95 % 0.69 C
1097 22-11-2015 19:20:00 1.5 C 95 % 0.79 C
1098 22-11-2015 19:25:00 1.5 C 95 % 0.79 C
1099 22-11-2015 19:30:00 1.6 C 95 % 0.89 C
1100 22-11-2015 19:35:00 1.6 C 95 % 0.89 C
Sensor: Nr:Datum:Temp:Feuchte:Taupunkt:
Aussen-T/F 1101 22-11-2015 19:40:00 1.6 C 95 % 0.89 C
1102 22-11-2015 19:45:00 1.6 C 95 % 0.89 C
1103 22-11-2015 19:50:00 1.6 C 95 % 0.89 C
1104 22-11-2015 19:55:00 1.6 C 95 % 0.89 C
1105 22-11-2015 20:00:00 1.6 C 95 % 0.89 C
1106 22-11-2015 20:05:00 1.6 C 95 % 0.89 C
1107 22-11-2015 20:10:00 1.7 C 95 % 0.99 C
1108 22-11-2015 20:15:00 1.7 C 95 % 0.99 C
1109 22-11-2015 20:20:00 1.7 C 95 % 0.99 C
1110 22-11-2015 20:25:00 1.7 C 95 % 0.99 C
1111 22-11-2015 20:30:00 1.7 C 95 % 0.99 C
1112 22-11-2015 20:35:00 1.7 C 95 % 0.99 C
1113 22-11-2015 20:40:00 1.6 C 95 % 0.89 C
1114 22-11-2015 20:45:00 1.5 C 95 % 0.79 C
1115 22-11-2015 20:50:00 1.4 C 95 % 0.69 C
1116 22-11-2015 20:55:00 1.4 C 95 % 0.69 C
1117 22-11-2015 21:00:00 1.5 C 96 % 0.93 C
1118 22-11-2015 21:05:00 1.6 C 96 % 1.03 C
1119 22-11-2015 21:10:00 1.6 C 96 % 1.03 C
1120 22-11-2015 21:15:00 1.6 C 96 % 1.03 C
1121 22-11-2015 21:20:00 1.6 C 96 % 1.03 C
1122 22-11-2015 21:25:00 1.7 C 96 % 1.13 C
1123 22-11-2015 21:30:00 1.7 C 96 % 1.13 C
1124 22-11-2015 21:35:00 1.7 C 96 % 1.13 C
1125 22-11-2015 21:40:00 1.7 C 96 % 1.13 C
Sensor: Nr:Datum:Temp:Feuchte:Taupunkt:
Aussen-T/F 1126 22-11-2015 21:45:00 1.8 C 96 % 1.23 C
1127 22-11-2015 21:50:00 1.8 C 96 % 1.23 C
1128 22-11-2015 21:55:00 1.8 C 96 % 1.23 C
1129 22-11-2015 22:00:00 1.8 C 96 % 1.23 C
1130 22-11-2015 22:05:00 1.9 C 96 % 1.33 C
1131 22-11-2015 22:10:00 1.9 C 96 % 1.33 C
1132 22-11-2015 22:15:00 1.9 C 96 % 1.33 C
1133 22-11-2015 22:20:00 1.9 C 96 % 1.33 C
1134 22-11-2015 22:25:00 2 C 96 % 1.43 C
1135 22-11-2015 22:30:00 2 C 96 % 1.43 C
1136 22-11-2015 22:35:00 2 C 96 % 1.43 C
1137 22-11-2015 22:40:00 2.1 C 96 % 1.53 C
1138 22-11-2015 22:45:00 2.1 C 95 % 1.38 C
1139 22-11-2015 22:50:00 2.2 C 95 % 1.48 C
1140 22-11-2015 22:55:00 2.2 C 95 % 1.48 C
1141 22-11-2015 23:00:00 2.2 C 95 % 1.48 C
1142 22-11-2015 23:05:00 2.2 C 95 % 1.48 C
1143 22-11-2015 23:10:00 2.1 C 94 % 1.24 C
1144 22-11-2015 23:15:00 2.1 C 94 % 1.24 C
1145 22-11-2015 23:20:00 2.1 C 93 % 1.09 C
1146 22-11-2015 23:25:00 2 C 93 % 0.99 C
1147 22-11-2015 23:30:00 1.9 C 93 % 0.89 C
1148 22-11-2015 23:35:00 1.9 C 93 % 0.89 C
1149 22-11-2015 23:40:00 1.8 C 93 % 0.79 C
1150 22-11-2015 23:45:00 1.8 C 93 % 0.79 C
Sensor: Nr:Datum:Temp:Feuchte:Taupunkt:
Aussen-T/F 1151 22-11-2015 23:50:00 1.7 C 93 % 0.69 C
1152 22-11-2015 23:55:00 1.7 C 93 % 0.69 C
1153 23-11-2015 00:00:00 1.7 C 93 % 0.69 C
1154 23-11-2015 00:05:00 1.7 C 93 % 0.69 C
1155 23-11-2015 00:10:00 1.7 C 93 % 0.69 C
1156 23-11-2015 00:15:00 1.7 C 93 % 0.69 C
1157 23-11-2015 00:20:00 1.6 C 93 % 0.59 C
1158 23-11-2015 00:25:00 1.6 C 93 % 0.59 C
1159 23-11-2015 00:30:00 1.7 C 93 % 0.69 C
1160 23-11-2015 00:35:00 1.7 C 93 % 0.69 C
1161 23-11-2015 00:40:00 1.7 C 93 % 0.69 C
1162 23-11-2015 00:45:00 1.7 C 93 % 0.69 C
1163 23-11-2015 00:50:00 1.7 C 93 % 0.69 C
1164 23-11-2015 00:55:00 1.7 C 93 % 0.69 C
1165 23-11-2015 01:00:00 1.8 C 93 % 0.79 C
1166 23-11-2015 01:05:00 1.8 C 93 % 0.79 C
1167 23-11-2015 01:10:00 1.8 C 93 % 0.79 C
1168 23-11-2015 01:15:00 1.8 C 93 % 0.79 C
1169 23-11-2015 01:20:00 1.8 C 93 % 0.79 C
1170 23-11-2015 01:25:00 1.8 C 93 % 0.79 C
1171 23-11-2015 01:30:00 1.8 C 93 % 0.79 C
1172 23-11-2015 01:35:00 1.9 C 93 % 0.89 C
1173 23-11-2015 01:40:00 1.9 C 92 % 0.74 C
1174 23-11-2015 01:45:00 1.9 C 92 % 0.74 C
1175 23-11-2015 01:50:00 1.9 C 92 % 0.74 C
Sensor: Nr:Datum:Temp:Feuchte:Taupunkt:
Aussen-T/F 1176 23-11-2015 01:55:00 1.9 C 92 % 0.74 C
1177 23-11-2015 02:00:00 1.9 C 93 % 0.89 C
1178 23-11-2015 02:05:00 2 C 92 % 0.84 C
1179 23-11-2015 02:10:00 2 C 92 % 0.84 C
1180 23-11-2015 02:15:00 2.1 C 92 % 0.94 C
1181 23-11-2015 02:20:00 2.2 C 92 % 1.04 C
1182 23-11-2015 02:25:00 2.3 C 92 % 1.14 C
1183 23-11-2015 02:30:00 2.3 C 92 % 1.14 C
1184 23-11-2015 02:35:00 2.3 C 92 % 1.14 C
1185 23-11-2015 02:40:00 2.3 C 92 % 1.14 C
1186 23-11-2015 02:45:00 2.4 C 92 % 1.24 C
1187 23-11-2015 02:50:00 2.5 C 92 % 1.34 C
1188 23-11-2015 02:55:00 2.6 C 91 % 1.28 C
1189 23-11-2015 03:00:00 2.6 C 91 % 1.28 C
1190 23-11-2015 03:05:00 2.6 C 91 % 1.28 C
1191 23-11-2015 03:10:00 2.7 C 91 % 1.38 C
1192 23-11-2015 03:15:00 2.7 C 91 % 1.38 C
1193 23-11-2015 03:20:00 2.7 C 91 % 1.38 C
1194 23-11-2015 03:25:00 2.7 C 91 % 1.38 C
1195 23-11-2015 03:30:00 2.7 C 91 % 1.38 C
1196 23-11-2015 03:35:00 2.7 C 91 % 1.38 C
1197 23-11-2015 03:40:00 2.7 C 91 % 1.38 C
1198 23-11-2015 03:45:00 2.7 C 91 % 1.38 C
1199 23-11-2015 03:50:00 2.7 C 91 % 1.38 C
1200 23-11-2015 03:55:00 2.7 C 92 % 1.53 C
Sensor: Nr:Datum:Temp:Feuchte:Taupunkt:
Aussen-T/F 1201 23-11-2015 04:00:00 2.7 C 91 % 1.38 C
1202 23-11-2015 04:05:00 2.7 C 92 % 1.53 C
1203 23-11-2015 04:10:00 2.7 C 92 % 1.53 C
1204 23-11-2015 04:15:00 2.8 C 92 % 1.63 C
1205 23-11-2015 04:20:00 2.7 C 92 % 1.53 C
1206 23-11-2015 04:25:00 2.7 C 92 % 1.53 C
1207 23-11-2015 04:30:00 2.7 C 92 % 1.53 C
1208 23-11-2015 04:35:00 2.7 C 92 % 1.53 C
1209 23-11-2015 04:40:00 2.7 C 92 % 1.53 C
1210 23-11-2015 04:45:00 2.7 C 92 % 1.53 C
1211 23-11-2015 04:50:00 2.7 C 92 % 1.53 C
1212 23-11-2015 04:55:00 2.7 C 92 % 1.53 C
1213 23-11-2015 05:00:00 2.7 C 92 % 1.53 C
1214 23-11-2015 05:05:00 2.7 C 92 % 1.53 C
1215 23-11-2015 05:10:00 2.7 C 92 % 1.53 C
1216 23-11-2015 05:15:00 2.7 C 92 % 1.53 C
1217 23-11-2015 05:20:00 2.7 C 92 % 1.53 C
1218 23-11-2015 05:25:00 2.7 C 92 % 1.53 C
1219 23-11-2015 05:30:00 2.7 C 92 % 1.53 C
1220 23-11-2015 05:35:00 2.7 C 92 % 1.53 C
1221 23-11-2015 05:40:00 2.7 C 92 % 1.53 C
1222 23-11-2015 05:45:00 2.7 C 92 % 1.53 C
1223 23-11-2015 05:50:00 2.7 C 92 % 1.53 C
1224 23-11-2015 05:55:00 2.7 C 92 % 1.53 C
1225 23-11-2015 06:00:00 2.7 C 92 % 1.53 C
Sensor: Nr:Datum:Temp:Feuchte:Taupunkt:
Aussen-T/F 1226 23-11-2015 06:05:00 2.7 C 92 % 1.53 C
1227 23-11-2015 06:10:00 2.8 C 92 % 1.63 C
1228 23-11-2015 06:15:00 2.8 C 92 % 1.63 C
1229 23-11-2015 06:20:00 2.8 C 92 % 1.63 C
1230 23-11-2015 06:25:00 2.8 C 92 % 1.63 C
1231 23-11-2015 06:30:00 2.8 C 92 % 1.63 C
1232 23-11-2015 06:35:00 2.8 C 92 % 1.63 C
1233 23-11-2015 06:40:00 2.8 C 92 % 1.63 C
1234 23-11-2015 06:45:00 2.8 C 92 % 1.63 C
1235 23-11-2015 06:50:00 2.8 C 92 % 1.63 C
1236 23-11-2015 06:55:00 2.8 C 92 % 1.63 C
1237 23-11-2015 07:00:00 2.8 C 92 % 1.63 C
1238 23-11-2015 07:05:00 2.8 C 92 % 1.63 C
1239 23-11-2015 07:10:00 2.8 C 92 % 1.63 C
1240 23-11-2015 07:15:00 2.8 C 92 % 1.63 C
1241 23-11-2015 07:20:00 2.8 C 92 % 1.63 C
1242 23-11-2015 07:25:00 2.8 C 92 % 1.63 C
1243 23-11-2015 07:30:00 2.8 C 92 % 1.63 C
1244 23-11-2015 07:35:00 2.8 C 92 % 1.63 C
1245 23-11-2015 07:40:00 2.8 C 92 % 1.63 C
1246 23-11-2015 07:45:00 2.8 C 92 % 1.63 C
1247 23-11-2015 07:50:00 2.8 C 92 % 1.63 C
1248 23-11-2015 07:55:00 2.8 C 92 % 1.63 C
1249 23-11-2015 08:00:00 2.9 C 92 % 1.73 C
1250 23-11-2015 08:05:00 2.9 C 92 % 1.73 C
Sensor: Nr:Datum:Temp:Feuchte:Taupunkt:
Aussen-T/F 1251 23-11-2015 08:10:00 2.9 C 92 % 1.73 C
1252 23-11-2015 08:15:00 2.9 C 92 % 1.73 C
1253 23-11-2015 08:20:00 2.9 C 92 % 1.73 C
1254 23-11-2015 08:25:00 2.9 C 92 % 1.73 C
1255 23-11-2015 08:30:00 2.9 C 92 % 1.73 C
1256 23-11-2015 08:35:00 2.9 C 92 % 1.73 C
1257 23-11-2015 08:40:00 2.9 C 92 % 1.73 C
1258 23-11-2015 08:45:00 2.9 C 92 % 1.73 C
1259 23-11-2015 08:50:00 2.9 C 92 % 1.73 C
1260 23-11-2015 08:55:00 2.9 C 92 % 1.73 C
1261 23-11-2015 09:00:00 2.9 C 92 % 1.73 C
1262 23-11-2015 09:05:00 3 C 92 % 1.83 C
1263 23-11-2015 09:10:00 3 C 92 % 1.83 C
1264 23-11-2015 09:15:00 3 C 92 % 1.83 C
1265 23-11-2015 09:20:00 3.1 C 92 % 1.93 C
1266 23-11-2015 09:25:00 3.1 C 92 % 1.93 C
1267 23-11-2015 09:30:00 3.1 C 92 % 1.93 C
1268 23-11-2015 09:35:00 3.1 C 92 % 1.93 C
1269 23-11-2015 09:40:00 3.1 C 92 % 1.93 C
1270 23-11-2015 09:45:00 3.1 C 92 % 1.93 C
1271 23-11-2015 09:50:00 3.1 C 91 % 1.78 C
1272 23-11-2015 09:55:00 3.1 C 91 % 1.78 C
1273 23-11-2015 10:00:00 3.2 C 91 % 1.88 C
1274 23-11-2015 10:05:00 3.2 C 92 % 2.03 C
1275 23-11-2015 10:10:00 3.3 C 92 % 2.13 C
Sensor: Nr:Datum:Temp:Feuchte:Taupunkt:
Aussen-T/F 1276 23-11-2015 10:15:00 3.3 C 91 % 1.98 C
1277 23-11-2015 10:20:00 3.3 C 90 % 1.82 C
1278 23-11-2015 10:25:00 3.4 C 91 % 2.07 C
1279 23-11-2015 10:30:00 3.4 C 90 % 1.92 C
1280 23-11-2015 10:35:00 3.4 C 90 % 1.92 C
1281 23-11-2015 10:40:00 3.4 C 90 % 1.92 C
1282 23-11-2015 10:45:00 3.5 C 90 % 2.02 C
1283 23-11-2015 10:50:00 3.6 C 90 % 2.12 C
1284 23-11-2015 10:55:00 3.6 C 90 % 2.12 C
1285 23-11-2015 11:00:00 3.6 C 89 % 1.96 C
1286 23-11-2015 11:05:00 3.7 C 89 % 2.06 C
1287 23-11-2015 11:10:00 3.7 C 89 % 2.06 C
1288 23-11-2015 11:15:00 3.7 C 89 % 2.06 C
1289 23-11-2015 11:20:00 3.7 C 88 % 1.9 C
1290 23-11-2015 11:25:00 3.8 C 89 % 2.16 C
1291 23-11-2015 11:30:00 3.8 C 88 % 2 C
1292 23-11-2015 11:35:00 3.8 C 89 % 2.16 C
1293 23-11-2015 11:40:00 3.9 C 89 % 2.26 C
1294 23-11-2015 11:45:00 3.9 C 89 % 2.26 C
1295 23-11-2015 11:50:00 4.1 C 89 % 2.45 C
1296 23-11-2015 11:55:00 4.2 C 89 % 2.55 C
1297 23-11-2015 12:00:00 4.2 C 88 % 2.39 C
1298 23-11-2015 12:05:00 4.3 C 89 % 2.65 C
1299 23-11-2015 12:10:00 4.3 C 89 % 2.65 C
1300 23-11-2015 12:15:00 4.4 C 88 % 2.59 C
Sensor: Nr:Datum:Temp:Feuchte:Taupunkt:
Aussen-T/F 1301 23-11-2015 12:20:00 4.4 C 88 % 2.59 C
1302 23-11-2015 12:25:00 4.5 C 87 % 2.53 C
1303 23-11-2015 12:30:00 4.6 C 87 % 2.63 C
1304 23-11-2015 12:35:00 4.6 C 87 % 2.63 C
1305 23-11-2015 12:40:00 4.6 C 87 % 2.63 C
1306 23-11-2015 12:45:00 4.7 C 86 % 2.56 C
1307 23-11-2015 12:50:00 4.7 C 86 % 2.56 C
1308 23-11-2015 12:55:00 4.8 C 87 % 2.82 C
1309 23-11-2015 13:00:00 4.8 C 85 % 2.5 C
1310 23-11-2015 13:05:00 4.8 C 85 % 2.5 C
1311 23-11-2015 13:10:00 4.8 C 85 % 2.5 C
1312 23-11-2015 13:15:00 4.8 C 85 % 2.5 C
1313 23-11-2015 13:20:00 4.9 C 85 % 2.6 C
1314 23-11-2015 13:25:00 4.9 C 85 % 2.6 C
1315 23-11-2015 13:30:00 4.9 C 85 % 2.6 C
1316 23-11-2015 13:35:00 4.9 C 84 % 2.43 C
1317 23-11-2015 13:40:00 4.9 C 84 % 2.43 C
1318 23-11-2015 13:45:00 4.8 C 84 % 2.33 C
1319 23-11-2015 13:50:00 4.8 C 84 % 2.33 C
1320 23-11-2015 13:55:00 4.7 C 85 % 2.4 C
1321 23-11-2015 14:00:00 4.6 C 86 % 2.47 C
1322 23-11-2015 14:05:00 4.6 C 86 % 2.47 C
1323 23-11-2015 14:10:00 4.4 C 86 % 2.27 C
1324 23-11-2015 14:15:00 4.3 C 86 % 2.17 C
1325 23-11-2015 14:20:00 4.2 C 86 % 2.07 C
Sensor: Nr:Datum:Temp:Feuchte:Taupunkt:
Aussen-T/F 1326 23-11-2015 14:25:00 4.2 C 87 % 2.23 C
1327 23-11-2015 14:30:00 4.1 C 87 % 2.14 C
1328 23-11-2015 14:35:00 4 C 87 % 2.04 C
1329 23-11-2015 14:40:00 3.9 C 88 % 2.1 C
1330 23-11-2015 14:45:00 3.9 C 88 % 2.1 C
1331 23-11-2015 14:50:00 3.8 C 88 % 2 C
1332 23-11-2015 14:55:00 3.8 C 89 % 2.16 C
1333 23-11-2015 15:00:00 3.8 C 89 % 2.16 C
1334 23-11-2015 15:05:00 3.7 C 89 % 2.06 C
1335 23-11-2015 15:10:00 3.6 C 89 % 1.96 C
1336 23-11-2015 15:15:00 3.6 C 89 % 1.96 C
1337 23-11-2015 15:20:00 3.5 C 89 % 1.86 C
1338 23-11-2015 15:25:00 3.4 C 89 % 1.76 C
1339 23-11-2015 15:30:00 3.4 C 90 % 1.92 C
1340 23-11-2015 15:35:00 3.3 C 89 % 1.67 C
1341 23-11-2015 15:40:00 3.3 C 90 % 1.82 C
1342 23-11-2015 15:45:00 3.3 C 90 % 1.82 C
1343 23-11-2015 15:50:00 3.3 C 90 % 1.82 C
1344 23-11-2015 15:55:00 3.3 C 91 % 1.98 C
1345 23-11-2015 16:00:00 3.3 C 91 % 1.98 C
1346 23-11-2015 16:05:00 3.2 C 91 % 1.88 C
1347 23-11-2015 16:10:00 3.1 C 91 % 1.78 C
1348 23-11-2015 16:15:00 2.9 C 90 % 1.43 C
1349 23-11-2015 16:20:00 2.8 C 91 % 1.48 C
1350 23-11-2015 16:25:00 2.8 C 91 % 1.48 C
Sensor: Nr:Datum:Temp:Feuchte:Taupunkt:
Aussen-T/F 1351 23-11-2015 16:30:00 2.6 C 91 % 1.28 C
1352 23-11-2015 16:35:00 2.5 C 91 % 1.18 C
1353 23-11-2015 16:40:00 2.4 C 91 % 1.08 C
1354 23-11-2015 16:45:00 2.3 C 91 % 0.99 C
1355 23-11-2015 16:50:00 2.2 C 92 % 1.04 C
1356 23-11-2015 16:55:00 2.1 C 92 % 0.94 C
1357 23-11-2015 17:00:00 2 C 92 % 0.84 C
1358 23-11-2015 17:05:00 1.9 C 93 % 0.89 C
1359 23-11-2015 17:10:00 1.9 C 93 % 0.89 C
1360 23-11-2015 17:15:00 1.8 C 93 % 0.79 C
1361 23-11-2015 17:20:00 1.8 C 93 % 0.79 C
1362 23-11-2015 17:25:00 1.7 C 93 % 0.69 C
1363 23-11-2015 17:30:00 1.7 C 93 % 0.69 C
1364 23-11-2015 17:35:00 1.6 C 93 % 0.59 C
1365 23-11-2015 17:40:00 1.6 C 93 % 0.59 C
1366 23-11-2015 17:45:00 1.6 C 94 % 0.74 C
1367 23-11-2015 17:50:00 1.5 C 94 % 0.64 C
1368 23-11-2015 17:55:00 1.4 C 94 % 0.54 C
1369 23-11-2015 18:00:00 1.4 C 94 % 0.54 C
1370 23-11-2015 18:05:00 1.4 C 94 % 0.54 C
1371 23-11-2015 18:10:00 1.3 C 94 % 0.44 C
1372 23-11-2015 18:15:00 1.3 C 94 % 0.44 C
1373 23-11-2015 18:20:00 1.3 C 94 % 0.44 C
1374 23-11-2015 18:25:00 1.3 C 94 % 0.44 C
1375 23-11-2015 18:30:00 1.3 C 94 % 0.44 C
Sensor: Nr:Datum:Temp:Feuchte:Taupunkt:
Aussen-T/F 1376 23-11-2015 18:35:00 1.3 C 94 % 0.44 C
1377 23-11-2015 18:40:00 1.3 C 94 % 0.44 C
1378 23-11-2015 18:45:00 1.3 C 95 % 0.59 C
1379 23-11-2015 18:50:00 1.2 C 95 % 0.49 C
1380 23-11-2015 18:55:00 1.2 C 95 % 0.49 C
1381 23-11-2015 19:00:00 1.2 C 95 % 0.49 C
1382 23-11-2015 19:05:00 1.2 C 95 % 0.49 C
1383 23-11-2015 19:10:00 1.2 C 95 % 0.49 C
1384 23-11-2015 19:15:00 1.2 C 95 % 0.49 C
1385 23-11-2015 19:20:00 1.1 C 95 % 0.39 C
1386 23-11-2015 19:25:00 1.1 C 95 % 0.39 C
1387 23-11-2015 19:30:00 1.1 C 95 % 0.39 C
1388 23-11-2015 19:35:00 1.1 C 95 % 0.39 C
1389 23-11-2015 19:40:00 1.1 C 95 % 0.39 C
1390 23-11-2015 19:45:00 1 C 95 % 0.29 C
1391 23-11-2015 19:50:00 0.9 C 95 % 0.19 C
1392 23-11-2015 19:55:00 0.9 C 95 % 0.19 C
1393 23-11-2015 20:00:00 0.9 C 95 % 0.19 C
1394 23-11-2015 20:05:00 0.9 C 95 % 0.19 C
1395 23-11-2015 20:10:00 0.9 C 95 % 0.19 C
1396 23-11-2015 20:15:00 0.9 C 95 % 0.19 C
1397 23-11-2015 20:20:00 0.9 C 95 % 0.19 C
1398 23-11-2015 20:25:00 0.9 C 95 % 0.19 C
1399 23-11-2015 20:30:00 0.8 C 95 % 0.09 C
1400 23-11-2015 20:35:00 0.8 C 95 % 0.09 C
Sensor: Nr:Datum:Temp:Feuchte:Taupunkt:
Aussen-T/F 1401 23-11-2015 20:40:00 0.8 C 95 % 0.09 C
1402 23-11-2015 20:45:00 0.8 C 95 % 0.09 C
1403 23-11-2015 20:50:00 0.8 C 95 % 0.09 C
1404 23-11-2015 20:55:00 0.8 C 95 % 0.09 C
1405 23-11-2015 21:00:00 0.9 C 95 % 0.19 C
1406 23-11-2015 21:05:00 0.9 C 95 % 0.19 C
1407 23-11-2015 21:10:00 0.9 C 95 % 0.19 C
1408 23-11-2015 21:15:00 0.9 C 95 % 0.19 C
1409 23-11-2015 21:20:00 1 C 95 % 0.29 C
1410 23-11-2015 21:25:00 0.9 C 95 % 0.19 C
1411 23-11-2015 21:30:00 0.9 C 95 % 0.19 C
1412 23-11-2015 21:35:00 0.9 C 95 % 0.19 C
1413 23-11-2015 21:40:00 0.8 C 95 % 0.09 C
1414 23-11-2015 21:45:00 0.8 C 95 % 0.09 C
1415 23-11-2015 21:50:00 0.8 C 95 % 0.09 C
1416 23-11-2015 21:55:00 0.8 C 95 % 0.09 C
1417 23-11-2015 22:00:00 0.8 C 95 % 0.09 C
1418 23-11-2015 22:05:00 0.8 C 95 % 0.09 C
1419 23-11-2015 22:10:00 0.8 C 95 % 0.09 C
1420 23-11-2015 22:15:00 0.8 C 95 % 0.09 C
1421 23-11-2015 22:20:00 0.8 C 96 % 0.24 C
1422 23-11-2015 22:25:00 0.8 C 95 % 0.09 C
1423 23-11-2015 22:30:00 0.8 C 95 % 0.09 C
1424 23-11-2015 22:35:00 0.8 C 95 % 0.09 C
1425 23-11-2015 22:40:00 0.9 C 96 % 0.34 C
Sensor: Nr:Datum:Temp:Feuchte:Taupunkt:
Aussen-T/F 1426 23-11-2015 22:45:00 0.9 C 96 % 0.34 C
1427 23-11-2015 22:50:00 0.8 C 95 % 0.09 C
1428 23-11-2015 22:55:00 0.8 C 95 % 0.09 C
1429 23-11-2015 23:00:00 0.7 C 95 % -0.01 C
1430 23-11-2015 23:05:00 0.7 C 95 % -0.01 C
1431 23-11-2015 23:10:00 0.7 C 95 % -0.01 C
1432 23-11-2015 23:15:00 0.6 C 96 % 0.04 C
1433 23-11-2015 23:20:00 0.6 C 96 % 0.04 C
1434 23-11-2015 23:25:00 0.6 C 96 % 0.04 C
1435 23-11-2015 23:30:00 0.6 C 96 % 0.04 C
1436 23-11-2015 23:35:00 0.7 C 96 % 0.14 C
1437 23-11-2015 23:40:00 0.7 C 96 % 0.14 C
1438 23-11-2015 23:45:00 0.7 C 96 % 0.14 C
1439 23-11-2015 23:50:00 0.7 C 96 % 0.14 C
1440 23-11-2015 23:55:00 0.7 C 96 % 0.14 C
1441 24-11-2015 00:00:00 0.8 C 96 % 0.24 C
1442 24-11-2015 00:05:00 0.8 C 96 % 0.24 C
1443 24-11-2015 00:10:00 0.8 C 96 % 0.24 C
1444 24-11-2015 00:15:00 0.8 C 96 % 0.24 C
1445 24-11-2015 00:20:00 0.7 C 96 % 0.14 C
1446 24-11-2015 00:25:00 0.7 C 96 % 0.14 C
1447 24-11-2015 00:30:00 0.7 C 96 % 0.14 C
1448 24-11-2015 00:35:00 0.8 C 96 % 0.24 C
1449 24-11-2015 00:40:00 0.8 C 96 % 0.24 C
1450 24-11-2015 00:45:00 0.7 C 96 % 0.14 C
Sensor: Nr:Datum:Temp:Feuchte:Taupunkt:
Aussen-T/F 1451 24-11-2015 00:50:00 0.7 C 96 % 0.14 C
1452 24-11-2015 00:55:00 0.8 C 96 % 0.24 C
1453 24-11-2015 01:00:00 0.8 C 96 % 0.24 C
1454 24-11-2015 01:05:00 0.8 C 96 % 0.24 C
1455 24-11-2015 01:10:00 0.8 C 96 % 0.24 C
1456 24-11-2015 01:15:00 0.8 C 96 % 0.24 C
1457 24-11-2015 01:20:00 0.8 C 96 % 0.24 C
1458 24-11-2015 01:25:00 0.8 C 96 % 0.24 C
1459 24-11-2015 01:30:00 0.8 C 96 % 0.24 C
1460 24-11-2015 01:35:00 0.8 C 96 % 0.24 C
1461 24-11-2015 01:40:00 0.8 C 96 % 0.24 C
1462 24-11-2015 01:45:00 0.8 C 96 % 0.24 C
1463 24-11-2015 01:50:00 0.8 C 96 % 0.24 C
1464 24-11-2015 01:55:00 0.8 C 96 % 0.24 C
1465 24-11-2015 02:00:00 0.8 C 96 % 0.24 C
1466 24-11-2015 02:05:00 0.8 C 96 % 0.24 C
1467 24-11-2015 02:10:00 0.8 C 96 % 0.24 C
1468 24-11-2015 02:15:00 0.8 C 96 % 0.24 C
1469 24-11-2015 02:20:00 0.7 C 96 % 0.14 C
1470 24-11-2015 02:25:00 0.7 C 96 % 0.14 C
1471 24-11-2015 02:30:00 0.6 C 96 % 0.04 C
1472 24-11-2015 02:35:00 0.6 C 96 % 0.04 C
1473 24-11-2015 02:40:00 0.6 C 96 % 0.04 C
1474 24-11-2015 02:45:00 0.6 C 96 % 0.04 C
1475 24-11-2015 02:50:00 0.5 C 96 % -0.06 C
Sensor: Nr:Datum:Temp:Feuchte:Taupunkt:
Aussen-T/F 1476 24-11-2015 02:55:00 0.4 C 96 % -0.16 C
1477 24-11-2015 03:00:00 0.4 C 96 % -0.16 C
1478 24-11-2015 03:05:00 0.4 C 96 % -0.16 C
1479 24-11-2015 03:10:00 0.3 C 96 % -0.26 C
1480 24-11-2015 03:15:00 0.3 C 96 % -0.26 C
1481 24-11-2015 03:20:00 0.3 C 96 % -0.26 C
1482 24-11-2015 03:25:00 0.2 C 96 % -0.36 C
1483 24-11-2015 03:30:00 0.2 C 96 % -0.36 C
1484 24-11-2015 03:35:00 0.2 C 96 % -0.36 C
1485 24-11-2015 03:40:00 0.2 C 96 % -0.36 C
1486 24-11-2015 03:45:00 0.2 C 96 % -0.36 C
1487 24-11-2015 03:50:00 0.1 C 96 % -0.46 C
1488 24-11-2015 03:55:00 0.1 C 96 % -0.46 C
1489 24-11-2015 04:00:00 0 C 96 % -0.56 C
1490 24-11-2015 04:05:00 -0.1 C 96 % -0.66 C
1491 24-11-2015 04:10:00 -0.1 C 96 % -0.66 C
1492 24-11-2015 04:15:00 -0.1 C 96 % -0.66 C
1493 24-11-2015 04:20:00 -0.2 C 96 % -0.76 C
1494 24-11-2015 04:25:00 -0.2 C 96 % -0.76 C
1495 24-11-2015 04:30:00 -0.2 C 96 % -0.76 C
1496 24-11-2015 04:35:00 -0.2 C 96 % -0.76 C
1497 24-11-2015 04:40:00 -0.2 C 96 % -0.76 C
1498 24-11-2015 04:45:00 -0.3 C 96 % -0.86 C
1499 24-11-2015 04:50:00 -0.3 C 96 % -0.86 C
1500 24-11-2015 04:55:00 -0.3 C 96 % -0.86 C
Sensor: Nr:Datum:Temp:Feuchte:Taupunkt:
Aussen-T/F 1501 24-11-2015 05:00:00 -0.3 C 96 % -0.86 C
1502 24-11-2015 05:05:00 -0.3 C 96 % -0.86 C
1503 24-11-2015 05:10:00 -0.2 C 96 % -0.76 C
1504 24-11-2015 05:15:00 -0.2 C 96 % -0.76 C
1505 24-11-2015 05:20:00 -0.1 C 96 % -0.66 C
1506 24-11-2015 05:25:00 -0.1 C 96 % -0.66 C
1507 24-11-2015 05:30:00 0 C 96 % -0.56 C
1508 24-11-2015 05:35:00 0.1 C 96 % -0.46 C
1509 24-11-2015 05:40:00 0.1 C 96 % -0.46 C
1510 24-11-2015 05:45:00 0.1 C 96 % -0.46 C
1511 24-11-2015 05:50:00 0.1 C 96 % -0.46 C
1512 24-11-2015 05:55:00 0.1 C 96 % -0.46 C
1513 24-11-2015 06:00:00 0.1 C 96 % -0.46 C
1514 24-11-2015 06:05:00 0.1 C 96 % -0.46 C
1515 24-11-2015 06:10:00 0.1 C 96 % -0.46 C
1516 24-11-2015 06:15:00 0 C 96 % -0.56 C
1517 24-11-2015 06:20:00 -0.1 C 96 % -0.66 C
1518 24-11-2015 06:25:00 -0.1 C 96 % -0.66 C
1519 24-11-2015 06:30:00 -0.2 C 96 % -0.76 C
1520 24-11-2015 06:35:00 -0.2 C 96 % -0.76 C
1521 24-11-2015 06:40:00 -0.2 C 96 % -0.76 C
1522 24-11-2015 06:45:00 -0.2 C 96 % -0.76 C
1523 24-11-2015 06:50:00 -0.2 C 96 % -0.76 C
1524 24-11-2015 06:55:00 -0.2 C 96 % -0.76 C
1525 24-11-2015 07:00:00 -0.3 C 96 % -0.86 C
Sensor: Nr:Datum:Temp:Feuchte:Taupunkt:
Aussen-T/F 1526 24-11-2015 07:05:00 -0.3 C 96 % -0.86 C
1527 24-11-2015 07:10:00 -0.3 C 96 % -0.86 C
1528 24-11-2015 07:15:00 -0.4 C 96 % -0.96 C
1529 24-11-2015 07:20:00 -0.4 C 96 % -0.96 C
1530 24-11-2015 07:25:00 -0.4 C 96 % -0.96 C
1531 24-11-2015 07:30:00 -0.3 C 96 % -0.86 C
1532 24-11-2015 07:35:00 -0.3 C 96 % -0.86 C
1533 24-11-2015 07:40:00 -0.3 C 96 % -0.86 C
1534 24-11-2015 07:45:00 -0.3 C 96 % -0.86 C
1535 24-11-2015 07:50:00 -0.2 C 96 % -0.76 C
1536 24-11-2015 07:55:00 -0.3 C 96 % -0.86 C
1537 24-11-2015 08:00:00 -0.3 C 96 % -0.86 C
1538 24-11-2015 08:05:00 -0.2 C 96 % -0.76 C
1539 24-11-2015 08:10:00 -0.2 C 96 % -0.76 C
1540 24-11-2015 08:15:00 -0.1 C 96 % -0.66 C
1541 24-11-2015 08:20:00 0.1 C 96 % -0.46 C
1542 24-11-2015 08:25:00 0.2 C 96 % -0.36 C
1543 24-11-2015 08:30:00 0.3 C 96 % -0.26 C
1544 24-11-2015 08:35:00 0.3 C 96 % -0.26 C
1545 24-11-2015 08:40:00 0.4 C 96 % -0.16 C
1546 24-11-2015 08:45:00 0.4 C 96 % -0.16 C
1547 24-11-2015 08:50:00 0.5 C 96 % -0.06 C
1548 24-11-2015 08:55:00 0.6 C 96 % 0.04 C
1549 24-11-2015 09:00:00 0.7 C 96 % 0.14 C
1550 24-11-2015 09:05:00 0.7 C 96 % 0.14 C
Sensor: Nr:Datum:Temp:Feuchte:Taupunkt:
Aussen-T/F 1551 24-11-2015 09:10:00 0.8 C 95 % 0.09 C
1552 24-11-2015 09:15:00 0.8 C 95 % 0.09 C
1553 24-11-2015 09:20:00 0.9 C 95 % 0.19 C
1554 24-11-2015 09:25:00 0.9 C 95 % 0.19 C
1555 24-11-2015 09:30:00 1 C 95 % 0.29 C
1556 24-11-2015 09:35:00 1.1 C 94 % 0.24 C
1557 24-11-2015 09:40:00 1.1 C 94 % 0.24 C
1558 24-11-2015 09:45:00 1.2 C 94 % 0.34 C
1559 24-11-2015 09:50:00 1.3 C 94 % 0.44 C
1560 24-11-2015 09:55:00 1.4 C 94 % 0.54 C
1561 24-11-2015 10:00:00 1.4 C 94 % 0.54 C
1562 24-11-2015 10:05:00 1.5 C 93 % 0.49 C
1563 24-11-2015 10:10:00 1.6 C 92 % 0.44 C
1564 24-11-2015 10:15:00 1.7 C 92 % 0.54 C
1565 24-11-2015 10:20:00 1.8 C 92 % 0.64 C
1566 24-11-2015 10:25:00 1.9 C 91 % 0.59 C
1567 24-11-2015 10:30:00 2 C 92 % 0.84 C
1568 24-11-2015 10:35:00 2.1 C 91 % 0.79 C
1569 24-11-2015 10:40:00 2.2 C 90 % 0.73 C
1570 24-11-2015 10:45:00 2.3 C 90 % 0.83 C
1571 24-11-2015 10:50:00 2.4 C 90 % 0.93 C
1572 24-11-2015 10:55:00 2.5 C 90 % 1.03 C
1573 24-11-2015 11:00:00 2.6 C 88 % 0.82 C
1574 24-11-2015 11:05:00 2.6 C 88 % 0.82 C
1575 24-11-2015 11:10:00 2.7 C 88 % 0.92 C
Sensor: Nr:Datum:Temp:Feuchte:Taupunkt:
Aussen-T/F 1576 24-11-2015 11:15:00 2.8 C 87 % 0.86 C
1577 24-11-2015 11:20:00 2.8 C 87 % 0.86 C
1578 24-11-2015 11:25:00 2.9 C 87 % 0.96 C
1579 24-11-2015 11:30:00 3 C 86 % 0.89 C
1580 24-11-2015 11:35:00 3.1 C 86 % 0.99 C
1581 24-11-2015 11:40:00 3.2 C 85 % 0.93 C
1582 24-11-2015 11:45:00 3.3 C 85 % 1.03 C
1583 24-11-2015 11:50:00 3.3 C 85 % 1.03 C
1584 24-11-2015 11:55:00 3.4 C 85 % 1.12 C
1585 24-11-2015 12:00:00 3.4 C 84 % 0.96 C
1586 24-11-2015 12:05:00 3.5 C 83 % 0.89 C
1587 24-11-2015 12:10:00 3.6 C 83 % 0.99 C
1588 24-11-2015 12:15:00 3.6 C 84 % 1.16 C
1589 24-11-2015 12:20:00 3.6 C 84 % 1.16 C
1590 24-11-2015 12:25:00 3.6 C 83 % 0.99 C
1591 24-11-2015 12:30:00 3.7 C 83 % 1.09 C
1592 24-11-2015 12:35:00 3.7 C 83 % 1.09 C
1593 24-11-2015 12:40:00 3.7 C 83 % 1.09 C
1594 24-11-2015 12:45:00 3.7 C 83 % 1.09 C
1595 24-11-2015 12:50:00 3.7 C 83 % 1.09 C
1596 24-11-2015 12:55:00 3.7 C 82 % 0.92 C
1597 24-11-2015 13:00:00 3.8 C 82 % 1.02 C
1598 24-11-2015 13:05:00 3.8 C 82 % 1.02 C
1599 24-11-2015 13:10:00 3.7 C 81 % 0.75 C
1600 24-11-2015 13:15:00 3.7 C 82 % 0.92 C
Sensor: Nr:Datum:Temp:Feuchte:Taupunkt:
Aussen-T/F 1601 24-11-2015 13:20:00 3.7 C 82 % 0.92 C
1602 24-11-2015 13:25:00 3.7 C 82 % 0.92 C
1603 24-11-2015 13:30:00 3.7 C 82 % 0.92 C
1604 24-11-2015 13:35:00 3.7 C 82 % 0.92 C
1605 24-11-2015 13:40:00 3.7 C 81 % 0.75 C
1606 24-11-2015 13:45:00 3.7 C 81 % 0.75 C
1607 24-11-2015 13:50:00 3.7 C 81 % 0.75 C
1608 24-11-2015 13:55:00 3.7 C 82 % 0.92 C
1609 24-11-2015 14:00:00 3.7 C 82 % 0.92 C
1610 24-11-2015 14:05:00 3.8 C 82 % 1.02 C
1611 24-11-2015 14:10:00 3.8 C 82 % 1.02 C
1612 24-11-2015 14:15:00 3.9 C 82 % 1.12 C
1613 24-11-2015 14:20:00 3.9 C 81 % 0.95 C
1614 24-11-2015 14:25:00 4 C 80 % 0.87 C
1615 24-11-2015 14:30:00 4 C 80 % 0.87 C
1616 24-11-2015 14:35:00 4 C 80 % 0.87 C
1617 24-11-2015 14:40:00 4 C 81 % 1.04 C
1618 24-11-2015 14:45:00 4 C 79 % 0.7 C
1619 24-11-2015 14:50:00 3.9 C 79 % 0.6 C
1620 24-11-2015 14:55:00 3.9 C 80 % 0.77 C
1621 24-11-2015 15:00:00 3.9 C 79 % 0.6 C
1622 24-11-2015 15:05:00 3.9 C 80 % 0.77 C
1623 24-11-2015 15:10:00 3.8 C 80 % 0.68 C
1624 24-11-2015 15:15:00 3.8 C 79 % 0.5 C
1625 24-11-2015 15:20:00 3.8 C 79 % 0.5 C
Sensor: Nr:Datum:Temp:Feuchte:Taupunkt:
Aussen-T/F 1626 24-11-2015 15:25:00 3.7 C 80 % 0.58 C
1627 24-11-2015 15:30:00 3.7 C 80 % 0.58 C
1628 24-11-2015 15:35:00 3.6 C 79 % 0.31 C
1629 24-11-2015 15:40:00 3.6 C 80 % 0.48 C
1630 24-11-2015 15:45:00 3.6 C 80 % 0.48 C
1631 24-11-2015 15:50:00 3.5 C 79 % 0.21 C
1632 24-11-2015 15:55:00 3.5 C 80 % 0.38 C
1633 24-11-2015 16:00:00 3.5 C 80 % 0.38 C
1634 24-11-2015 16:05:00 3.5 C 79 % 0.21 C
1635 24-11-2015 16:10:00 3.5 C 79 % 0.21 C
1636 24-11-2015 16:15:00 3.5 C 80 % 0.38 C
1637 24-11-2015 16:20:00 3.4 C 81 % 0.46 C
1638 24-11-2015 16:25:00 3.4 C 80 % 0.29 C
1639 24-11-2015 16:30:00 3.3 C 81 % 0.36 C
1640 24-11-2015 16:35:00 3.3 C 81 % 0.36 C
1641 24-11-2015 16:40:00 3.3 C 81 % 0.36 C
1642 24-11-2015 16:45:00 3.3 C 82 % 0.53 C
1643 24-11-2015 16:50:00 3.2 C 81 % 0.26 C
1644 24-11-2015 16:55:00 3.2 C 82 % 0.43 C
1645 24-11-2015 17:00:00 3.2 C 81 % 0.26 C
1646 24-11-2015 17:05:00 3.2 C 81 % 0.26 C
1647 24-11-2015 17:10:00 3.2 C 81 % 0.26 C
1648 24-11-2015 17:15:00 3.2 C 81 % 0.26 C
1649 24-11-2015 17:20:00 3.2 C 81 % 0.26 C
1650 24-11-2015 17:25:00 3.2 C 82 % 0.43 C
Sensor: Nr:Datum:Temp:Feuchte:Taupunkt:
Aussen-T/F 1651 24-11-2015 17:30:00 3.1 C 82 % 0.33 C
1652 24-11-2015 17:35:00 3.1 C 82 % 0.33 C
1653 24-11-2015 17:40:00 3.1 C 83 % 0.5 C
1654 24-11-2015 17:45:00 3.1 C 82 % 0.33 C
1655 24-11-2015 17:50:00 3.1 C 82 % 0.33 C
1656 24-11-2015 17:55:00 3.1 C 82 % 0.33 C
1657 24-11-2015 18:00:00 3.1 C 83 % 0.5 C
1658 24-11-2015 18:05:00 3.1 C 83 % 0.5 C
1659 24-11-2015 18:10:00 3.1 C 82 % 0.33 C
1660 24-11-2015 18:15:00 3.2 C 82 % 0.43 C
1661 24-11-2015 18:20:00 3.2 C 81 % 0.26 C
1662 24-11-2015 18:25:00 3.2 C 81 % 0.26 C
1663 24-11-2015 18:30:00 3.2 C 81 % 0.26 C
1664 24-11-2015 18:35:00 3.3 C 81 % 0.36 C
1665 24-11-2015 18:40:00 3.3 C 82 % 0.53 C
1666 24-11-2015 18:45:00 3.3 C 82 % 0.53 C
1667 24-11-2015 18:50:00 3.3 C 82 % 0.53 C
1668 24-11-2015 18:55:00 3.3 C 83 % 0.7 C
1669 24-11-2015 19:00:00 3.3 C 82 % 0.53 C
1670 24-11-2015 19:05:00 3.3 C 82 % 0.53 C
1671 24-11-2015 19:10:00 3.4 C 82 % 0.63 C
1672 24-11-2015 19:15:00 3.4 C 82 % 0.63 C
1673 24-11-2015 19:20:00 3.3 C 83 % 0.7 C
1674 24-11-2015 19:25:00 3.2 C 84 % 0.76 C
1675 24-11-2015 19:30:00 3.1 C 86 % 0.99 C
Sensor: Nr:Datum:Temp:Feuchte:Taupunkt:
Aussen-T/F 1676 24-11-2015 19:35:00 2.9 C 87 % 0.96 C
1677 24-11-2015 19:40:00 2.8 C 88 % 1.02 C
1678 24-11-2015 19:45:00 2.7 C 88 % 0.92 C
1679 24-11-2015 19:50:00 2.5 C 89 % 0.88 C
1680 24-11-2015 19:55:00 2.4 C 90 % 0.93 C
1681 24-11-2015 20:00:00 2.3 C 90 % 0.83 C
1682 24-11-2015 20:05:00 2.3 C 91 % 0.99 C
1683 24-11-2015 20:10:00 2.2 C 91 % 0.89 C
1684 24-11-2015 20:15:00 2.2 C 92 % 1.04 C
1685 24-11-2015 20:20:00 2.2 C 92 % 1.04 C
1686 24-11-2015 20:25:00 2.2 C 92 % 1.04 C
1687 24-11-2015 20:30:00 2.2 C 92 % 1.04 C
1688 24-11-2015 20:35:00 2.2 C 92 % 1.04 C
1689 24-11-2015 20:40:00 2.2 C 93 % 1.19 C
1690 24-11-2015 20:45:00 2.2 C 93 % 1.19 C
1691 24-11-2015 20:50:00 2.2 C 93 % 1.19 C
1692 24-11-2015 20:55:00 2.2 C 93 % 1.19 C
1693 24-11-2015 21:00:00 2.2 C 93 % 1.19 C
1694 24-11-2015 21:05:00 2.2 C 93 % 1.19 C
1695 24-11-2015 21:10:00 2.2 C 93 % 1.19 C
1696 24-11-2015 21:15:00 2.3 C 93 % 1.29 C
1697 24-11-2015 21:20:00 2.3 C 93 % 1.29 C
1698 24-11-2015 21:25:00 2.3 C 93 % 1.29 C
1699 24-11-2015 21:30:00 2.3 C 93 % 1.29 C
1700 24-11-2015 21:35:00 2.3 C 93 % 1.29 C
Sensor: Nr:Datum:Temp:Feuchte:Taupunkt:
Aussen-T/F 1701 24-11-2015 21:40:00 2.3 C 93 % 1.29 C
1702 24-11-2015 21:45:00 2.4 C 93 % 1.39 C
1703 24-11-2015 21:50:00 2.4 C 92 % 1.24 C
1704 24-11-2015 21:55:00 2.4 C 92 % 1.24 C
1705 24-11-2015 22:00:00 2.4 C 92 % 1.24 C
1706 24-11-2015 22:05:00 2.4 C 93 % 1.39 C
1707 24-11-2015 22:10:00 2.4 C 93 % 1.39 C
1708 24-11-2015 22:15:00 2.4 C 93 % 1.39 C
1709 24-11-2015 22:20:00 2.4 C 93 % 1.39 C
1710 24-11-2015 22:25:00 2.4 C 93 % 1.39 C
1711 24-11-2015 22:30:00 2.4 C 92 % 1.24 C
1712 24-11-2015 22:35:00 2.5 C 92 % 1.34 C
1713 24-11-2015 22:40:00 2.5 C 92 % 1.34 C
1714 24-11-2015 22:45:00 2.5 C 92 % 1.34 C
1715 24-11-2015 22:50:00 2.6 C 92 % 1.43 C
1716 24-11-2015 22:55:00 2.6 C 92 % 1.43 C
1717 24-11-2015 23:00:00 2.6 C 92 % 1.43 C
1718 24-11-2015 23:05:00 2.6 C 92 % 1.43 C
1719 24-11-2015 23:10:00 2.6 C 92 % 1.43 C
1720 24-11-2015 23:15:00 2.7 C 92 % 1.53 C
1721 24-11-2015 23:20:00 2.7 C 92 % 1.53 C
1722 24-11-2015 23:25:00 2.7 C 92 % 1.53 C
1723 24-11-2015 23:30:00 2.8 C 91 % 1.48 C
1724 24-11-2015 23:35:00 2.8 C 91 % 1.48 C
1725 24-11-2015 23:40:00 2.8 C 91 % 1.48 C
Sensor: Nr:Datum:Temp:Feuchte:Taupunkt:
Aussen-T/F 1726 24-11-2015 23:45:00 2.8 C 91 % 1.48 C
1727 24-11-2015 23:50:00 2.9 C 91 % 1.58 C
1728 24-11-2015 23:55:00 2.8 C 91 % 1.48 C
1729 25-11-2015 00:00:00 2.8 C 91 % 1.48 C
1730 25-11-2015 00:05:00 2.8 C 91 % 1.48 C
1731 25-11-2015 00:10:00 2.8 C 91 % 1.48 C
1732 25-11-2015 00:15:00 2.8 C 91 % 1.48 C
1733 25-11-2015 00:20:00 2.8 C 91 % 1.48 C
1734 25-11-2015 00:25:00 2.8 C 92 % 1.63 C
1735 25-11-2015 00:30:00 2.8 C 92 % 1.63 C
1736 25-11-2015 00:35:00 2.8 C 92 % 1.63 C
1737 25-11-2015 00:40:00 2.7 C 92 % 1.53 C
1738 25-11-2015 00:45:00 2.7 C 92 % 1.53 C
1739 25-11-2015 00:50:00 2.7 C 93 % 1.68 C
1740 25-11-2015 00:55:00 2.7 C 93 % 1.68 C
1741 25-11-2015 01:00:00 2.7 C 93 % 1.68 C
1742 25-11-2015 01:05:00 2.7 C 93 % 1.68 C
1743 25-11-2015 01:10:00 2.7 C 93 % 1.68 C
1744 25-11-2015 01:15:00 2.7 C 93 % 1.68 C
1745 25-11-2015 01:20:00 2.7 C 93 % 1.68 C
1746 25-11-2015 01:25:00 2.7 C 93 % 1.68 C
1747 25-11-2015 01:30:00 2.7 C 93 % 1.68 C
1748 25-11-2015 01:35:00 2.8 C 93 % 1.78 C
1749 25-11-2015 01:40:00 2.8 C 93 % 1.78 C
1750 25-11-2015 01:45:00 2.8 C 93 % 1.78 C
Sensor: Nr:Datum:Temp:Feuchte:Taupunkt:
Aussen-T/F 1751 25-11-2015 01:50:00 2.8 C 93 % 1.78 C
1752 25-11-2015 01:55:00 2.8 C 93 % 1.78 C
1753 25-11-2015 02:00:00 2.8 C 93 % 1.78 C
1754 25-11-2015 02:05:00 2.8 C 92 % 1.63 C
1755 25-11-2015 02:10:00 2.8 C 92 % 1.63 C
1756 25-11-2015 02:15:00 2.8 C 93 % 1.78 C
1757 25-11-2015 02:20:00 2.8 C 93 % 1.78 C
1758 25-11-2015 02:25:00 2.8 C 93 % 1.78 C
1759 25-11-2015 02:30:00 2.8 C 93 % 1.78 C
1760 25-11-2015 02:35:00 2.9 C 93 % 1.88 C
1761 25-11-2015 02:40:00 2.8 C 93 % 1.78 C
1762 25-11-2015 02:45:00 2.9 C 93 % 1.88 C
1763 25-11-2015 02:50:00 2.9 C 93 % 1.88 C
1764 25-11-2015 02:55:00 2.9 C 93 % 1.88 C
1765 25-11-2015 03:00:00 2.9 C 93 % 1.88 C
1766 25-11-2015 03:05:00 2.9 C 93 % 1.88 C
1767 25-11-2015 03:10:00 2.9 C 93 % 1.88 C
1768 25-11-2015 03:15:00 2.8 C 93 % 1.78 C
1769 25-11-2015 03:20:00 2.8 C 93 % 1.78 C
1770 25-11-2015 03:25:00 2.8 C 94 % 1.93 C
1771 25-11-2015 03:30:00 2.8 C 94 % 1.93 C
1772 25-11-2015 03:35:00 2.8 C 94 % 1.93 C
1773 25-11-2015 03:40:00 2.8 C 94 % 1.93 C
1774 25-11-2015 03:45:00 2.9 C 94 % 2.03 C
1775 25-11-2015 03:50:00 2.9 C 94 % 2.03 C
Sensor: Nr:Datum:Temp:Feuchte:Taupunkt:
Aussen-T/F 1776 25-11-2015 03:55:00 2.9 C 94 % 2.03 C
1777 25-11-2015 04:00:00 2.9 C 94 % 2.03 C
1778 25-11-2015 04:05:00 2.9 C 94 % 2.03 C
1779 25-11-2015 04:10:00 2.9 C 94 % 2.03 C
1780 25-11-2015 04:15:00 2.9 C 94 % 2.03 C
1781 25-11-2015 04:20:00 2.9 C 94 % 2.03 C
1782 25-11-2015 04:25:00 3 C 94 % 2.13 C
1783 25-11-2015 04:30:00 3 C 94 % 2.13 C
1784 25-11-2015 04:35:00 3.1 C 94 % 2.23 C
1785 25-11-2015 04:40:00 3.1 C 94 % 2.23 C
1786 25-11-2015 04:45:00 3.1 C 94 % 2.23 C
1787 25-11-2015 04:50:00 3.1 C 94 % 2.23 C
1788 25-11-2015 04:55:00 3.2 C 94 % 2.33 C
1789 25-11-2015 05:00:00 3.2 C 94 % 2.33 C
1790 25-11-2015 05:05:00 3.2 C 94 % 2.33 C
1791 25-11-2015 05:10:00 3.2 C 94 % 2.33 C
1792 25-11-2015 05:15:00 3.2 C 94 % 2.33 C
1793 25-11-2015 05:20:00 3.2 C 94 % 2.33 C
1794 25-11-2015 05:25:00 3.3 C 94 % 2.43 C
1795 25-11-2015 05:30:00 3.3 C 94 % 2.43 C
1796 25-11-2015 05:35:00 3.3 C 94 % 2.43 C
1797 25-11-2015 05:40:00 3.3 C 94 % 2.43 C
1798 25-11-2015 05:45:00 3.3 C 94 % 2.43 C
1799 25-11-2015 05:50:00 3.4 C 94 % 2.53 C
1800 25-11-2015 05:55:00 3.4 C 94 % 2.53 C
Sensor: Nr:Datum:Temp:Feuchte:Taupunkt:
Aussen-T/F 1801 25-11-2015 06:00:00 3.4 C 94 % 2.53 C
1802 25-11-2015 06:05:00 3.4 C 94 % 2.53 C
1803 25-11-2015 06:10:00 3.4 C 94 % 2.53 C
1804 25-11-2015 06:15:00 3.4 C 93 % 2.38 C
1805 25-11-2015 06:20:00 3.5 C 93 % 2.48 C
1806 25-11-2015 06:25:00 3.5 C 93 % 2.48 C
1807 25-11-2015 06:30:00 3.6 C 93 % 2.58 C
1808 25-11-2015 06:35:00 3.6 C 94 % 2.73 C
1809 25-11-2015 06:40:00 3.6 C 94 % 2.73 C
1810 25-11-2015 06:45:00 3.6 C 94 % 2.73 C
1811 25-11-2015 06:50:00 3.7 C 93 % 2.68 C
1812 25-11-2015 06:55:00 3.7 C 93 % 2.68 C
1813 25-11-2015 07:00:00 3.7 C 93 % 2.68 C
1814 25-11-2015 07:05:00 3.7 C 93 % 2.68 C
1815 25-11-2015 07:10:00 3.7 C 93 % 2.68 C
1816 25-11-2015 07:15:00 3.8 C 93 % 2.77 C
1817 25-11-2015 07:20:00 3.8 C 93 % 2.77 C
1818 25-11-2015 07:25:00 3.8 C 93 % 2.77 C
1819 25-11-2015 07:30:00 3.8 C 93 % 2.77 C
1820 25-11-2015 07:35:00 3.9 C 93 % 2.87 C
1821 25-11-2015 07:40:00 3.8 C 93 % 2.77 C
1822 25-11-2015 07:45:00 3.8 C 93 % 2.77 C
1823 25-11-2015 07:50:00 3.8 C 93 % 2.77 C
1824 25-11-2015 07:55:00 3.9 C 93 % 2.87 C
1825 25-11-2015 08:00:00 3.9 C 93 % 2.87 C
Sensor: Nr:Datum:Temp:Feuchte:Taupunkt:
Aussen-T/F 1826 25-11-2015 08:05:00 3.9 C 93 % 2.87 C
1827 25-11-2015 08:10:00 3.9 C 93 % 2.87 C
1828 25-11-2015 08:15:00 3.9 C 93 % 2.87 C
1829 25-11-2015 08:20:00 4 C 93 % 2.97 C
1830 25-11-2015 08:25:00 4 C 93 % 2.97 C
1831 25-11-2015 08:30:00 4.1 C 93 % 3.07 C
1832 25-11-2015 08:35:00 4.1 C 93 % 3.07 C
1833 25-11-2015 08:40:00 4.1 C 93 % 3.07 C
1834 25-11-2015 08:45:00 4.1 C 93 % 3.07 C
1835 25-11-2015 08:50:00 4.2 C 93 % 3.17 C
1836 25-11-2015 08:55:00 4.2 C 93 % 3.17 C
1837 25-11-2015 09:00:00 4.2 C 92 % 3.02 C
1838 25-11-2015 09:05:00 4.2 C 92 % 3.02 C
1839 25-11-2015 09:10:00 4.3 C 92 % 3.12 C
1840 25-11-2015 09:15:00 4.3 C 92 % 3.12 C
1841 25-11-2015 09:20:00 4.3 C 92 % 3.12 C
1842 25-11-2015 09:25:00 4.4 C 92 % 3.22 C
1843 25-11-2015 09:30:00 4.4 C 92 % 3.22 C
1844 25-11-2015 09:35:00 4.4 C 92 % 3.22 C
1845 25-11-2015 09:40:00 4.4 C 92 % 3.22 C
1846 25-11-2015 09:45:00 4.4 C 92 % 3.22 C
1847 25-11-2015 09:50:00 4.5 C 92 % 3.32 C
1848 25-11-2015 09:55:00 4.5 C 92 % 3.32 C
1849 25-11-2015 10:00:00 4.6 C 92 % 3.42 C
1850 25-11-2015 10:05:00 4.6 C 92 % 3.42 C
Sensor: Nr:Datum:Temp:Feuchte:Taupunkt:
Aussen-T/F 1851 25-11-2015 10:10:00 4.6 C 92 % 3.42 C
1852 25-11-2015 10:15:00 4.6 C 92 % 3.42 C
1853 25-11-2015 10:20:00 4.6 C 92 % 3.42 C
1854 25-11-2015 10:25:00 4.7 C 92 % 3.51 C
1855 25-11-2015 10:30:00 4.8 C 92 % 3.61 C
1856 25-11-2015 10:35:00 4.9 C 92 % 3.71 C
1857 25-11-2015 10:40:00 5 C 92 % 3.81 C
1858 25-11-2015 10:45:00 5.1 C 92 % 3.91 C
1859 25-11-2015 10:50:00 5.2 C 91 % 3.85 C
1860 25-11-2015 10:55:00 5.2 C 91 % 3.85 C
1861 25-11-2015 11:00:00 5.2 C 91 % 3.85 C
1862 25-11-2015 11:05:00 5.2 C 91 % 3.85 C
1863 25-11-2015 11:10:00 5.3 C 91 % 3.95 C
1864 25-11-2015 11:15:00 5.3 C 90 % 3.8 C
1865 25-11-2015 11:20:00 5.3 C 90 % 3.8 C
1866 25-11-2015 11:25:00 5.3 C 91 % 3.95 C
1867 25-11-2015 11:30:00 5.4 C 91 % 4.05 C
1868 25-11-2015 11:35:00 5.4 C 91 % 4.05 C
1869 25-11-2015 11:40:00 5.6 C 91 % 4.25 C
1870 25-11-2015 11:45:00 5.7 C 90 % 4.19 C
1871 25-11-2015 11:50:00 5.8 C 90 % 4.29 C
1872 25-11-2015 11:55:00 6 C 90 % 4.49 C
1873 25-11-2015 12:00:00 6.1 C 89 % 4.43 C
1874 25-11-2015 12:05:00 6.2 C 88 % 4.36 C
1875 25-11-2015 12:10:00 6.3 C 88 % 4.46 C
Sensor: Nr:Datum:Temp:Feuchte:Taupunkt:
Aussen-T/F 1876 25-11-2015 12:15:00 6.3 C 88 % 4.46 C
1877 25-11-2015 12:20:00 6.3 C 88 % 4.46 C
1878 25-11-2015 12:25:00 6.3 C 88 % 4.46 C
1879 25-11-2015 12:30:00 6.3 C 88 % 4.46 C
1880 25-11-2015 12:35:00 6.4 C 88 % 4.56 C
1881 25-11-2015 12:40:00 6.4 C 88 % 4.56 C
1882 25-11-2015 12:45:00 6.4 C 88 % 4.56 C
1883 25-11-2015 12:50:00 6.4 C 88 % 4.56 C
1884 25-11-2015 12:55:00 6.4 C 88 % 4.56 C
1885 25-11-2015 13:00:00 6.4 C 88 % 4.56 C
1886 25-11-2015 13:05:00 6.5 C 88 % 4.66 C
1887 25-11-2015 13:10:00 6.6 C 87 % 4.6 C
1888 25-11-2015 13:15:00 6.7 C 87 % 4.69 C
1889 25-11-2015 13:20:00 6.7 C 87 % 4.69 C
1890 25-11-2015 13:25:00 6.7 C 86 % 4.53 C
1891 25-11-2015 13:30:00 6.6 C 87 % 4.6 C
1892 25-11-2015 13:35:00 6.6 C 87 % 4.6 C
1893 25-11-2015 13:40:00 6.6 C 88 % 4.76 C
1894 25-11-2015 13:45:00 6.5 C 88 % 4.66 C
1895 25-11-2015 13:50:00 6.4 C 87 % 4.4 C
1896 25-11-2015 13:55:00 6.3 C 87 % 4.3 C
1897 25-11-2015 14:00:00 6.2 C 87 % 4.2 C
1898 25-11-2015 14:05:00 6.2 C 87 % 4.2 C
1899 25-11-2015 14:10:00 6.2 C 88 % 4.36 C
1900 25-11-2015 14:15:00 6.2 C 89 % 4.53 C
Sensor: Nr:Datum:Temp:Feuchte:Taupunkt:
Aussen-T/F 1901 25-11-2015 14:20:00 6.2 C 89 % 4.53 C
1902 25-11-2015 14:25:00 6.2 C 89 % 4.53 C
1903 25-11-2015 14:30:00 6.2 C 90 % 4.69 C
1904 25-11-2015 14:35:00 6.2 C 89 % 4.53 C
1905 25-11-2015 14:40:00 6.2 C 89 % 4.53 C
1906 25-11-2015 14:45:00 6.3 C 89 % 4.62 C
1907 25-11-2015 14:50:00 6.3 C 89 % 4.62 C
1908 25-11-2015 14:55:00 6.4 C 89 % 4.72 C
1909 25-11-2015 15:00:00 6.5 C 88 % 4.66 C
1910 25-11-2015 15:05:00 6.4 C 87 % 4.4 C
1911 25-11-2015 15:10:00 6.3 C 88 % 4.46 C
1912 25-11-2015 15:15:00 6.2 C 88 % 4.36 C
1913 25-11-2015 15:20:00 6.1 C 88 % 4.27 C
1914 25-11-2015 15:25:00 5.9 C 89 % 4.23 C
1915 25-11-2015 15:30:00 5.8 C 89 % 4.13 C
1916 25-11-2015 15:35:00 5.7 C 89 % 4.03 C
1917 25-11-2015 15:40:00 5.6 C 89 % 3.93 C
1918 25-11-2015 15:45:00 5.6 C 89 % 3.93 C
1919 25-11-2015 15:50:00 5.4 C 90 % 3.89 C
1920 25-11-2015 15:55:00 5.4 C 90 % 3.89 C
1921 25-11-2015 16:00:00 5.4 C 90 % 3.89 C
1922 25-11-2015 16:05:00 5.5 C 90 % 3.99 C
1923 25-11-2015 16:10:00 5.5 C 90 % 3.99 C
1924 25-11-2015 16:15:00 5.6 C 90 % 4.09 C
1925 25-11-2015 16:20:00 5.6 C 90 % 4.09 C
Sensor: Nr:Datum:Temp:Feuchte:Taupunkt:
Aussen-T/F 1926 25-11-2015 16:25:00 5.6 C 90 % 4.09 C
1927 25-11-2015 16:30:00 5.6 C 90 % 4.09 C
1928 25-11-2015 16:35:00 5.6 C 91 % 4.25 C
1929 25-11-2015 16:40:00 5.5 C 91 % 4.15 C
1930 25-11-2015 16:45:00 5.4 C 91 % 4.05 C
1931 25-11-2015 16:50:00 5.4 C 92 % 4.21 C
1932 25-11-2015 16:55:00 5.3 C 91 % 3.95 C
1933 25-11-2015 17:00:00 5.3 C 91 % 3.95 C
1934 25-11-2015 17:05:00 5.3 C 91 % 3.95 C
1935 25-11-2015 17:10:00 5.3 C 91 % 3.95 C
1936 25-11-2015 17:15:00 5.3 C 91 % 3.95 C
1937 25-11-2015 17:20:00 5.3 C 91 % 3.95 C
1938 25-11-2015 17:25:00 5.3 C 91 % 3.95 C
1939 25-11-2015 17:30:00 5.3 C 91 % 3.95 C
1940 25-11-2015 17:35:00 5.3 C 91 % 3.95 C
1941 25-11-2015 17:40:00 5.3 C 91 % 3.95 C
1942 25-11-2015 17:45:00 5.3 C 91 % 3.95 C
1943 25-11-2015 17:50:00 5.3 C 91 % 3.95 C
1944 25-11-2015 17:55:00 5.3 C 91 % 3.95 C
1945 25-11-2015 18:00:00 5.3 C 91 % 3.95 C
1946 25-11-2015 18:05:00 5.3 C 91 % 3.95 C
1947 25-11-2015 18:10:00 5.3 C 91 % 3.95 C
1948 25-11-2015 18:15:00 5.3 C 91 % 3.95 C
1949 25-11-2015 18:20:00 5.3 C 91 % 3.95 C
1950 25-11-2015 18:25:00 5.3 C 91 % 3.95 C
Sensor: Nr:Datum:Temp:Feuchte:Taupunkt:
Aussen-T/F 1951 25-11-2015 18:30:00 5.3 C 91 % 3.95 C
1952 25-11-2015 18:35:00 5.3 C 91 % 3.95 C
1953 25-11-2015 18:40:00 5.3 C 91 % 3.95 C
1954 25-11-2015 18:45:00 5.3 C 91 % 3.95 C
1955 25-11-2015 18:50:00 5.3 C 91 % 3.95 C
1956 25-11-2015 18:55:00 5.3 C 91 % 3.95 C
1957 25-11-2015 19:00:00 5.3 C 91 % 3.95 C
1958 25-11-2015 19:05:00 5.3 C 91 % 3.95 C
1959 25-11-2015 19:10:00 5.3 C 91 % 3.95 C
1960 25-11-2015 19:15:00 5.3 C 91 % 3.95 C
1961 25-11-2015 19:20:00 5.3 C 91 % 3.95 C
1962 25-11-2015 19:25:00 5.3 C 91 % 3.95 C
1963 25-11-2015 19:30:00 5.3 C 91 % 3.95 C
1964 25-11-2015 19:35:00 5.3 C 92 % 4.11 C
1965 25-11-2015 19:40:00 5.3 C 92 % 4.11 C
1966 25-11-2015 19:45:00 5.3 C 92 % 4.11 C
1967 25-11-2015 19:50:00 5.3 C 92 % 4.11 C
1968 25-11-2015 19:55:00 5.3 C 92 % 4.11 C
1969 25-11-2015 20:00:00 5.2 C 92 % 4.01 C
1970 25-11-2015 20:05:00 5.2 C 92 % 4.01 C
1971 25-11-2015 20:10:00 5.2 C 92 % 4.01 C
1972 25-11-2015 20:15:00 5.2 C 92 % 4.01 C
1973 25-11-2015 20:20:00 5.2 C 92 % 4.01 C
1974 25-11-2015 20:25:00 5.2 C 92 % 4.01 C
1975 25-11-2015 20:30:00 5.2 C 92 % 4.01 C
Sensor: Nr:Datum:Temp:Feuchte:Taupunkt:
Aussen-T/F 1976 25-11-2015 20:35:00 5.2 C 92 % 4.01 C
1977 25-11-2015 20:40:00 5.2 C 92 % 4.01 C
1978 25-11-2015 20:45:00 5.2 C 92 % 4.01 C
1979 25-11-2015 20:50:00 5.2 C 93 % 4.16 C
1980 25-11-2015 20:55:00 5.2 C 93 % 4.16 C
1981 25-11-2015 21:00:00 5.2 C 93 % 4.16 C
1982 25-11-2015 21:05:00 5.2 C 93 % 4.16 C
1983 25-11-2015 21:10:00 5.2 C 93 % 4.16 C
1984 25-11-2015 21:15:00 5.2 C 93 % 4.16 C
1985 25-11-2015 21:20:00 5.2 C 93 % 4.16 C
1986 25-11-2015 21:25:00 5.2 C 93 % 4.16 C
1987 25-11-2015 21:30:00 5.3 C 93 % 4.26 C
1988 25-11-2015 21:35:00 5.3 C 93 % 4.26 C
1989 25-11-2015 21:40:00 5.3 C 93 % 4.26 C
1990 25-11-2015 21:45:00 5.3 C 93 % 4.26 C
1991 25-11-2015 21:50:00 5.3 C 93 % 4.26 C
1992 25-11-2015 21:55:00 5.3 C 93 % 4.26 C
1993 25-11-2015 22:00:00 5.3 C 93 % 4.26 C
1994 25-11-2015 22:05:00 5.3 C 93 % 4.26 C
1995 25-11-2015 22:10:00 5.3 C 93 % 4.26 C
1996 25-11-2015 22:15:00 5.3 C 93 % 4.26 C
1997 25-11-2015 22:20:00 5.4 C 93 % 4.36 C
1998 25-11-2015 22:25:00 5.4 C 93 % 4.36 C
1999 25-11-2015 22:30:00 5.4 C 93 % 4.36 C
2000 25-11-2015 22:35:00 5.4 C 93 % 4.36 C
Sensor: Nr:Datum:Temp:Feuchte:Taupunkt:
Aussen-T/F 2001 25-11-2015 22:40:00 5.4 C 93 % 4.36 C
2002 25-11-2015 22:45:00 5.4 C 93 % 4.36 C
2003 25-11-2015 22:50:00 5.4 C 93 % 4.36 C
2004 25-11-2015 22:55:00 5.4 C 93 % 4.36 C
2005 25-11-2015 23:00:00 5.5 C 92 % 4.31 C
2006 25-11-2015 23:05:00 5.5 C 92 % 4.31 C
2007 25-11-2015 23:10:00 5.5 C 92 % 4.31 C
2008 25-11-2015 23:15:00 5.6 C 92 % 4.41 C
2009 25-11-2015 23:20:00 5.6 C 92 % 4.41 C
2010 25-11-2015 23:25:00 5.6 C 92 % 4.41 C
2011 25-11-2015 23:30:00 5.6 C 92 % 4.41 C
2012 25-11-2015 23:35:00 5.6 C 92 % 4.41 C
2013 25-11-2015 23:40:00 5.6 C 92 % 4.41 C
2014 25-11-2015 23:45:00 5.6 C 92 % 4.41 C
2015 25-11-2015 23:50:00 5.6 C 91 % 4.25 C
2016 25-11-2015 23:55:00 5.6 C 91 % 4.25 C
2017 26-11-2015 00:00:00 5.6 C 91 % 4.25 C
2018 26-11-2015 00:05:00 5.7 C 91 % 4.35 C
2019 26-11-2015 00:10:00 5.7 C 91 % 4.35 C
2020 26-11-2015 00:15:00 5.6 C 91 % 4.25 C
2021 26-11-2015 00:20:00 5.6 C 91 % 4.25 C
2022 26-11-2015 00:25:00 5.6 C 91 % 4.25 C
2023 26-11-2015 00:30:00 5.6 C 91 % 4.25 C
2024 26-11-2015 00:35:00 5.6 C 92 % 4.41 C
2025 26-11-2015 00:40:00 5.6 C 92 % 4.41 C
Sensor: Nr:Datum:Temp:Feuchte:Taupunkt:
Aussen-T/F 2026 26-11-2015 00:45:00 5.6 C 92 % 4.41 C
2027 26-11-2015 00:50:00 5.5 C 92 % 4.31 C
2028 26-11-2015 00:55:00 5.5 C 92 % 4.31 C
2029 26-11-2015 01:00:00 5.4 C 92 % 4.21 C
2030 26-11-2015 01:05:00 5.4 C 92 % 4.21 C
2031 26-11-2015 01:10:00 5.4 C 92 % 4.21 C
2032 26-11-2015 01:15:00 5.3 C 92 % 4.11 C
2033 26-11-2015 01:20:00 5.3 C 92 % 4.11 C
2034 26-11-2015 01:25:00 5.3 C 92 % 4.11 C
2035 26-11-2015 01:30:00 5.3 C 92 % 4.11 C
2036 26-11-2015 01:35:00 5.3 C 92 % 4.11 C
2037 26-11-2015 01:40:00 5.3 C 93 % 4.26 C
2038 26-11-2015 01:45:00 5.3 C 93 % 4.26 C
2039 26-11-2015 01:50:00 5.3 C 93 % 4.26 C
2040 26-11-2015 01:55:00 5.3 C 93 % 4.26 C
2041 26-11-2015 02:00:00 5.3 C 93 % 4.26 C
2042 26-11-2015 02:05:00 5.3 C 93 % 4.26 C
2043 26-11-2015 02:10:00 5.3 C 93 % 4.26 C
2044 26-11-2015 02:15:00 5.3 C 93 % 4.26 C
2045 26-11-2015 02:20:00 5.3 C 93 % 4.26 C
2046 26-11-2015 02:25:00 5.3 C 93 % 4.26 C
2047 26-11-2015 02:30:00 5.3 C 93 % 4.26 C
2048 26-11-2015 02:35:00 5.3 C 93 % 4.26 C
2049 26-11-2015 02:40:00 5.3 C 93 % 4.26 C
2050 26-11-2015 02:45:00 5.3 C 93 % 4.26 C
Sensor: Nr:Datum:Temp:Feuchte:Taupunkt:
Aussen-T/F 2051 26-11-2015 02:50:00 5.4 C 93 % 4.36 C
2052 26-11-2015 02:55:00 5.4 C 93 % 4.36 C
2053 26-11-2015 03:00:00 5.4 C 93 % 4.36 C
2054 26-11-2015 03:05:00 5.4 C 93 % 4.36 C
2055 26-11-2015 03:10:00 5.4 C 93 % 4.36 C
2056 26-11-2015 03:15:00 5.4 C 93 % 4.36 C
2057 26-11-2015 03:20:00 5.4 C 93 % 4.36 C
2058 26-11-2015 03:25:00 5.4 C 92 % 4.21 C
2059 26-11-2015 03:30:00 5.4 C 92 % 4.21 C
2060 26-11-2015 03:35:00 5.4 C 92 % 4.21 C
2061 26-11-2015 03:40:00 5.4 C 92 % 4.21 C
2062 26-11-2015 03:45:00 5.4 C 92 % 4.21 C
2063 26-11-2015 03:50:00 5.4 C 92 % 4.21 C
2064 26-11-2015 03:55:00 5.4 C 92 % 4.21 C
2065 26-11-2015 04:00:00 5.5 C 92 % 4.31 C
2066 26-11-2015 04:05:00 5.5 C 92 % 4.31 C
2067 26-11-2015 04:10:00 5.5 C 92 % 4.31 C
2068 26-11-2015 04:15:00 5.6 C 92 % 4.41 C
2069 26-11-2015 04:20:00 5.6 C 92 % 4.41 C
2070 26-11-2015 04:25:00 5.5 C 92 % 4.31 C
2071 26-11-2015 04:30:00 5.5 C 92 % 4.31 C
2072 26-11-2015 04:35:00 5.4 C 93 % 4.36 C
2073 26-11-2015 04:40:00 5.4 C 93 % 4.36 C
2074 26-11-2015 04:45:00 5.4 C 93 % 4.36 C
2075 26-11-2015 04:50:00 5.4 C 93 % 4.36 C
Sensor: Nr:Datum:Temp:Feuchte:Taupunkt:
Aussen-T/F 2076 26-11-2015 04:55:00 5.4 C 93 % 4.36 C
2077 26-11-2015 05:00:00 5.4 C 93 % 4.36 C
2078 26-11-2015 05:05:00 5.4 C 93 % 4.36 C
2079 26-11-2015 05:10:00 5.4 C 93 % 4.36 C
2080 26-11-2015 05:15:00 5.3 C 93 % 4.26 C
2081 26-11-2015 05:20:00 5.3 C 93 % 4.26 C
2082 26-11-2015 05:25:00 5.3 C 94 % 4.41 C
2083 26-11-2015 05:30:00 5.3 C 94 % 4.41 C
2084 26-11-2015 05:35:00 5.3 C 94 % 4.41 C
2085 26-11-2015 05:40:00 5.3 C 94 % 4.41 C
2086 26-11-2015 05:45:00 5.3 C 94 % 4.41 C
2087 26-11-2015 05:50:00 5.3 C 94 % 4.41 C
2088 26-11-2015 05:55:00 5.3 C 94 % 4.41 C
2089 26-11-2015 06:00:00 5.3 C 94 % 4.41 C
2090 26-11-2015 06:05:00 5.3 C 94 % 4.41 C
2091 26-11-2015 06:10:00 5.3 C 94 % 4.41 C
2092 26-11-2015 06:15:00 5.3 C 94 % 4.41 C
2093 26-11-2015 06:20:00 5.3 C 94 % 4.41 C
2094 26-11-2015 06:25:00 5.3 C 94 % 4.41 C
2095 26-11-2015 06:30:00 5.3 C 94 % 4.41 C
2096 26-11-2015 06:35:00 5.3 C 94 % 4.41 C
2097 26-11-2015 06:40:00 5.3 C 94 % 4.41 C
2098 26-11-2015 06:45:00 5.3 C 94 % 4.41 C
2099 26-11-2015 06:50:00 5.3 C 94 % 4.41 C
2100 26-11-2015 06:55:00 5.3 C 94 % 4.41 C
Sensor: Nr:Datum:Temp:Feuchte:Taupunkt:
Aussen-T/F 2101 26-11-2015 07:00:00 5.3 C 94 % 4.41 C
2102 26-11-2015 07:05:00 5.3 C 94 % 4.41 C
2103 26-11-2015 07:10:00 5.3 C 94 % 4.41 C
2104 26-11-2015 07:15:00 5.2 C 94 % 4.32 C
2105 26-11-2015 07:20:00 5.2 C 94 % 4.32 C
2106 26-11-2015 07:25:00 5.2 C 94 % 4.32 C
2107 26-11-2015 07:30:00 5.2 C 94 % 4.32 C
2108 26-11-2015 07:35:00 5.1 C 94 % 4.22 C
2109 26-11-2015 07:40:00 5.1 C 94 % 4.22 C
2110 26-11-2015 07:45:00 5.1 C 94 % 4.22 C
2111 26-11-2015 07:50:00 5.1 C 94 % 4.22 C
2112 26-11-2015 07:55:00 5.1 C 94 % 4.22 C
2113 26-11-2015 08:00:00 5.1 C 94 % 4.22 C
2114 26-11-2015 08:05:00 5.1 C 94 % 4.22 C
2115 26-11-2015 08:10:00 5.1 C 94 % 4.22 C
2116 26-11-2015 08:15:00 5.1 C 94 % 4.22 C
2117 26-11-2015 08:20:00 5.1 C 94 % 4.22 C
2118 26-11-2015 08:25:00 5.1 C 94 % 4.22 C
2119 26-11-2015 08:30:00 5.1 C 94 % 4.22 C
2120 26-11-2015 08:35:00 5 C 94 % 4.12 C
2121 26-11-2015 08:40:00 5 C 94 % 4.12 C
2122 26-11-2015 08:45:00 5 C 94 % 4.12 C
2123 26-11-2015 08:50:00 5.1 C 94 % 4.22 C
2124 26-11-2015 08:55:00 5.1 C 94 % 4.22 C
2125 26-11-2015 09:00:00 5.1 C 94 % 4.22 C
Sensor: Nr:Datum:Temp:Feuchte:Taupunkt:
Aussen-T/F 2126 26-11-2015 09:05:00 5.1 C 94 % 4.22 C
2127 26-11-2015 09:10:00 5.1 C 94 % 4.22 C
2128 26-11-2015 09:15:00 5.1 C 94 % 4.22 C
2129 26-11-2015 09:20:00 5.1 C 93 % 4.06 C
2130 26-11-2015 09:25:00 5.1 C 93 % 4.06 C
2131 26-11-2015 09:30:00 5.2 C 93 % 4.16 C
2132 26-11-2015 09:35:00 5.2 C 93 % 4.16 C
2133 26-11-2015 09:40:00 5.2 C 93 % 4.16 C
2134 26-11-2015 09:45:00 5.2 C 93 % 4.16 C
2135 26-11-2015 09:50:00 5.2 C 93 % 4.16 C
2136 26-11-2015 09:55:00 5.2 C 93 % 4.16 C
2137 26-11-2015 10:00:00 5.2 C 93 % 4.16 C
2138 26-11-2015 10:05:00 5.1 C 93 % 4.06 C
2139 26-11-2015 10:10:00 5.1 C 93 % 4.06 C
2140 26-11-2015 10:15:00 5.2 C 93 % 4.16 C
2141 26-11-2015 10:20:00 5.2 C 93 % 4.16 C
2142 26-11-2015 10:25:00 5.2 C 93 % 4.16 C
2143 26-11-2015 10:30:00 5.2 C 93 % 4.16 C
2144 26-11-2015 10:35:00 5.3 C 93 % 4.26 C
2145 26-11-2015 10:40:00 5.3 C 93 % 4.26 C
2146 26-11-2015 10:45:00 5.3 C 93 % 4.26 C
2147 26-11-2015 10:50:00 5.4 C 92 % 4.21 C
2148 26-11-2015 10:55:00 5.4 C 92 % 4.21 C
2149 26-11-2015 11:00:00 5.4 C 92 % 4.21 C
2150 26-11-2015 11:05:00 5.4 C 92 % 4.21 C
Sensor: Nr:Datum:Temp:Feuchte:Taupunkt:
Aussen-T/F 2151 26-11-2015 11:10:00 5.4 C 92 % 4.21 C
2152 26-11-2015 11:15:00 5.4 C 92 % 4.21 C
2153 26-11-2015 11:20:00 5.4 C 92 % 4.21 C
2154 26-11-2015 11:25:00 5.3 C 92 % 4.11 C
2155 26-11-2015 11:30:00 5.3 C 92 % 4.11 C
2156 26-11-2015 11:35:00 5.4 C 92 % 4.21 C
2157 26-11-2015 11:40:00 5.4 C 92 % 4.21 C
2158 26-11-2015 11:45:00 5.4 C 92 % 4.21 C
2159 26-11-2015 11:50:00 5.4 C 92 % 4.21 C
2160 26-11-2015 11:55:00 5.4 C 91 % 4.05 C
2161 26-11-2015 12:00:00 5.4 C 92 % 4.21 C
2162 26-11-2015 12:05:00 5.4 C 91 % 4.05 C
2163 26-11-2015 12:10:00 5.4 C 91 % 4.05 C
2164 26-11-2015 12:15:00 5.4 C 91 % 4.05 C
2165 26-11-2015 12:20:00 5.4 C 91 % 4.05 C
2166 26-11-2015 12:25:00 5.5 C 92 % 4.31 C
2167 26-11-2015 12:30:00 5.6 C 92 % 4.41 C
2168 26-11-2015 12:35:00 5.7 C 91 % 4.35 C
2169 26-11-2015 12:40:00 5.7 C 91 % 4.35 C
2170 26-11-2015 12:45:00 5.7 C 91 % 4.35 C
2171 26-11-2015 12:50:00 5.7 C 90 % 4.19 C
2172 26-11-2015 12:55:00 5.7 C 90 % 4.19 C
2173 26-11-2015 13:00:00 5.7 C 90 % 4.19 C
2174 26-11-2015 13:05:00 5.8 C 90 % 4.29 C
2175 26-11-2015 13:10:00 5.7 C 90 % 4.19 C
Sensor: Nr:Datum:Temp:Feuchte:Taupunkt:
Aussen-T/F 2176 26-11-2015 13:15:00 5.8 C 90 % 4.29 C
2177 26-11-2015 13:20:00 5.8 C 90 % 4.29 C
2178 26-11-2015 13:25:00 5.8 C 90 % 4.29 C
2179 26-11-2015 13:30:00 5.8 C 90 % 4.29 C
2180 26-11-2015 13:35:00 5.8 C 89 % 4.13 C
2181 26-11-2015 13:40:00 5.8 C 89 % 4.13 C
2182 26-11-2015 13:45:00 5.9 C 89 % 4.23 C
2183 26-11-2015 13:50:00 5.9 C 89 % 4.23 C
2184 26-11-2015 13:55:00 6 C 88 % 4.17 C
2185 26-11-2015 14:00:00 6.1 C 87 % 4.1 C
2186 26-11-2015 14:05:00 6.1 C 87 % 4.1 C
2187 26-11-2015 14:10:00 6.2 C 87 % 4.2 C
2188 26-11-2015 14:15:00 6.2 C 87 % 4.2 C
2189 26-11-2015 14:20:00 6.2 C 86 % 4.04 C
2190 26-11-2015 14:25:00 6.2 C 87 % 4.2 C
2191 26-11-2015 14:30:00 6.3 C 86 % 4.14 C
2192 26-11-2015 14:35:00 6.3 C 87 % 4.3 C
2193 26-11-2015 14:40:00 6.3 C 87 % 4.3 C
2194 26-11-2015 14:45:00 6.3 C 86 % 4.14 C
2195 26-11-2015 14:50:00 6.4 C 86 % 4.23 C
2196 26-11-2015 14:55:00 6.4 C 87 % 4.4 C
2197 26-11-2015 15:00:00 6.4 C 87 % 4.4 C
2198 26-11-2015 15:05:00 6.4 C 87 % 4.4 C
2199 26-11-2015 15:10:00 6.4 C 87 % 4.4 C
2200 26-11-2015 15:15:00 6.4 C 88 % 4.56 C
Sensor: Nr:Datum:Temp:Feuchte:Taupunkt:
Aussen-T/F 2201 26-11-2015 15:20:00 6.4 C 88 % 4.56 C
2202 26-11-2015 15:25:00 6.4 C 88 % 4.56 C
2203 26-11-2015 15:30:00 6.4 C 88 % 4.56 C
2204 26-11-2015 15:35:00 6.4 C 88 % 4.56 C
2205 26-11-2015 15:40:00 6.4 C 88 % 4.56 C
2206 26-11-2015 15:45:00 6.4 C 88 % 4.56 C
2207 26-11-2015 15:50:00 6.4 C 88 % 4.56 C
2208 26-11-2015 15:55:00 6.4 C 88 % 4.56 C
2209 26-11-2015 16:00:00 6.4 C 88 % 4.56 C
2210 26-11-2015 16:05:00 6.4 C 88 % 4.56 C
2211 26-11-2015 16:10:00 6.3 C 88 % 4.46 C
2212 26-11-2015 16:15:00 6.2 C 89 % 4.53 C
2213 26-11-2015 16:20:00 6 C 89 % 4.33 C
2214 26-11-2015 16:25:00 5.9 C 90 % 4.39 C
2215 26-11-2015 16:30:00 5.9 C 91 % 4.55 C
2216 26-11-2015 16:35:00 5.8 C 91 % 4.45 C
2217 26-11-2015 16:40:00 5.8 C 91 % 4.45 C
2218 26-11-2015 16:45:00 5.8 C 92 % 4.6 C
2219 26-11-2015 16:50:00 5.8 C 92 % 4.6 C
2220 26-11-2015 16:55:00 5.7 C 91 % 4.35 C
2221 26-11-2015 17:00:00 5.7 C 92 % 4.5 C
2222 26-11-2015 17:05:00 5.6 C 92 % 4.41 C
2223 26-11-2015 17:10:00 5.5 C 92 % 4.31 C
2224 26-11-2015 17:15:00 5.5 C 92 % 4.31 C
2225 26-11-2015 17:20:00 5.5 C 92 % 4.31 C
Sensor: Nr:Datum:Temp:Feuchte:Taupunkt:
Aussen-T/F 2226 26-11-2015 17:25:00 5.5 C 93 % 4.46 C
2227 26-11-2015 17:30:00 5.5 C 93 % 4.46 C
2228 26-11-2015 17:35:00 5.5 C 93 % 4.46 C
2229 26-11-2015 17:40:00 5.4 C 93 % 4.36 C
2230 26-11-2015 17:45:00 5.4 C 93 % 4.36 C
2231 26-11-2015 17:50:00 5.3 C 92 % 4.11 C
2232 26-11-2015 17:55:00 5.2 C 92 % 4.01 C
2233 26-11-2015 18:00:00 5.1 C 92 % 3.91 C
2234 26-11-2015 18:05:00 5 C 92 % 3.81 C
2235 26-11-2015 18:10:00 4.9 C 93 % 3.87 C
2236 26-11-2015 18:15:00 4.9 C 93 % 3.87 C
2237 26-11-2015 18:20:00 4.9 C 93 % 3.87 C
2238 26-11-2015 18:25:00 4.8 C 93 % 3.77 C
2239 26-11-2015 18:30:00 4.8 C 93 % 3.77 C
2240 26-11-2015 18:35:00 4.7 C 93 % 3.67 C
2241 26-11-2015 18:40:00 4.5 C 93 % 3.47 C
2242 26-11-2015 18:45:00 4.4 C 93 % 3.37 C
2243 26-11-2015 18:50:00 4.3 C 93 % 3.27 C
2244 26-11-2015 18:55:00 4.2 C 93 % 3.17 C
2245 26-11-2015 19:00:00 4 C 93 % 2.97 C
2246 26-11-2015 19:05:00 3.9 C 93 % 2.87 C
2247 26-11-2015 19:10:00 3.8 C 93 % 2.77 C
2248 26-11-2015 19:15:00 3.7 C 93 % 2.68 C
2249 26-11-2015 19:20:00 3.7 C 94 % 2.83 C
2250 26-11-2015 19:25:00 3.7 C 94 % 2.83 C
Sensor: Nr:Datum:Temp:Feuchte:Taupunkt:
Aussen-T/F 2251 26-11-2015 19:30:00 3.8 C 94 % 2.93 C
2252 26-11-2015 19:35:00 3.8 C 94 % 2.93 C
2253 26-11-2015 19:40:00 3.9 C 95 % 3.17 C
2254 26-11-2015 19:45:00 4 C 95 % 3.27 C
2255 26-11-2015 19:50:00 4 C 95 % 3.27 C
2256 26-11-2015 19:55:00 3.9 C 95 % 3.17 C
2257 26-11-2015 20:00:00 3.9 C 95 % 3.17 C
2258 26-11-2015 20:05:00 3.8 C 94 % 2.93 C
2259 26-11-2015 20:10:00 3.7 C 94 % 2.83 C
2260 26-11-2015 20:15:00 3.6 C 94 % 2.73 C
2261 26-11-2015 20:20:00 3.5 C 95 % 2.78 C
2262 26-11-2015 20:25:00 3.5 C 95 % 2.78 C
2263 26-11-2015 20:30:00 3.5 C 95 % 2.78 C
2264 26-11-2015 20:35:00 3.5 C 95 % 2.78 C
2265 26-11-2015 20:40:00 3.4 C 95 % 2.68 C
2266 26-11-2015 20:45:00 3.3 C 95 % 2.58 C
2267 26-11-2015 20:50:00 3.2 C 95 % 2.48 C
2268 26-11-2015 20:55:00 3.2 C 95 % 2.48 C
2269 26-11-2015 21:00:00 3.1 C 95 % 2.38 C
2270 26-11-2015 21:05:00 3.1 C 95 % 2.38 C
2271 26-11-2015 21:10:00 2.9 C 95 % 2.18 C
2272 26-11-2015 21:15:00 2.8 C 95 % 2.08 C
2273 26-11-2015 21:20:00 2.7 C 95 % 1.98 C
2274 26-11-2015 21:25:00 2.6 C 95 % 1.88 C
2275 26-11-2015 21:30:00 2.4 C 94 % 1.54 C
Sensor: Nr:Datum:Temp:Feuchte:Taupunkt:
Aussen-T/F 2276 26-11-2015 21:35:00 2.3 C 95 % 1.58 C
2277 26-11-2015 21:40:00 2.3 C 95 % 1.58 C
2278 26-11-2015 21:45:00 2.3 C 95 % 1.58 C
2279 26-11-2015 21:50:00 2.4 C 95 % 1.68 C
2280 26-11-2015 21:55:00 2.4 C 95 % 1.68 C
2281 26-11-2015 22:00:00 2.3 C 95 % 1.58 C
2282 26-11-2015 22:05:00 2.2 C 95 % 1.48 C
2283 26-11-2015 22:10:00 2.1 C 95 % 1.38 C
2284 26-11-2015 22:15:00 2 C 95 % 1.29 C
2285 26-11-2015 22:20:00 1.8 C 95 % 1.09 C
2286 26-11-2015 22:25:00 1.8 C 95 % 1.09 C
2287 26-11-2015 22:30:00 1.7 C 95 % 0.99 C
2288 26-11-2015 22:35:00 1.6 C 95 % 0.89 C
2289 26-11-2015 22:40:00 1.6 C 95 % 0.89 C
2290 26-11-2015 22:45:00 1.6 C 96 % 1.03 C
2291 26-11-2015 22:50:00 1.7 C 96 % 1.13 C
2292 26-11-2015 22:55:00 1.8 C 96 % 1.23 C
2293 26-11-2015 23:00:00 1.9 C 96 % 1.33 C
2294 26-11-2015 23:05:00 2.1 C 96 % 1.53 C
2295 26-11-2015 23:10:00 2.2 C 96 % 1.63 C
2296 26-11-2015 23:15:00 2.3 C 96 % 1.73 C
2297 26-11-2015 23:20:00 2.4 C 96 % 1.83 C
2298 26-11-2015 23:25:00 2.5 C 96 % 1.93 C
2299 26-11-2015 23:30:00 2.5 C 96 % 1.93 C
2300 26-11-2015 23:35:00 2.5 C 96 % 1.93 C
Sensor: Nr:Datum:Temp:Feuchte:Taupunkt:
Aussen-T/F 2301 26-11-2015 23:40:00 2.4 C 96 % 1.83 C
2302 26-11-2015 23:45:00 2.4 C 96 % 1.83 C
2303 26-11-2015 23:50:00 2.5 C 96 % 1.93 C
2304 26-11-2015 23:55:00 2.6 C 96 % 2.03 C
2305 27-11-2015 00:00:00 2.6 C 96 % 2.03 C
2306 27-11-2015 00:05:00 2.7 C 96 % 2.13 C
2307 27-11-2015 00:10:00 2.7 C 96 % 2.13 C
2308 27-11-2015 00:15:00 2.7 C 96 % 2.13 C
2309 27-11-2015 00:20:00 2.7 C 96 % 2.13 C
2310 27-11-2015 00:25:00 2.6 C 96 % 2.03 C
2311 27-11-2015 00:30:00 2.6 C 96 % 2.03 C
2312 27-11-2015 00:35:00 2.6 C 96 % 2.03 C
2313 27-11-2015 00:40:00 2.5 C 96 % 1.93 C
2314 27-11-2015 00:45:00 2.5 C 96 % 1.93 C
2315 27-11-2015 00:50:00 2.5 C 96 % 1.93 C
2316 27-11-2015 00:55:00 2.5 C 96 % 1.93 C
2317 27-11-2015 01:00:00 2.5 C 96 % 1.93 C
2318 27-11-2015 01:05:00 2.5 C 96 % 1.93 C
2319 27-11-2015 01:10:00 2.5 C 96 % 1.93 C
2320 27-11-2015 01:15:00 2.5 C 96 % 1.93 C
2321 27-11-2015 01:20:00 2.4 C 96 % 1.83 C
2322 27-11-2015 01:25:00 2.4 C 96 % 1.83 C
2323 27-11-2015 01:30:00 2.4 C 96 % 1.83 C
2324 27-11-2015 01:35:00 2.4 C 96 % 1.83 C
2325 27-11-2015 01:40:00 2.4 C 96 % 1.83 C
Sensor: Nr:Datum:Temp:Feuchte:Taupunkt:
Aussen-T/F 2326 27-11-2015 01:45:00 2.4 C 96 % 1.83 C
2327 27-11-2015 01:50:00 2.3 C 96 % 1.73 C
2328 27-11-2015 01:55:00 2.3 C 96 % 1.73 C
2329 27-11-2015 02:00:00 2.3 C 96 % 1.73 C
2330 27-11-2015 02:05:00 2.3 C 96 % 1.73 C
2331 27-11-2015 02:10:00 2.2 C 96 % 1.63 C
2332 27-11-2015 02:15:00 2.2 C 96 % 1.63 C
2333 27-11-2015 02:20:00 2.2 C 96 % 1.63 C
2334 27-11-2015 02:25:00 2.1 C 96 % 1.53 C
2335 27-11-2015 02:30:00 2.1 C 96 % 1.53 C
2336 27-11-2015 02:35:00 2 C 96 % 1.43 C
2337 27-11-2015 02:40:00 2 C 96 % 1.43 C
2338 27-11-2015 02:45:00 1.9 C 96 % 1.33 C
2339 27-11-2015 02:50:00 1.9 C 96 % 1.33 C
2340 27-11-2015 02:55:00 1.9 C 96 % 1.33 C
2341 27-11-2015 03:00:00 1.9 C 96 % 1.33 C
2342 27-11-2015 03:05:00 1.8 C 96 % 1.23 C
2343 27-11-2015 03:10:00 1.8 C 96 % 1.23 C
2344 27-11-2015 03:15:00 1.7 C 96 % 1.13 C
2345 27-11-2015 03:20:00 1.7 C 96 % 1.13 C
2346 27-11-2015 03:25:00 1.6 C 96 % 1.03 C
2347 27-11-2015 03:30:00 1.4 C 96 % 0.83 C
2348 27-11-2015 03:35:00 1.4 C 96 % 0.83 C
2349 27-11-2015 03:40:00 1.4 C 96 % 0.83 C
2350 27-11-2015 03:45:00 1.4 C 96 % 0.83 C
Sensor: Nr:Datum:Temp:Feuchte:Taupunkt:
Aussen-T/F 2351 27-11-2015 03:50:00 1.4 C 96 % 0.83 C
2352 27-11-2015 03:55:00 1.3 C 97 % 0.88 C
2353 27-11-2015 04:00:00 1.3 C 97 % 0.88 C
2354 27-11-2015 04:05:00 1.3 C 97 % 0.88 C
2355 27-11-2015 04:10:00 1.3 C 97 % 0.88 C
2356 27-11-2015 04:15:00 1.3 C 97 % 0.88 C
2357 27-11-2015 04:20:00 1.2 C 96 % 0.63 C
2358 27-11-2015 04:25:00 1.2 C 96 % 0.63 C
2359 27-11-2015 04:30:00 1.2 C 96 % 0.63 C
2360 27-11-2015 04:35:00 1.2 C 96 % 0.63 C
2361 27-11-2015 04:40:00 1.1 C 97 % 0.68 C
2362 27-11-2015 04:45:00 1.1 C 97 % 0.68 C
2363 27-11-2015 04:50:00 1.1 C 97 % 0.68 C
2364 27-11-2015 04:55:00 1.1 C 97 % 0.68 C
2365 27-11-2015 05:00:00 1.1 C 97 % 0.68 C
2366 27-11-2015 05:05:00 1.1 C 97 % 0.68 C
2367 27-11-2015 05:10:00 1.1 C 97 % 0.68 C
2368 27-11-2015 05:15:00 1.1 C 97 % 0.68 C
2369 27-11-2015 05:20:00 1.1 C 97 % 0.68 C
2370 27-11-2015 05:25:00 1.1 C 97 % 0.68 C
2371 27-11-2015 05:30:00 1.1 C 97 % 0.68 C
2372 27-11-2015 05:35:00 1.1 C 97 % 0.68 C
2373 27-11-2015 05:40:00 1.1 C 97 % 0.68 C
2374 27-11-2015 05:45:00 1.1 C 97 % 0.68 C
2375 27-11-2015 05:50:00 1 C 97 % 0.58 C
Sensor: Nr:Datum:Temp:Feuchte:Taupunkt:
Aussen-T/F 2376 27-11-2015 05:55:00 1.1 C 97 % 0.68 C
2377 27-11-2015 06:00:00 1.1 C 97 % 0.68 C
2378 27-11-2015 06:05:00 1.1 C 97 % 0.68 C
2379 27-11-2015 06:10:00 1.1 C 97 % 0.68 C
2380 27-11-2015 06:15:00 1.1 C 97 % 0.68 C
2381 27-11-2015 06:20:00 1.2 C 97 % 0.78 C
2382 27-11-2015 06:25:00 1.2 C 97 % 0.78 C
2383 27-11-2015 06:30:00 1.2 C 97 % 0.78 C
2384 27-11-2015 06:35:00 1.3 C 97 % 0.88 C
2385 27-11-2015 06:40:00 1.3 C 97 % 0.88 C
2386 27-11-2015 06:45:00 1.3 C 97 % 0.88 C
2387 27-11-2015 06:50:00 1.3 C 97 % 0.88 C
2388 27-11-2015 06:55:00 1.4 C 97 % 0.98 C
2389 27-11-2015 07:00:00 1.4 C 97 % 0.98 C
2390 27-11-2015 07:05:00 1.4 C 97 % 0.98 C
2391 27-11-2015 07:10:00 1.4 C 97 % 0.98 C
2392 27-11-2015 07:15:00 1.4 C 97 % 0.98 C
2393 27-11-2015 07:20:00 1.5 C 97 % 1.08 C
2394 27-11-2015 07:25:00 1.5 C 97 % 1.08 C
2395 27-11-2015 07:30:00 1.6 C 97 % 1.18 C
2396 27-11-2015 07:35:00 1.6 C 97 % 1.18 C
2397 27-11-2015 07:40:00 1.6 C 97 % 1.18 C
2398 27-11-2015 07:45:00 1.6 C 97 % 1.18 C
2399 27-11-2015 07:50:00 1.7 C 97 % 1.28 C
2400 27-11-2015 07:55:00 1.6 C 97 % 1.18 C
Sensor: Nr:Datum:Temp:Feuchte:Taupunkt:
Aussen-T/F 2401 27-11-2015 08:00:00 1.6 C 97 % 1.18 C
2402 27-11-2015 08:05:00 1.6 C 97 % 1.18 C
2403 27-11-2015 08:10:00 1.7 C 97 % 1.28 C
2404 27-11-2015 08:15:00 1.7 C 97 % 1.28 C
2405 27-11-2015 08:20:00 1.7 C 97 % 1.28 C
2406 27-11-2015 08:25:00 1.7 C 97 % 1.28 C
2407 27-11-2015 08:30:00 1.7 C 97 % 1.28 C
2408 27-11-2015 08:35:00 1.7 C 97 % 1.28 C
2409 27-11-2015 08:40:00 1.7 C 97 % 1.28 C
2410 27-11-2015 08:45:00 1.7 C 97 % 1.28 C
2411 27-11-2015 08:50:00 1.6 C 97 % 1.18 C
2412 27-11-2015 08:55:00 1.7 C 97 % 1.28 C
2413 27-11-2015 09:00:00 1.7 C 97 % 1.28 C
2414 27-11-2015 09:05:00 1.7 C 97 % 1.28 C
2415 27-11-2015 09:10:00 1.7 C 97 % 1.28 C
2416 27-11-2015 09:15:00 1.7 C 97 % 1.28 C
2417 27-11-2015 09:20:00 1.7 C 97 % 1.28 C
2418 27-11-2015 09:25:00 1.7 C 97 % 1.28 C
2419 27-11-2015 09:30:00 1.7 C 97 % 1.28 C
2420 27-11-2015 09:35:00 1.7 C 97 % 1.28 C
2421 27-11-2015 09:40:00 1.7 C 97 % 1.28 C
2422 27-11-2015 09:45:00 1.8 C 97 % 1.38 C
2423 27-11-2015 09:50:00 1.7 C 97 % 1.28 C
2424 27-11-2015 09:55:00 1.7 C 97 % 1.28 C
2425 27-11-2015 10:00:00 1.7 C 97 % 1.28 C
Sensor: Nr:Datum:Temp:Feuchte:Taupunkt:
Aussen-T/F 2426 27-11-2015 10:05:00 1.7 C 97 % 1.28 C
2427 27-11-2015 10:10:00 1.7 C 97 % 1.28 C
2428 27-11-2015 10:15:00 1.7 C 97 % 1.28 C
2429 27-11-2015 10:20:00 1.7 C 97 % 1.28 C
2430 27-11-2015 10:25:00 1.7 C 97 % 1.28 C
2431 27-11-2015 10:30:00 1.7 C 97 % 1.28 C
2432 27-11-2015 10:35:00 1.7 C 97 % 1.28 C
2433 27-11-2015 10:40:00 1.7 C 97 % 1.28 C
2434 27-11-2015 10:45:00 1.6 C 97 % 1.18 C
2435 27-11-2015 10:50:00 1.6 C 97 % 1.18 C
2436 27-11-2015 10:55:00 1.5 C 97 % 1.08 C
2437 27-11-2015 11:00:00 1.5 C 97 % 1.08 C
2438 27-11-2015 11:05:00 1.6 C 97 % 1.18 C
2439 27-11-2015 11:10:00 1.6 C 97 % 1.18 C
2440 27-11-2015 11:15:00 1.7 C 97 % 1.28 C
2441 27-11-2015 11:20:00 1.8 C 97 % 1.38 C
2442 27-11-2015 11:25:00 1.8 C 97 % 1.38 C
2443 27-11-2015 11:30:00 1.9 C 97 % 1.48 C
2444 27-11-2015 11:35:00 2 C 97 % 1.58 C
2445 27-11-2015 11:40:00 2.1 C 97 % 1.67 C
2446 27-11-2015 11:45:00 2.1 C 97 % 1.67 C
2447 27-11-2015 11:50:00 2.2 C 97 % 1.77 C
2448 27-11-2015 11:55:00 2.2 C 97 % 1.77 C
2449 27-11-2015 12:00:00 2.3 C 97 % 1.87 C
2450 27-11-2015 12:05:00 2.3 C 97 % 1.87 C
Sensor: Nr:Datum:Temp:Feuchte:Taupunkt:
Aussen-T/F 2451 27-11-2015 12:10:00 2.3 C 97 % 1.87 C
2452 27-11-2015 12:15:00 2.3 C 97 % 1.87 C
2453 27-11-2015 12:20:00 2.4 C 97 % 1.97 C
2454 27-11-2015 12:25:00 2.4 C 97 % 1.97 C
2455 27-11-2015 12:30:00 2.4 C 96 % 1.83 C
2456 27-11-2015 12:35:00 2.6 C 97 % 2.17 C
2457 27-11-2015 12:40:00 2.6 C 97 % 2.17 C
2458 27-11-2015 12:45:00 2.7 C 96 % 2.13 C
2459 27-11-2015 12:50:00 2.7 C 96 % 2.13 C
2460 27-11-2015 12:55:00 2.8 C 96 % 2.23 C
2461 27-11-2015 13:00:00 2.8 C 96 % 2.23 C
2462 27-11-2015 13:05:00 2.8 C 96 % 2.23 C
2463 27-11-2015 13:10:00 2.9 C 96 % 2.33 C
2464 27-11-2015 13:15:00 3 C 96 % 2.43 C
2465 27-11-2015 13:20:00 3 C 96 % 2.43 C
2466 27-11-2015 13:25:00 3.1 C 96 % 2.53 C
2467 27-11-2015 13:30:00 3.2 C 96 % 2.63 C
2468 27-11-2015 13:35:00 3.2 C 96 % 2.63 C
2469 27-11-2015 13:40:00 3.2 C 96 % 2.63 C
2470 27-11-2015 13:45:00 3.3 C 95 % 2.58 C
2471 27-11-2015 13:50:00 3.4 C 95 % 2.68 C
2472 27-11-2015 13:55:00 3.5 C 95 % 2.78 C
2473 27-11-2015 14:00:00 3.5 C 95 % 2.78 C
2474 27-11-2015 14:05:00 3.6 C 95 % 2.88 C
2475 27-11-2015 14:10:00 3.6 C 95 % 2.88 C
Sensor: Nr:Datum:Temp:Feuchte:Taupunkt:
Aussen-T/F 2476 27-11-2015 14:15:00 3.6 C 94 % 2.73 C
2477 27-11-2015 14:20:00 3.7 C 94 % 2.83 C
2478 27-11-2015 14:25:00 3.8 C 94 % 2.93 C
2479 27-11-2015 14:30:00 3.9 C 94 % 3.02 C
2480 27-11-2015 14:35:00 3.9 C 94 % 3.02 C
2481 27-11-2015 14:40:00 4 C 94 % 3.12 C
2482 27-11-2015 14:45:00 4.1 C 94 % 3.22 C
2483 27-11-2015 14:50:00 4.1 C 93 % 3.07 C
2484 27-11-2015 14:55:00 4.1 C 93 % 3.07 C
2485 27-11-2015 15:00:00 4.1 C 93 % 3.07 C
2486 27-11-2015 15:05:00 4.1 C 93 % 3.07 C
2487 27-11-2015 15:10:00 4.1 C 93 % 3.07 C
2488 27-11-2015 15:15:00 4.1 C 93 % 3.07 C
2489 27-11-2015 15:20:00 4 C 93 % 2.97 C
2490 27-11-2015 15:25:00 4 C 93 % 2.97 C
2491 27-11-2015 15:30:00 4 C 93 % 2.97 C
2492 27-11-2015 15:35:00 4.1 C 93 % 3.07 C
2493 27-11-2015 15:40:00 4 C 93 % 2.97 C
2494 27-11-2015 15:45:00 4 C 93 % 2.97 C
2495 27-11-2015 15:50:00 3.9 C 92 % 2.72 C
2496 27-11-2015 15:55:00 3.9 C 92 % 2.72 C
2497 27-11-2015 16:00:00 3.9 C 93 % 2.87 C
2498 27-11-2015 16:05:00 3.8 C 93 % 2.77 C
2499 27-11-2015 16:10:00 3.8 C 93 % 2.77 C
2500 27-11-2015 16:15:00 3.7 C 93 % 2.68 C
Sensor: Nr:Datum:Temp:Feuchte:Taupunkt:
Aussen-T/F 2501 27-11-2015 16:20:00 3.7 C 93 % 2.68 C
2502 27-11-2015 16:25:00 3.7 C 93 % 2.68 C
2503 27-11-2015 16:30:00 3.6 C 93 % 2.58 C
2504 27-11-2015 16:35:00 3.6 C 93 % 2.58 C
2505 27-11-2015 16:40:00 3.5 C 93 % 2.48 C
2506 27-11-2015 16:45:00 3.5 C 93 % 2.48 C
2507 27-11-2015 16:50:00 3.4 C 93 % 2.38 C
2508 27-11-2015 16:55:00 3.4 C 93 % 2.38 C
2509 27-11-2015 17:00:00 3.4 C 93 % 2.38 C
2510 27-11-2015 17:05:00 3.3 C 93 % 2.28 C
2511 27-11-2015 17:10:00 3.2 C 93 % 2.18 C
2512 27-11-2015 17:15:00 3.2 C 93 % 2.18 C
2513 27-11-2015 17:20:00 3.2 C 93 % 2.18 C
2514 27-11-2015 17:25:00 3.2 C 94 % 2.33 C
2515 27-11-2015 17:30:00 3.2 C 94 % 2.33 C
2516 27-11-2015 17:35:00 3.2 C 94 % 2.33 C
2517 27-11-2015 17:40:00 3.3 C 94 % 2.43 C
2518 27-11-2015 17:45:00 3.2 C 94 % 2.33 C
2519 27-11-2015 17:50:00 3.2 C 94 % 2.33 C
2520 27-11-2015 17:55:00 3.2 C 93 % 2.18 C
2521 27-11-2015 18:00:00 3.2 C 93 % 2.18 C
2522 27-11-2015 18:05:00 3.2 C 93 % 2.18 C
2523 27-11-2015 18:10:00 3.1 C 93 % 2.08 C
2524 27-11-2015 18:15:00 3.1 C 93 % 2.08 C
2525 27-11-2015 18:20:00 3 C 93 % 1.98 C
Sensor: Nr:Datum:Temp:Feuchte:Taupunkt:
Aussen-T/F 2526 27-11-2015 18:25:00 3 C 92 % 1.83 C
2527 27-11-2015 18:30:00 2.9 C 92 % 1.73 C
2528 27-11-2015 18:35:00 2.9 C 92 % 1.73 C
2529 27-11-2015 18:40:00 2.9 C 92 % 1.73 C
2530 27-11-2015 18:45:00 2.9 C 92 % 1.73 C
2531 27-11-2015 18:50:00 2.8 C 92 % 1.63 C
2532 27-11-2015 18:55:00 2.8 C 92 % 1.63 C
2533 27-11-2015 19:00:00 2.8 C 92 % 1.63 C
2534 27-11-2015 19:05:00 2.8 C 92 % 1.63 C
2535 27-11-2015 19:10:00 2.8 C 92 % 1.63 C
2536 27-11-2015 19:15:00 2.8 C 91 % 1.48 C
2537 27-11-2015 19:20:00 2.8 C 91 % 1.48 C
2538 27-11-2015 19:25:00 2.8 C 91 % 1.48 C
2539 27-11-2015 19:30:00 2.7 C 91 % 1.38 C
2540 27-11-2015 19:35:00 2.7 C 91 % 1.38 C
2541 27-11-2015 19:40:00 2.7 C 91 % 1.38 C
2542 27-11-2015 19:45:00 2.6 C 91 % 1.28 C
2543 27-11-2015 19:50:00 2.6 C 91 % 1.28 C
2544 27-11-2015 19:55:00 2.5 C 91 % 1.18 C
2545 27-11-2015 20:00:00 2.4 C 91 % 1.08 C
2546 27-11-2015 20:05:00 2.4 C 92 % 1.24 C
2547 27-11-2015 20:10:00 2.4 C 92 % 1.24 C
2548 27-11-2015 20:15:00 2.3 C 92 % 1.14 C
2549 27-11-2015 20:20:00 2.3 C 92 % 1.14 C
2550 27-11-2015 20:25:00 2.3 C 92 % 1.14 C
Sensor: Nr:Datum:Temp:Feuchte:Taupunkt:
Aussen-T/F 2551 27-11-2015 20:30:00 2.3 C 92 % 1.14 C
2552 27-11-2015 20:35:00 2.3 C 92 % 1.14 C
2553 27-11-2015 20:40:00 2.3 C 92 % 1.14 C
2554 27-11-2015 20:45:00 2.3 C 92 % 1.14 C
2555 27-11-2015 20:50:00 2.3 C 92 % 1.14 C
2556 27-11-2015 20:55:00 2.3 C 92 % 1.14 C
2557 27-11-2015 21:00:00 2.3 C 92 % 1.14 C
2558 27-11-2015 21:05:00 2.2 C 91 % 0.89 C
2559 27-11-2015 21:10:00 2.2 C 91 % 0.89 C
2560 27-11-2015 21:15:00 2.2 C 91 % 0.89 C
2561 27-11-2015 21:20:00 2.2 C 90 % 0.73 C
2562 27-11-2015 21:25:00 2.1 C 90 % 0.64 C
2563 27-11-2015 21:30:00 2.1 C 90 % 0.64 C
2564 27-11-2015 21:35:00 2 C 90 % 0.54 C
2565 27-11-2015 21:40:00 1.9 C 90 % 0.44 C
2566 27-11-2015 21:45:00 1.9 C 90 % 0.44 C
2567 27-11-2015 21:50:00 1.9 C 91 % 0.59 C
2568 27-11-2015 21:55:00 1.8 C 91 % 0.49 C
2569 27-11-2015 22:00:00 1.8 C 91 % 0.49 C
2570 27-11-2015 22:05:00 1.8 C 91 % 0.49 C
2571 27-11-2015 22:10:00 1.8 C 91 % 0.49 C
2572 27-11-2015 22:15:00 1.8 C 91 % 0.49 C
2573 27-11-2015 22:20:00 1.8 C 91 % 0.49 C
2574 27-11-2015 22:25:00 1.8 C 91 % 0.49 C
2575 27-11-2015 22:30:00 1.8 C 91 % 0.49 C
Sensor: Nr:Datum:Temp:Feuchte:Taupunkt:
Aussen-T/F 2576 27-11-2015 22:35:00 1.7 C 91 % 0.39 C
2577 27-11-2015 22:40:00 1.7 C 91 % 0.39 C
2578 27-11-2015 22:45:00 1.6 C 91 % 0.29 C
2579 27-11-2015 22:50:00 1.6 C 91 % 0.29 C
2580 27-11-2015 22:55:00 1.4 C 91 % 0.1 C
2581 27-11-2015 23:00:00 1.3 C 91 % 0 C
2582 27-11-2015 23:05:00 1.3 C 91 % 0 C
2583 27-11-2015 23:10:00 1.2 C 92 % 0.05 C
2584 27-11-2015 23:15:00 1.1 C 92 % -0.05 C
2585 27-11-2015 23:20:00 0.9 C 92 % -0.25 C
2586 27-11-2015 23:25:00 0.8 C 92 % -0.35 C
2587 27-11-2015 23:30:00 0.7 C 92 % -0.45 C
2588 27-11-2015 23:35:00 0.6 C 93 % -0.4 C
2589 27-11-2015 23:40:00 0.6 C 93 % -0.4 C
2590 27-11-2015 23:45:00 0.5 C 93 % -0.5 C
2591 27-11-2015 23:50:00 0.5 C 93 % -0.5 C
2592 27-11-2015 23:55:00 0.5 C 94 % -0.35 C
2593 28-11-2015 00:00:00 0.6 C 94 % -0.25 C
2594 28-11-2015 00:05:00 0.6 C 94 % -0.25 C
2595 28-11-2015 00:10:00 0.7 C 94 % -0.15 C
2596 28-11-2015 00:15:00 0.7 C 94 % -0.15 C
2597 28-11-2015 00:20:00 0.7 C 94 % -0.15 C
2598 28-11-2015 00:25:00 0.8 C 94 % -0.05 C
2599 28-11-2015 00:30:00 0.8 C 94 % -0.05 C
2600 28-11-2015 00:35:00 0.9 C 95 % 0.19 C
Sensor: Nr:Datum:Temp:Feuchte:Taupunkt:
Aussen-T/F 2601 28-11-2015 00:40:00 0.9 C 95 % 0.19 C
2602 28-11-2015 00:45:00 0.9 C 95 % 0.19 C
2603 28-11-2015 00:50:00 1.1 C 95 % 0.39 C
2604 28-11-2015 00:55:00 1.1 C 95 % 0.39 C
2605 28-11-2015 01:00:00 1.1 C 94 % 0.24 C
2606 28-11-2015 01:05:00 1.2 C 95 % 0.49 C
2607 28-11-2015 01:10:00 1.3 C 94 % 0.44 C
2608 28-11-2015 01:15:00 1.4 C 94 % 0.54 C
2609 28-11-2015 01:20:00 1.6 C 94 % 0.74 C
2610 28-11-2015 01:25:00 1.7 C 93 % 0.69 C
2611 28-11-2015 01:30:00 1.8 C 92 % 0.64 C
2612 28-11-2015 01:35:00 1.9 C 92 % 0.74 C
2613 28-11-2015 01:40:00 1.9 C 91 % 0.59 C
2614 28-11-2015 01:45:00 2.1 C 91 % 0.79 C
2615 28-11-2015 01:50:00 2.1 C 91 % 0.79 C
2616 28-11-2015 01:55:00 2.1 C 91 % 0.79 C
2617 28-11-2015 02:00:00 2.1 C 91 % 0.79 C
2618 28-11-2015 02:05:00 2.2 C 92 % 1.04 C
2619 28-11-2015 02:10:00 2.1 C 92 % 0.94 C
2620 28-11-2015 02:15:00 2.1 C 92 % 0.94 C
2621 28-11-2015 02:20:00 2.2 C 93 % 1.19 C
2622 28-11-2015 02:25:00 2.1 C 93 % 1.09 C
2623 28-11-2015 02:30:00 2.1 C 93 % 1.09 C
2624 28-11-2015 02:35:00 2.1 C 93 % 1.09 C
2625 28-11-2015 02:40:00 2.2 C 93 % 1.19 C
Sensor: Nr:Datum:Temp:Feuchte:Taupunkt:
Aussen-T/F 2626 28-11-2015 02:45:00 2.2 C 93 % 1.19 C
2627 28-11-2015 02:50:00 2.2 C 93 % 1.19 C
2628 28-11-2015 02:55:00 2.2 C 93 % 1.19 C
2629 28-11-2015 03:00:00 2.2 C 93 % 1.19 C
2630 28-11-2015 03:05:00 2.2 C 93 % 1.19 C
2631 28-11-2015 03:10:00 2.3 C 93 % 1.29 C
2632 28-11-2015 03:15:00 2.3 C 93 % 1.29 C
2633 28-11-2015 03:20:00 2.4 C 92 % 1.24 C
2634 28-11-2015 03:25:00 2.4 C 92 % 1.24 C
2635 28-11-2015 03:30:00 2.5 C 91 % 1.18 C
2636 28-11-2015 03:35:00 2.6 C 91 % 1.28 C
2637 28-11-2015 03:40:00 2.7 C 91 % 1.38 C
2638 28-11-2015 03:45:00 2.7 C 91 % 1.38 C
2639 28-11-2015 03:50:00 2.8 C 90 % 1.33 C
2640 28-11-2015 03:55:00 2.8 C 90 % 1.33 C
2641 28-11-2015 04:00:00 2.9 C 90 % 1.43 C
2642 28-11-2015 04:05:00 2.9 C 90 % 1.43 C
2643 28-11-2015 04:10:00 3 C 90 % 1.52 C
2644 28-11-2015 04:15:00 3.1 C 90 % 1.62 C
2645 28-11-2015 04:20:00 3.1 C 90 % 1.62 C
2646 28-11-2015 04:25:00 3.1 C 90 % 1.62 C
2647 28-11-2015 04:30:00 3.2 C 90 % 1.72 C
2648 28-11-2015 04:35:00 3.2 C 90 % 1.72 C
2649 28-11-2015 04:40:00 3.2 C 90 % 1.72 C
2650 28-11-2015 04:45:00 3.2 C 90 % 1.72 C
Sensor: Nr:Datum:Temp:Feuchte:Taupunkt:
Aussen-T/F 2651 28-11-2015 04:50:00 3.2 C 90 % 1.72 C
2652 28-11-2015 04:55:00 3.2 C 90 % 1.72 C
2653 28-11-2015 05:00:00 3.2 C 90 % 1.72 C
2654 28-11-2015 05:05:00 3.2 C 90 % 1.72 C
2655 28-11-2015 05:10:00 3.2 C 91 % 1.88 C
2656 28-11-2015 05:15:00 3.2 C 90 % 1.72 C
2657 28-11-2015 05:20:00 3.3 C 90 % 1.82 C
2658 28-11-2015 05:25:00 3.3 C 90 % 1.82 C
2659 28-11-2015 05:30:00 3.3 C 90 % 1.82 C
2660 28-11-2015 05:35:00 3.3 C 90 % 1.82 C
2661 28-11-2015 05:40:00 3.3 C 90 % 1.82 C
2662 28-11-2015 05:45:00 3.3 C 90 % 1.82 C
2663 28-11-2015 05:50:00 3.3 C 91 % 1.98 C
2664 28-11-2015 05:55:00 3.4 C 90 % 1.92 C
2665 28-11-2015 06:00:00 3.4 C 90 % 1.92 C
2666 28-11-2015 06:05:00 3.3 C 91 % 1.98 C
2667 28-11-2015 06:10:00 3.3 C 91 % 1.98 C
2668 28-11-2015 06:15:00 3.2 C 91 % 1.88 C
2669 28-11-2015 06:20:00 3.1 C 92 % 1.93 C
2670 28-11-2015 06:25:00 3 C 92 % 1.83 C
2671 28-11-2015 06:30:00 3.1 C 93 % 2.08 C
2672 28-11-2015 06:35:00 3.1 C 93 % 2.08 C
2673 28-11-2015 06:40:00 3.1 C 93 % 2.08 C
2674 28-11-2015 06:45:00 3.1 C 93 % 2.08 C
2675 28-11-2015 06:50:00 3.1 C 93 % 2.08 C
Sensor: Nr:Datum:Temp:Feuchte:Taupunkt:
Aussen-T/F 2676 28-11-2015 06:55:00 3.2 C 93 % 2.18 C
2677 28-11-2015 07:00:00 3.2 C 93 % 2.18 C
2678 28-11-2015 07:05:00 3.2 C 93 % 2.18 C
2679 28-11-2015 07:10:00 3.2 C 93 % 2.18 C
2680 28-11-2015 07:15:00 3.2 C 93 % 2.18 C
2681 28-11-2015 07:20:00 3.3 C 93 % 2.28 C
2682 28-11-2015 07:25:00 3.3 C 93 % 2.28 C
2683 28-11-2015 07:30:00 3.3 C 93 % 2.28 C
2684 28-11-2015 07:35:00 3.3 C 93 % 2.28 C
2685 28-11-2015 07:40:00 3.3 C 93 % 2.28 C
2686 28-11-2015 07:45:00 3.3 C 93 % 2.28 C
2687 28-11-2015 07:50:00 3.3 C 93 % 2.28 C
2688 28-11-2015 07:55:00 3.4 C 93 % 2.38 C
2689 28-11-2015 08:00:00 3.4 C 93 % 2.38 C
2690 28-11-2015 08:05:00 3.4 C 93 % 2.38 C
2691 28-11-2015 08:10:00 3.5 C 93 % 2.48 C
2692 28-11-2015 08:15:00 3.6 C 94 % 2.73 C
2693 28-11-2015 08:20:00 3.7 C 94 % 2.83 C
2694 28-11-2015 08:25:00 3.7 C 94 % 2.83 C
2695 28-11-2015 08:30:00 3.7 C 94 % 2.83 C
2696 28-11-2015 08:35:00 3.8 C 94 % 2.93 C
2697 28-11-2015 08:40:00 3.8 C 94 % 2.93 C
2698 28-11-2015 08:45:00 3.8 C 94 % 2.93 C
2699 28-11-2015 08:50:00 3.9 C 94 % 3.02 C
2700 28-11-2015 08:55:00 3.9 C 95 % 3.17 C
Sensor: Nr:Datum:Temp:Feuchte:Taupunkt:
Aussen-T/F 2701 28-11-2015 09:00:00 4.1 C 95 % 3.37 C
2702 28-11-2015 09:05:00 4.2 C 95 % 3.47 C
2703 28-11-2015 09:10:00 4.3 C 95 % 3.57 C
2704 28-11-2015 09:15:00 4.4 C 95 % 3.67 C
2705 28-11-2015 09:20:00 4.5 C 95 % 3.77 C
2706 28-11-2015 09:25:00 4.4 C 95 % 3.67 C
2707 28-11-2015 09:30:00 4.4 C 95 % 3.67 C
2708 28-11-2015 09:35:00 4.5 C 95 % 3.77 C
2709 28-11-2015 09:40:00 4.6 C 95 % 3.87 C
2710 28-11-2015 09:45:00 4.7 C 95 % 3.97 C
2711 28-11-2015 09:55:00 5 C 95 % 4.27 C
2712 28-11-2015 10:00:00 5 C 95 % 4.27 C
2713 28-11-2015 10:05:00 5 C 95 % 4.27 C
2714 28-11-2015 10:10:00 5 C 95 % 4.27 C
2715 28-11-2015 10:15:00 5 C 94 % 4.12 C
2716 28-11-2015 10:55:00 5 C 94 % 4.12 C
2717 28-11-2015 11:00:00 5 C 95 % 4.27 C
2718 28-11-2015 11:05:00 5.1 C 95 % 4.37 C
2719 28-11-2015 11:10:00 5.1 C 94 % 4.22 C
2720 28-11-2015 11:15:00 5 C 94 % 4.12 C
2721 28-11-2015 11:20:00 5.1 C 94 % 4.22 C
2722 28-11-2015 11:25:00 5.1 C 93 % 4.06 C
2723 28-11-2015 11:30:00 5.3 C 92 % 4.11 C
2724 28-11-2015 11:35:00 5.5 C 91 % 4.15 C
2725 28-11-2015 11:40:00 5.7 C 90 % 4.19 C
Sensor: Nr:Datum:Temp:Feuchte:Taupunkt:
Aussen-T/F 2726 28-11-2015 11:45:00 5.8 C 89 % 4.13 C
2727 28-11-2015 11:50:00 5.8 C 87 % 3.81 C
2728 28-11-2015 11:55:00 5.8 C 87 % 3.81 C
2729 28-11-2015 12:00:00 5.8 C 86 % 3.64 C
2730 28-11-2015 12:05:00 5.8 C 85 % 3.48 C
2731 28-11-2015 12:10:00 5.8 C 85 % 3.48 C
2732 28-11-2015 12:15:00 5.9 C 84 % 3.41 C
2733 28-11-2015 12:20:00 5.9 C 83 % 3.24 C
2734 28-11-2015 12:25:00 5.9 C 82 % 3.07 C
2735 28-11-2015 12:30:00 6 C 81 % 2.99 C
2736 28-11-2015 12:35:00 6.1 C 80 % 2.92 C
2737 28-11-2015 12:40:00 6.1 C 80 % 2.92 C
2738 28-11-2015 12:45:00 6.1 C 79 % 2.74 C
2739 28-11-2015 12:50:00 6.1 C 78 % 2.56 C
2740 28-11-2015 12:55:00 6.2 C 77 % 2.48 C
2741 28-11-2015 13:00:00 6.3 C 76 % 2.39 C
2742 28-11-2015 13:05:00 6.3 C 76 % 2.39 C
2743 28-11-2015 13:10:00 6.4 C 75 % 2.3 C
2744 28-11-2015 13:15:00 6.4 C 76 % 2.49 C
2745 28-11-2015 13:20:00 6.3 C 75 % 2.2 C
2746 28-11-2015 13:25:00 6.4 C 76 % 2.49 C
2747 28-11-2015 13:30:00 6.4 C 75 % 2.3 C
2748 28-11-2015 13:35:00 6.4 C 75 % 2.3 C
2749 28-11-2015 13:40:00 6.4 C 74 % 2.11 C
2750 28-11-2015 13:45:00 6.4 C 75 % 2.3 C
Sensor: Nr:Datum:Temp:Feuchte:Taupunkt:
Aussen-T/F 2751 28-11-2015 13:50:00 6.5 C 74 % 2.21 C
2752 28-11-2015 13:55:00 6.6 C 73 % 2.12 C
2753 28-11-2015 14:00:00 6.6 C 72 % 1.92 C
2754 28-11-2015 14:05:00 6.6 C 73 % 2.12 C
2755 28-11-2015 14:10:00 6.5 C 74 % 2.21 C
2756 28-11-2015 14:15:00 6.4 C 73 % 1.92 C
2757 28-11-2015 14:20:00 6.4 C 73 % 1.92 C
2758 28-11-2015 14:25:00 6.4 C 72 % 1.73 C
2759 28-11-2015 14:30:00 6.3 C 73 % 1.83 C
2760 28-11-2015 14:35:00 6.3 C 73 % 1.83 C
2761 28-11-2015 14:40:00 6.3 C 74 % 2.02 C
2762 28-11-2015 14:45:00 6.2 C 74 % 1.92 C
2763 28-11-2015 14:50:00 6.2 C 75 % 2.11 C
2764 28-11-2015 14:55:00 6.2 C 74 % 1.92 C
2765 28-11-2015 15:00:00 6.2 C 75 % 2.11 C
2766 28-11-2015 15:05:00 6.2 C 73 % 1.73 C
2767 28-11-2015 15:10:00 6.3 C 73 % 1.83 C
2768 28-11-2015 15:15:00 6.2 C 74 % 1.92 C
2769 28-11-2015 15:20:00 6.2 C 75 % 2.11 C
2770 28-11-2015 15:25:00 6 C 76 % 2.1 C
2771 28-11-2015 15:30:00 5.8 C 76 % 1.91 C
2772 28-11-2015 15:35:00 5.8 C 77 % 2.09 C
2773 28-11-2015 15:40:00 5.7 C 78 % 2.17 C
2774 28-11-2015 15:45:00 5.5 C 78 % 1.98 C
2775 28-11-2015 15:50:00 5.5 C 77 % 1.8 C
Sensor: Nr:Datum:Temp:Feuchte:Taupunkt:
Aussen-T/F 2776 28-11-2015 15:55:00 5.6 C 76 % 1.71 C
2777 28-11-2015 16:00:00 5.5 C 77 % 1.8 C
2778 28-11-2015 16:05:00 5.4 C 76 % 1.52 C
2779 28-11-2015 16:10:00 5.4 C 75 % 1.33 C
2780 28-11-2015 16:15:00 5.5 C 76 % 1.62 C
2781 28-11-2015 16:20:00 5.3 C 77 % 1.6 C
2782 28-11-2015 16:25:00 5.2 C 78 % 1.69 C
2783 28-11-2015 16:30:00 4.9 C 79 % 1.57 C
2784 28-11-2015 16:35:00 4.8 C 80 % 1.65 C
2785 28-11-2015 16:40:00 4.6 C 80 % 1.46 C
2786 28-11-2015 16:45:00 4.6 C 81 % 1.63 C
2787 28-11-2015 16:50:00 4.6 C 81 % 1.63 C
2788 28-11-2015 16:55:00 4.6 C 81 % 1.63 C
2789 28-11-2015 17:00:00 4.5 C 81 % 1.53 C
2790 28-11-2015 17:05:00 4.4 C 82 % 1.6 C
2791 28-11-2015 17:10:00 4.4 C 81 % 1.43 C
2792 28-11-2015 17:15:00 4.4 C 81 % 1.43 C
2793 28-11-2015 17:20:00 4.3 C 82 % 1.51 C
2794 28-11-2015 17:25:00 4.3 C 82 % 1.51 C
2795 28-11-2015 17:30:00 4.2 C 82 % 1.41 C
2796 28-11-2015 17:35:00 4.1 C 83 % 1.48 C
2797 28-11-2015 17:40:00 4.2 C 83 % 1.58 C
2798 28-11-2015 17:45:00 4.2 C 82 % 1.41 C
2799 28-11-2015 17:50:00 4.2 C 83 % 1.58 C
2800 28-11-2015 17:55:00 4.2 C 83 % 1.58 C
Sensor: Nr:Datum:Temp:Feuchte:Taupunkt:
Aussen-T/F 2801 28-11-2015 18:00:00 4.3 C 83 % 1.67 C
2802 28-11-2015 18:05:00 4.3 C 82 % 1.51 C
2803 28-11-2015 18:10:00 4.3 C 82 % 1.51 C
2804 28-11-2015 18:15:00 4.3 C 83 % 1.67 C
2805 28-11-2015 18:20:00 4.4 C 82 % 1.6 C
2806 28-11-2015 18:25:00 4.5 C 82 % 1.7 C
2807 28-11-2015 18:30:00 4.6 C 81 % 1.63 C
2808 28-11-2015 18:35:00 4.6 C 81 % 1.63 C
2809 28-11-2015 18:40:00 4.7 C 81 % 1.73 C
2810 28-11-2015 18:45:00 4.7 C 81 % 1.73 C
2811 28-11-2015 18:50:00 4.7 C 81 % 1.73 C
2812 28-11-2015 18:55:00 4.7 C 82 % 1.9 C
2813 28-11-2015 19:00:00 4.7 C 81 % 1.73 C
2814 28-11-2015 19:05:00 4.7 C 81 % 1.73 C
2815 28-11-2015 19:10:00 4.7 C 81 % 1.73 C
2816 28-11-2015 19:15:00 4.8 C 81 % 1.82 C
2817 28-11-2015 19:20:00 4.8 C 81 % 1.82 C
2818 28-11-2015 19:25:00 4.8 C 81 % 1.82 C
2819 28-11-2015 19:30:00 4.8 C 81 % 1.82 C
2820 28-11-2015 19:35:00 4.9 C 81 % 1.92 C
2821 28-11-2015 19:40:00 4.9 C 81 % 1.92 C
2822 28-11-2015 19:45:00 4.9 C 81 % 1.92 C
2823 28-11-2015 19:50:00 5 C 81 % 2.02 C
2824 28-11-2015 19:55:00 5.2 C 80 % 2.04 C
2825 28-11-2015 20:00:00 5.3 C 80 % 2.14 C
Sensor: Nr:Datum:Temp:Feuchte:Taupunkt:
Aussen-T/F 2826 28-11-2015 20:05:00 5.4 C 80 % 2.23 C
2827 28-11-2015 20:10:00 5.5 C 80 % 2.33 C
2828 28-11-2015 20:15:00 5.6 C 80 % 2.43 C
2829 28-11-2015 20:20:00 5.6 C 79 % 2.25 C
2830 28-11-2015 20:25:00 5.6 C 80 % 2.43 C
2831 28-11-2015 20:30:00 5.7 C 80 % 2.53 C
2832 28-11-2015 20:35:00 5.7 C 81 % 2.7 C
2833 28-11-2015 20:40:00 5.7 C 81 % 2.7 C
2834 28-11-2015 20:45:00 5.7 C 81 % 2.7 C
2835 28-11-2015 20:50:00 5.8 C 81 % 2.8 C
2836 28-11-2015 20:55:00 5.9 C 80 % 2.72 C
2837 28-11-2015 21:00:00 5.9 C 80 % 2.72 C
2838 28-11-2015 21:05:00 6 C 80 % 2.82 C
2839 28-11-2015 21:10:00 6 C 81 % 2.99 C
2840 28-11-2015 21:15:00 6.1 C 81 % 3.09 C
2841 28-11-2015 21:20:00 6.1 C 80 % 2.92 C
2842 28-11-2015 21:25:00 6.2 C 80 % 3.01 C
2843 28-11-2015 21:30:00 6.2 C 80 % 3.01 C
2844 28-11-2015 21:35:00 6.3 C 81 % 3.29 C
2845 28-11-2015 21:40:00 6.3 C 81 % 3.29 C
2846 28-11-2015 21:45:00 6.3 C 81 % 3.29 C
2847 28-11-2015 21:50:00 6.2 C 81 % 3.19 C
2848 28-11-2015 21:55:00 6.3 C 81 % 3.29 C
2849 28-11-2015 22:00:00 6.3 C 81 % 3.29 C
2850 28-11-2015 22:05:00 6.3 C 81 % 3.29 C
Sensor: Nr:Datum:Temp:Feuchte:Taupunkt:
Aussen-T/F 2851 28-11-2015 22:10:00 6.3 C 81 % 3.29 C
2852 28-11-2015 22:15:00 6.2 C 81 % 3.19 C
2853 28-11-2015 22:20:00 6.3 C 81 % 3.29 C
2854 28-11-2015 22:25:00 6.3 C 81 % 3.29 C
2855 28-11-2015 22:30:00 6.3 C 81 % 3.29 C
2856 28-11-2015 22:35:00 6.3 C 81 % 3.29 C
2857 28-11-2015 22:40:00 6.4 C 81 % 3.38 C
2858 28-11-2015 22:45:00 6.4 C 80 % 3.21 C
2859 28-11-2015 22:50:00 6.5 C 80 % 3.31 C
2860 28-11-2015 22:55:00 6.6 C 80 % 3.4 C
2861 28-11-2015 23:00:00 6.6 C 79 % 3.23 C
2862 28-11-2015 23:05:00 6.6 C 80 % 3.4 C
2863 28-11-2015 23:10:00 6.6 C 79 % 3.23 C
2864 28-11-2015 23:15:00 6.6 C 79 % 3.23 C
2865 28-11-2015 23:20:00 6.7 C 79 % 3.32 C
2866 28-11-2015 23:25:00 6.7 C 79 % 3.32 C
2867 28-11-2015 23:30:00 6.7 C 79 % 3.32 C
2868 28-11-2015 23:35:00 6.7 C 79 % 3.32 C
2869 28-11-2015 23:40:00 6.7 C 79 % 3.32 C
2870 28-11-2015 23:45:00 6.7 C 79 % 3.32 C
2871 28-11-2015 23:50:00 6.7 C 79 % 3.32 C
2872 28-11-2015 23:55:00 6.8 C 79 % 3.42 C
2873 29-11-2015 00:00:00 6.8 C 79 % 3.42 C
2874 29-11-2015 00:05:00 6.8 C 79 % 3.42 C
2875 29-11-2015 00:10:00 6.8 C 79 % 3.42 C
Sensor: Nr:Datum:Temp:Feuchte:Taupunkt:
Aussen-T/F 2876 29-11-2015 00:15:00 6.8 C 79 % 3.42 C
2877 29-11-2015 00:20:00 6.9 C 79 % 3.52 C
2878 29-11-2015 00:25:00 6.9 C 79 % 3.52 C
2879 29-11-2015 00:30:00 6.9 C 79 % 3.52 C
2880 29-11-2015 00:35:00 6.9 C 79 % 3.52 C
2881 29-11-2015 00:40:00 7 C 79 % 3.61 C
2882 29-11-2015 00:45:00 6.9 C 79 % 3.52 C
2883 29-11-2015 00:50:00 6.9 C 79 % 3.52 C
2884 29-11-2015 00:55:00 7 C 79 % 3.61 C
2885 29-11-2015 01:00:00 7 C 79 % 3.61 C
2886 29-11-2015 01:05:00 6.9 C 79 % 3.52 C
2887 29-11-2015 01:10:00 6.9 C 79 % 3.52 C
2888 29-11-2015 01:15:00 6.9 C 79 % 3.52 C
2889 29-11-2015 01:20:00 6.9 C 79 % 3.52 C
2890 29-11-2015 01:25:00 7 C 80 % 3.79 C
2891 29-11-2015 01:30:00 7 C 80 % 3.79 C
2892 29-11-2015 01:35:00 7 C 80 % 3.79 C
2893 29-11-2015 01:40:00 6.9 C 80 % 3.7 C
2894 29-11-2015 01:45:00 6.9 C 80 % 3.7 C
2895 29-11-2015 01:50:00 6.9 C 80 % 3.7 C
2896 29-11-2015 01:55:00 6.9 C 80 % 3.7 C
2897 29-11-2015 02:00:00 7 C 80 % 3.79 C
2898 29-11-2015 02:05:00 7 C 81 % 3.97 C
2899 29-11-2015 02:10:00 6.9 C 82 % 4.05 C
2900 29-11-2015 02:15:00 6.8 C 83 % 4.12 C
Sensor: Nr:Datum:Temp:Feuchte:Taupunkt:
Aussen-T/F 2901 29-11-2015 02:20:00 6.8 C 83 % 4.12 C
2902 29-11-2015 02:25:00 6.7 C 84 % 4.19 C
2903 29-11-2015 02:30:00 6.6 C 85 % 4.26 C
2904 29-11-2015 02:35:00 6.6 C 85 % 4.26 C
2905 29-11-2015 02:40:00 6.5 C 86 % 4.33 C
2906 29-11-2015 02:45:00 6.4 C 86 % 4.23 C
2907 29-11-2015 02:50:00 6.4 C 87 % 4.4 C
2908 29-11-2015 02:55:00 6.4 C 87 % 4.4 C
2909 29-11-2015 03:00:00 6.3 C 87 % 4.3 C
2910 29-11-2015 03:05:00 6.3 C 87 % 4.3 C
2911 29-11-2015 03:10:00 6.3 C 87 % 4.3 C
2912 29-11-2015 03:15:00 6.3 C 87 % 4.3 C
2913 29-11-2015 03:20:00 6.3 C 87 % 4.3 C
2914 29-11-2015 03:25:00 6.3 C 87 % 4.3 C
2915 29-11-2015 03:30:00 6.3 C 87 % 4.3 C
2916 29-11-2015 03:35:00 6.3 C 88 % 4.46 C
2917 29-11-2015 03:40:00 6.3 C 88 % 4.46 C
2918 29-11-2015 03:45:00 6.3 C 88 % 4.46 C
2919 29-11-2015 03:50:00 6.3 C 88 % 4.46 C
2920 29-11-2015 03:55:00 6.3 C 88 % 4.46 C
2921 29-11-2015 04:00:00 6.3 C 88 % 4.46 C
2922 29-11-2015 04:05:00 6.3 C 88 % 4.46 C
2923 29-11-2015 04:10:00 6.3 C 88 % 4.46 C
2924 29-11-2015 04:15:00 6.3 C 88 % 4.46 C
2925 29-11-2015 04:20:00 6.4 C 88 % 4.56 C
Sensor: Nr:Datum:Temp:Feuchte:Taupunkt:
Aussen-T/F 2926 29-11-2015 04:25:00 6.4 C 88 % 4.56 C
2927 29-11-2015 04:30:00 6.4 C 88 % 4.56 C
2928 29-11-2015 04:35:00 6.4 C 89 % 4.72 C
2929 29-11-2015 04:40:00 6.4 C 89 % 4.72 C
2930 29-11-2015 04:45:00 6.5 C 89 % 4.82 C
2931 29-11-2015 04:50:00 6.4 C 89 % 4.72 C
2932 29-11-2015 04:55:00 6.4 C 89 % 4.72 C
2933 29-11-2015 05:00:00 6.4 C 89 % 4.72 C
2934 29-11-2015 05:05:00 6.5 C 89 % 4.82 C
2935 29-11-2015 05:10:00 6.5 C 89 % 4.82 C
2936 29-11-2015 05:15:00 6.6 C 89 % 4.92 C
2937 29-11-2015 05:20:00 6.6 C 89 % 4.92 C
2938 29-11-2015 05:25:00 6.6 C 88 % 4.76 C
2939 29-11-2015 05:30:00 6.7 C 88 % 4.86 C
2940 29-11-2015 05:35:00 6.7 C 88 % 4.86 C
2941 29-11-2015 05:40:00 6.8 C 88 % 4.96 C
2942 29-11-2015 05:45:00 6.8 C 88 % 4.96 C
2943 29-11-2015 05:50:00 6.9 C 88 % 5.05 C
2944 29-11-2015 05:55:00 6.9 C 88 % 5.05 C
2945 29-11-2015 06:00:00 7 C 88 % 5.15 C
2946 29-11-2015 06:05:00 7.1 C 88 % 5.25 C
2947 29-11-2015 06:10:00 7.1 C 88 % 5.25 C
2948 29-11-2015 06:15:00 7.2 C 88 % 5.35 C
2949 29-11-2015 06:20:00 7.3 C 88 % 5.45 C
2950 29-11-2015 06:25:00 7.3 C 88 % 5.45 C
Sensor: Nr:Datum:Temp:Feuchte:Taupunkt:
Aussen-T/F 2951 29-11-2015 06:30:00 7.3 C 88 % 5.45 C
2952 29-11-2015 06:35:00 7.4 C 88 % 5.55 C
2953 29-11-2015 06:40:00 7.4 C 88 % 5.55 C
2954 29-11-2015 06:45:00 7.4 C 88 % 5.55 C
2955 29-11-2015 06:50:00 7.4 C 88 % 5.55 C
2956 29-11-2015 06:55:00 7.4 C 88 % 5.55 C
2957 29-11-2015 07:00:00 7.5 C 88 % 5.64 C
2958 29-11-2015 07:05:00 7.5 C 88 % 5.64 C
2959 29-11-2015 07:10:00 7.5 C 88 % 5.64 C
2960 29-11-2015 07:15:00 7.5 C 88 % 5.64 C
2961 29-11-2015 07:20:00 7.6 C 88 % 5.74 C
2962 29-11-2015 07:25:00 7.6 C 88 % 5.74 C
2963 29-11-2015 07:30:00 7.6 C 88 % 5.74 C
2964 29-11-2015 07:35:00 7.6 C 88 % 5.74 C
2965 29-11-2015 07:40:00 7.6 C 88 % 5.74 C
2966 29-11-2015 07:45:00 7.6 C 88 % 5.74 C
2967 29-11-2015 07:50:00 7.7 C 88 % 5.84 C
2968 29-11-2015 07:55:00 7.7 C 88 % 5.84 C
2969 29-11-2015 08:00:00 7.8 C 88 % 5.94 C
2970 29-11-2015 08:05:00 7.8 C 88 % 5.94 C
2971 29-11-2015 08:10:00 7.8 C 88 % 5.94 C
2972 29-11-2015 08:15:00 7.8 C 88 % 5.94 C
2973 29-11-2015 08:20:00 7.9 C 88 % 6.04 C
2974 29-11-2015 08:25:00 7.9 C 88 % 6.04 C
2975 29-11-2015 08:30:00 7.9 C 88 % 6.04 C
Sensor: Nr:Datum:Temp:Feuchte:Taupunkt:
Aussen-T/F 2976 29-11-2015 08:35:00 8 C 88 % 6.14 C
2977 29-11-2015 08:40:00 8 C 88 % 6.14 C
2978 29-11-2015 08:45:00 8 C 89 % 6.3 C
2979 29-11-2015 08:50:00 8 C 89 % 6.3 C
2980 29-11-2015 08:55:00 8.1 C 89 % 6.4 C
2981 29-11-2015 09:00:00 8.1 C 89 % 6.4 C
2982 29-11-2015 09:05:00 8.2 C 89 % 6.5 C
2983 29-11-2015 09:10:00 8.2 C 89 % 6.5 C
2984 29-11-2015 09:15:00 8.3 C 89 % 6.6 C
2985 29-11-2015 09:20:00 8.3 C 89 % 6.6 C
2986 29-11-2015 09:25:00 8.3 C 89 % 6.6 C
2987 29-11-2015 09:30:00 8.3 C 89 % 6.6 C
2988 29-11-2015 09:35:00 8.4 C 89 % 6.7 C
2989 29-11-2015 09:40:00 8.5 C 89 % 6.79 C
2990 29-11-2015 09:45:00 8.6 C 89 % 6.89 C
2991 29-11-2015 09:50:00 8.6 C 89 % 6.89 C
2992 29-11-2015 09:55:00 8.7 C 89 % 6.99 C
2993 29-11-2015 10:00:00 8.7 C 89 % 6.99 C
2994 29-11-2015 10:05:00 8.8 C 88 % 6.93 C
2995 29-11-2015 10:10:00 8.9 C 88 % 7.02 C
2996 29-11-2015 10:15:00 8.9 C 88 % 7.02 C
2997 29-11-2015 10:20:00 9 C 88 % 7.12 C
2998 29-11-2015 10:25:00 9.1 C 88 % 7.22 C
2999 29-11-2015 10:30:00 9.2 C 88 % 7.32 C
3000 29-11-2015 10:35:00 9.2 C 88 % 7.32 C
Sensor: Nr:Datum:Temp:Feuchte:Taupunkt:
Aussen-T/F 3001 29-11-2015 10:40:00 9.2 C 88 % 7.32 C
3002 29-11-2015 10:45:00 9.2 C 89 % 7.48 C
3003 29-11-2015 10:50:00 9.2 C 89 % 7.48 C
3004 29-11-2015 10:55:00 9.2 C 89 % 7.48 C
3005 29-11-2015 11:00:00 9.2 C 89 % 7.48 C
3006 29-11-2015 11:05:00 9.2 C 89 % 7.48 C
3007 29-11-2015 11:10:00 9.3 C 89 % 7.58 C
3008 29-11-2015 11:15:00 9.4 C 88 % 7.52 C
3009 29-11-2015 11:20:00 9.5 C 88 % 7.61 C
3010 29-11-2015 11:25:00 9.6 C 88 % 7.71 C
3011 29-11-2015 11:30:00 9.7 C 88 % 7.81 C
3012 29-11-2015 11:35:00 9.8 C 87 % 7.74 C
3013 29-11-2015 11:40:00 9.8 C 87 % 7.74 C
3014 29-11-2015 11:45:00 9.9 C 86 % 7.67 C
3015 29-11-2015 11:50:00 10.1 C 86 % 7.87 C
3016 29-11-2015 11:55:00 10.2 C 86 % 7.97 C
3017 29-11-2015 12:00:00 10.2 C 85 % 7.79 C
3018 29-11-2015 12:05:00 10.3 C 85 % 7.89 C
3019 29-11-2015 12:10:00 10.3 C 85 % 7.89 C
3020 29-11-2015 12:15:00 10.3 C 85 % 7.89 C
3021 29-11-2015 12:20:00 10.4 C 85 % 7.99 C
3022 29-11-2015 12:25:00 10.4 C 85 % 7.99 C
3023 29-11-2015 12:30:00 10.4 C 86 % 8.16 C
3024 29-11-2015 12:35:00 10.4 C 86 % 8.16 C
3025 29-11-2015 12:40:00 10.5 C 86 % 8.26 C
Sensor: Nr:Datum:Temp:Feuchte:Taupunkt:
Aussen-T/F 3026 29-11-2015 12:45:00 10.6 C 86 % 8.36 C
3027 29-11-2015 12:50:00 10.6 C 85 % 8.19 C
3028 29-11-2015 12:55:00 10.7 C 85 % 8.28 C
3029 29-11-2015 13:00:00 10.7 C 85 % 8.28 C
3030 29-11-2015 13:05:00 10.7 C 85 % 8.28 C
3031 29-11-2015 13:10:00 10.7 C 85 % 8.28 C
3032 29-11-2015 13:15:00 10.7 C 85 % 8.28 C
3033 29-11-2015 13:20:00 10.7 C 86 % 8.46 C
3034 29-11-2015 13:25:00 10.6 C 86 % 8.36 C
3035 29-11-2015 13:30:00 10.5 C 87 % 8.43 C
3036 29-11-2015 13:35:00 10.5 C 87 % 8.43 C
3037 29-11-2015 13:40:00 10.4 C 87 % 8.33 C
3038 29-11-2015 13:45:00 10.4 C 87 % 8.33 C
3039 29-11-2015 13:50:00 10.4 C 87 % 8.33 C
3040 29-11-2015 13:55:00 10.4 C 88 % 8.5 C
3041 29-11-2015 14:00:00 10.3 C 88 % 8.4 C
3042 29-11-2015 14:05:00 10.3 C 89 % 8.57 C
3043 29-11-2015 14:10:00 10.3 C 89 % 8.57 C
3044 29-11-2015 14:15:00 10.3 C 89 % 8.57 C
3045 29-11-2015 14:20:00 10.3 C 90 % 8.73 C
3046 29-11-2015 14:25:00 10.2 C 90 % 8.64 C
3047 29-11-2015 14:30:00 10.2 C 90 % 8.64 C
3048 29-11-2015 14:35:00 10.3 C 89 % 8.57 C
3049 29-11-2015 14:40:00 10.3 C 89 % 8.57 C
3050 29-11-2015 14:45:00 10.3 C 89 % 8.57 C
Sensor: Nr:Datum:Temp:Feuchte:Taupunkt:
Aussen-T/F 3051 29-11-2015 14:50:00 10.3 C 89 % 8.57 C
3052 29-11-2015 14:55:00 10.4 C 89 % 8.67 C
3053 29-11-2015 15:00:00 10.4 C 89 % 8.67 C
3054 29-11-2015 15:05:00 10.4 C 89 % 8.67 C
3055 29-11-2015 15:10:00 10.4 C 90 % 8.83 C
3056 29-11-2015 15:15:00 10.4 C 90 % 8.83 C
3057 29-11-2015 15:20:00 10.4 C 90 % 8.83 C
3058 29-11-2015 15:25:00 10.3 C 91 % 8.9 C
3059 29-11-2015 15:30:00 10.3 C 91 % 8.9 C
3060 29-11-2015 15:35:00 10.3 C 90 % 8.73 C
3061 29-11-2015 15:40:00 10.4 C 89 % 8.67 C
3062 29-11-2015 15:45:00 10.6 C 88 % 8.7 C
3063 29-11-2015 15:50:00 10.7 C 88 % 8.8 C
3064 29-11-2015 15:55:00 10.8 C 88 % 8.89 C
3065 29-11-2015 16:00:00 10.8 C 88 % 8.89 C
3066 29-11-2015 16:05:00 10.8 C 88 % 8.89 C
3067 29-11-2015 16:10:00 10.7 C 87 % 8.63 C
3068 29-11-2015 16:15:00 10.8 C 87 % 8.73 C
3069 29-11-2015 16:20:00 10.8 C 87 % 8.73 C
3070 29-11-2015 16:25:00 10.7 C 87 % 8.63 C
3071 29-11-2015 16:30:00 10.7 C 88 % 8.8 C
3072 29-11-2015 16:35:00 10.6 C 88 % 8.7 C
3073 29-11-2015 16:40:00 10.5 C 89 % 8.77 C
3074 29-11-2015 16:45:00 10.4 C 89 % 8.67 C
3075 29-11-2015 16:50:00 10.4 C 89 % 8.67 C
Sensor: Nr:Datum:Temp:Feuchte:Taupunkt:
Aussen-T/F 3076 29-11-2015 16:55:00 10.4 C 88 % 8.5 C
3077 29-11-2015 17:00:00 10.6 C 87 % 8.53 C
3078 29-11-2015 17:05:00 10.6 C 87 % 8.53 C
3079 29-11-2015 17:10:00 10.7 C 86 % 8.46 C
3080 29-11-2015 17:15:00 10.7 C 86 % 8.46 C
3081 29-11-2015 17:20:00 10.7 C 86 % 8.46 C
3082 29-11-2015 17:25:00 10.7 C 87 % 8.63 C
3083 29-11-2015 17:30:00 10.6 C 87 % 8.53 C
3084 29-11-2015 17:35:00 10.6 C 87 % 8.53 C
3085 29-11-2015 17:40:00 10.6 C 87 % 8.53 C
3086 29-11-2015 17:45:00 10.6 C 87 % 8.53 C
3087 29-11-2015 17:50:00 10.7 C 86 % 8.46 C
3088 29-11-2015 17:55:00 10.7 C 86 % 8.46 C
3089 29-11-2015 18:00:00 10.7 C 86 % 8.46 C
3090 29-11-2015 18:05:00 10.7 C 85 % 8.28 C
3091 29-11-2015 18:10:00 10.8 C 85 % 8.38 C
3092 29-11-2015 18:15:00 10.8 C 85 % 8.38 C
3093 29-11-2015 18:20:00 10.9 C 84 % 8.31 C
3094 29-11-2015 18:25:00 10.9 C 84 % 8.31 C
3095 29-11-2015 18:30:00 10.9 C 84 % 8.31 C
3096 29-11-2015 18:35:00 10.9 C 84 % 8.31 C
3097 29-11-2015 18:40:00 10.8 C 84 % 8.21 C
3098 29-11-2015 18:45:00 10.8 C 84 % 8.21 C
3099 29-11-2015 18:50:00 10.8 C 84 % 8.21 C
3100 29-11-2015 18:55:00 10.8 C 84 % 8.21 C
Sensor: Nr:Datum:Temp:Feuchte:Taupunkt:
Aussen-T/F 3101 29-11-2015 19:00:00 10.8 C 84 % 8.21 C
3102 29-11-2015 19:05:00 10.8 C 85 % 8.38 C
3103 29-11-2015 19:10:00 10.8 C 85 % 8.38 C
3104 29-11-2015 19:15:00 10.8 C 85 % 8.38 C
3105 29-11-2015 19:20:00 10.8 C 85 % 8.38 C
3106 29-11-2015 19:25:00 10.7 C 85 % 8.28 C
3107 29-11-2015 19:30:00 10.7 C 85 % 8.28 C
3108 29-11-2015 19:35:00 10.7 C 86 % 8.46 C
3109 29-11-2015 19:40:00 10.7 C 86 % 8.46 C
3110 29-11-2015 19:45:00 10.6 C 86 % 8.36 C
3111 29-11-2015 19:50:00 10.7 C 86 % 8.46 C
3112 29-11-2015 19:55:00 10.7 C 86 % 8.46 C
3113 29-11-2015 20:00:00 10.7 C 86 % 8.46 C
3114 29-11-2015 20:05:00 10.7 C 86 % 8.46 C
3115 29-11-2015 20:10:00 10.7 C 86 % 8.46 C
3116 29-11-2015 20:15:00 10.7 C 86 % 8.46 C
3117 29-11-2015 20:20:00 10.7 C 86 % 8.46 C
3118 29-11-2015 20:25:00 10.7 C 86 % 8.46 C
3119 29-11-2015 20:30:00 10.7 C 86 % 8.46 C
3120 29-11-2015 20:35:00 10.7 C 86 % 8.46 C
3121 29-11-2015 20:40:00 10.8 C 85 % 8.38 C
3122 29-11-2015 20:45:00 10.8 C 85 % 8.38 C
3123 29-11-2015 20:50:00 10.8 C 85 % 8.38 C
3124 29-11-2015 20:55:00 10.8 C 85 % 8.38 C
3125 29-11-2015 21:00:00 10.9 C 85 % 8.48 C
Sensor: Nr:Datum:Temp:Feuchte:Taupunkt:
Aussen-T/F 3126 29-11-2015 21:05:00 10.9 C 85 % 8.48 C
3127 29-11-2015 21:10:00 11 C 85 % 8.58 C
3128 29-11-2015 21:15:00 11 C 85 % 8.58 C
3129 29-11-2015 21:20:00 11.1 C 84 % 8.5 C
3130 29-11-2015 21:25:00 11.2 C 84 % 8.6 C
3131 29-11-2015 21:30:00 11.2 C 84 % 8.6 C
3132 29-11-2015 21:35:00 11.3 C 83 % 8.52 C
3133 29-11-2015 21:40:00 11.3 C 83 % 8.52 C
3134 29-11-2015 21:45:00 11.3 C 83 % 8.52 C
3135 29-11-2015 21:50:00 11.3 C 83 % 8.52 C
3136 29-11-2015 21:55:00 11.3 C 84 % 8.7 C
3137 29-11-2015 22:00:00 11.2 C 84 % 8.6 C
3138 29-11-2015 22:05:00 11.2 C 84 % 8.6 C
3139 29-11-2015 22:10:00 11.1 C 85 % 8.68 C
3140 29-11-2015 22:15:00 11.1 C 85 % 8.68 C
3141 29-11-2015 22:20:00 11.1 C 85 % 8.68 C
3142 29-11-2015 22:25:00 11.1 C 84 % 8.5 C
3143 29-11-2015 22:30:00 11.1 C 84 % 8.5 C
3144 29-11-2015 22:35:00 11.1 C 84 % 8.5 C
3145 29-11-2015 22:40:00 11.1 C 83 % 8.33 C
3146 29-11-2015 22:45:00 11.1 C 83 % 8.33 C
3147 29-11-2015 22:50:00 11.1 C 83 % 8.33 C
3148 29-11-2015 22:55:00 11.2 C 83 % 8.42 C
3149 29-11-2015 23:00:00 11.2 C 83 % 8.42 C
3150 29-11-2015 23:05:00 11.2 C 82 % 8.25 C
Sensor: Nr:Datum:Temp:Feuchte:Taupunkt:
Aussen-T/F 3151 29-11-2015 23:10:00 11.2 C 82 % 8.25 C
3152 29-11-2015 23:15:00 11.2 C 82 % 8.25 C
3153 29-11-2015 23:20:00 11.3 C 82 % 8.34 C
3154 29-11-2015 23:25:00 11.3 C 81 % 8.16 C
3155 29-11-2015 23:30:00 11.3 C 81 % 8.16 C
3156 29-11-2015 23:35:00 11.3 C 81 % 8.16 C
3157 29-11-2015 23:40:00 11.3 C 81 % 8.16 C
3158 29-11-2015 23:45:00 11.3 C 81 % 8.16 C
3159 29-11-2015 23:50:00 11.3 C 81 % 8.16 C
3160 29-11-2015 23:55:00 11.3 C 81 % 8.16 C
3161 30-11-2015 00:00:00 11.3 C 81 % 8.16 C
3162 30-11-2015 00:05:00 11.3 C 82 % 8.34 C
3163 30-11-2015 00:10:00 11.3 C 82 % 8.34 C
3164 30-11-2015 00:15:00 11.3 C 82 % 8.34 C
3165 30-11-2015 00:20:00 11.2 C 82 % 8.25 C
3166 30-11-2015 00:25:00 11.2 C 83 % 8.42 C
3167 30-11-2015 00:30:00 11.1 C 83 % 8.33 C
3168 30-11-2015 00:35:00 11.1 C 83 % 8.33 C
3169 30-11-2015 00:40:00 11.1 C 83 % 8.33 C
3170 30-11-2015 00:45:00 11.1 C 83 % 8.33 C
3171 30-11-2015 00:50:00 11.1 C 83 % 8.33 C
3172 30-11-2015 00:55:00 11.1 C 83 % 8.33 C
3173 30-11-2015 01:00:00 11.1 C 83 % 8.33 C
3174 30-11-2015 01:05:00 11.1 C 83 % 8.33 C
3175 30-11-2015 01:10:00 11.1 C 83 % 8.33 C
Sensor: Nr:Datum:Temp:Feuchte:Taupunkt:
Aussen-T/F 3176 30-11-2015 01:15:00 11.1 C 83 % 8.33 C
3177 30-11-2015 01:20:00 11.1 C 83 % 8.33 C
3178 30-11-2015 01:25:00 11 C 84 % 8.4 C
3179 30-11-2015 01:30:00 10.9 C 85 % 8.48 C
3180 30-11-2015 01:35:00 10.8 C 85 % 8.38 C
3181 30-11-2015 01:40:00 10.8 C 85 % 8.38 C
3182 30-11-2015 01:45:00 10.8 C 85 % 8.38 C
3183 30-11-2015 01:50:00 10.8 C 85 % 8.38 C
3184 30-11-2015 01:55:00 10.7 C 85 % 8.28 C
3185 30-11-2015 02:00:00 10.8 C 85 % 8.38 C
3186 30-11-2015 02:05:00 10.8 C 85 % 8.38 C
3187 30-11-2015 02:10:00 10.8 C 85 % 8.38 C
3188 30-11-2015 02:15:00 10.9 C 84 % 8.31 C
3189 30-11-2015 02:20:00 10.9 C 85 % 8.48 C
3190 30-11-2015 02:25:00 10.9 C 85 % 8.48 C
3191 30-11-2015 02:30:00 10.8 C 85 % 8.38 C
3192 30-11-2015 02:35:00 10.8 C 85 % 8.38 C
3193 30-11-2015 02:40:00 10.8 C 86 % 8.56 C
3194 30-11-2015 02:45:00 10.7 C 85 % 8.28 C
3195 30-11-2015 02:50:00 10.8 C 85 % 8.38 C
3196 30-11-2015 02:55:00 10.7 C 85 % 8.28 C
3197 30-11-2015 03:00:00 10.8 C 85 % 8.38 C
3198 30-11-2015 03:05:00 10.8 C 85 % 8.38 C
3199 30-11-2015 03:10:00 10.7 C 85 % 8.28 C
3200 30-11-2015 03:15:00 10.7 C 86 % 8.46 C
Sensor: Nr:Datum:Temp:Feuchte:Taupunkt:
Aussen-T/F 3201 30-11-2015 03:20:00 10.7 C 86 % 8.46 C
3202 30-11-2015 03:25:00 10.6 C 86 % 8.36 C
3203 30-11-2015 03:30:00 10.6 C 87 % 8.53 C
3204 30-11-2015 03:35:00 10.6 C 87 % 8.53 C
3205 30-11-2015 03:40:00 10.5 C 88 % 8.6 C
3206 30-11-2015 03:45:00 10.3 C 89 % 8.57 C
3207 30-11-2015 03:50:00 10.2 C 90 % 8.64 C
3208 30-11-2015 03:55:00 10.1 C 90 % 8.54 C
3209 30-11-2015 04:00:00 9.9 C 91 % 8.5 C
3210 30-11-2015 04:05:00 9.7 C 91 % 8.3 C
3211 30-11-2015 04:10:00 9.3 C 91 % 7.91 C
3212 30-11-2015 04:15:00 9.1 C 91 % 7.71 C
3213 30-11-2015 04:20:00 8.9 C 91 % 7.51 C
3214 30-11-2015 04:25:00 8.8 C 91 % 7.41 C
3215 30-11-2015 04:30:00 8.6 C 92 % 7.38 C
3216 30-11-2015 04:35:00 8.4 C 92 % 7.18 C
3217 30-11-2015 04:40:00 8.3 C 92 % 7.08 C
3218 30-11-2015 04:45:00 8.2 C 92 % 6.98 C
3219 30-11-2015 04:50:00 8.1 C 92 % 6.88 C
3220 30-11-2015 04:55:00 8.1 C 93 % 7.04 C
3221 30-11-2015 05:00:00 8 C 93 % 6.94 C
3222 30-11-2015 05:05:00 7.9 C 93 % 6.84 C
3223 30-11-2015 05:10:00 7.9 C 93 % 6.84 C
3224 30-11-2015 05:15:00 7.9 C 94 % 7 C
3225 30-11-2015 05:20:00 7.8 C 94 % 6.9 C
Sensor: Nr:Datum:Temp:Feuchte:Taupunkt:
Aussen-T/F 3226 30-11-2015 05:25:00 7.8 C 94 % 6.9 C
3227 30-11-2015 05:30:00 7.8 C 94 % 6.9 C
3228 30-11-2015 05:35:00 7.8 C 94 % 6.9 C
3229 30-11-2015 05:40:00 7.8 C 94 % 6.9 C
3230 30-11-2015 05:45:00 7.8 C 94 % 6.9 C
3231 30-11-2015 05:50:00 7.8 C 94 % 6.9 C
3232 30-11-2015 05:55:00 7.8 C 94 % 6.9 C
3233 30-11-2015 06:00:00 7.8 C 94 % 6.9 C
3234 30-11-2015 06:05:00 7.8 C 94 % 6.9 C
3235 30-11-2015 06:10:00 7.8 C 94 % 6.9 C
3236 30-11-2015 06:15:00 7.8 C 94 % 6.9 C
3237 30-11-2015 06:20:00 7.8 C 94 % 6.9 C
3238 30-11-2015 06:25:00 7.8 C 94 % 6.9 C
3239 30-11-2015 06:30:00 7.7 C 94 % 6.8 C
3240 30-11-2015 06:35:00 7.7 C 94 % 6.8 C
3241 30-11-2015 06:40:00 7.7 C 94 % 6.8 C
3242 30-11-2015 06:45:00 7.7 C 94 % 6.8 C
3243 30-11-2015 06:50:00 7.7 C 94 % 6.8 C
3244 30-11-2015 06:55:00 7.7 C 94 % 6.8 C
3245 30-11-2015 07:00:00 7.7 C 94 % 6.8 C
3246 30-11-2015 07:05:00 7.7 C 94 % 6.8 C
3247 30-11-2015 07:10:00 7.7 C 94 % 6.8 C
3248 30-11-2015 07:15:00 7.7 C 95 % 6.95 C
3249 30-11-2015 07:20:00 7.7 C 95 % 6.95 C
3250 30-11-2015 07:25:00 7.7 C 95 % 6.95 C
Sensor: Nr:Datum:Temp:Feuchte:Taupunkt:
Aussen-T/F 3251 30-11-2015 07:30:00 7.7 C 95 % 6.95 C
3252 30-11-2015 07:35:00 7.6 C 95 % 6.85 C
3253 30-11-2015 07:40:00 7.6 C 95 % 6.85 C
3254 30-11-2015 07:45:00 7.6 C 95 % 6.85 C
3255 30-11-2015 07:50:00 7.6 C 95 % 6.85 C
3256 30-11-2015 07:55:00 7.7 C 95 % 6.95 C
3257 30-11-2015 08:00:00 7.7 C 95 % 6.95 C
3258 30-11-2015 08:05:00 7.7 C 95 % 6.95 C
3259 30-11-2015 08:10:00 7.7 C 96 % 7.1 C
3260 30-11-2015 08:15:00 7.7 C 95 % 6.95 C
3261 30-11-2015 08:20:00 7.7 C 96 % 7.1 C
3262 30-11-2015 08:25:00 7.8 C 95 % 7.05 C
3263 30-11-2015 08:30:00 7.8 C 95 % 7.05 C
3264 30-11-2015 08:35:00 7.8 C 96 % 7.2 C
3265 30-11-2015 08:40:00 7.8 C 96 % 7.2 C
3266 30-11-2015 08:45:00 7.8 C 96 % 7.2 C
3267 30-11-2015 08:50:00 7.9 C 96 % 7.3 C
3268 30-11-2015 08:55:00 7.9 C 96 % 7.3 C
3269 30-11-2015 09:00:00 7.9 C 96 % 7.3 C
3270 30-11-2015 09:05:00 7.9 C 96 % 7.3 C
3271 30-11-2015 09:10:00 8 C 96 % 7.4 C
3272 30-11-2015 09:15:00 8 C 96 % 7.4 C
3273 30-11-2015 09:20:00 8.1 C 96 % 7.5 C
3274 30-11-2015 09:25:00 8.1 C 96 % 7.5 C
3275 30-11-2015 09:30:00 8.1 C 96 % 7.5 C
Sensor: Nr:Datum:Temp:Feuchte:Taupunkt:
Aussen-T/F 3276 30-11-2015 09:35:00 8.1 C 96 % 7.5 C
3277 30-11-2015 09:40:00 8.2 C 96 % 7.6 C
3278 30-11-2015 09:45:00 8.2 C 96 % 7.6 C
3279 30-11-2015 09:50:00 8.3 C 96 % 7.7 C
3280 30-11-2015 09:55:00 8.3 C 96 % 7.7 C
3281 30-11-2015 10:00:00 8.4 C 96 % 7.8 C
3282 30-11-2015 10:05:00 8.4 C 96 % 7.8 C
3283 30-11-2015 10:10:00 8.5 C 96 % 7.9 C
3284 30-11-2015 10:15:00 8.6 C 96 % 8 C
3285 30-11-2015 10:20:00 8.6 C 96 % 8 C
3286 30-11-2015 10:25:00 8.7 C 97 % 8.25 C
3287 30-11-2015 10:30:00 8.7 C 97 % 8.25 C
3288 30-11-2015 10:35:00 8.8 C 97 % 8.35 C
3289 30-11-2015 10:40:00 8.8 C 97 % 8.35 C
3290 30-11-2015 10:45:00 8.9 C 96 % 8.3 C
3291 30-11-2015 10:50:00 8.9 C 96 % 8.3 C
3292 30-11-2015 10:55:00 8.9 C 96 % 8.3 C
3293 30-11-2015 11:00:00 8.9 C 96 % 8.3 C
3294 30-11-2015 11:05:00 9.1 C 97 % 8.65 C
3295 30-11-2015 11:10:00 9.1 C 97 % 8.65 C
3296 30-11-2015 11:15:00 9.1 C 97 % 8.65 C
3297 30-11-2015 11:20:00 9.1 C 96 % 8.5 C
3298 30-11-2015 11:25:00 9.1 C 96 % 8.5 C
3299 30-11-2015 11:30:00 9.1 C 96 % 8.5 C
3300 30-11-2015 11:35:00 9.2 C 96 % 8.6 C
Sensor: Nr:Datum:Temp:Feuchte:Taupunkt:
Aussen-T/F 3301 30-11-2015 11:40:00 9.3 C 96 % 8.7 C
3302 30-11-2015 11:45:00 9.4 C 96 % 8.8 C
3303 30-11-2015 11:50:00 9.5 C 96 % 8.89 C
3304 30-11-2015 11:55:00 9.6 C 96 % 8.99 C
3305 30-11-2015 12:00:00 9.7 C 96 % 9.09 C
3306 30-11-2015 12:05:00 9.7 C 96 % 9.09 C
3307 30-11-2015 12:10:00 9.8 C 96 % 9.19 C
3308 30-11-2015 12:15:00 9.9 C 96 % 9.29 C
3309 30-11-2015 12:20:00 9.9 C 95 % 9.14 C
3310 30-11-2015 12:25:00 10 C 95 % 9.24 C
3311 30-11-2015 12:30:00 10 C 95 % 9.24 C
3312 30-11-2015 12:35:00 10.1 C 95 % 9.34 C
3313 30-11-2015 12:40:00 10.1 C 94 % 9.18 C
3314 30-11-2015 12:45:00 10.1 C 94 % 9.18 C
3315 30-11-2015 12:50:00 10.2 C 94 % 9.28 C
3316 30-11-2015 12:55:00 10.2 C 94 % 9.28 C
3317 30-11-2015 13:00:00 10.2 C 94 % 9.28 C
3318 30-11-2015 13:05:00 10.2 C 94 % 9.28 C
3319 30-11-2015 13:10:00 10.3 C 94 % 9.38 C
3320 30-11-2015 13:15:00 10.3 C 93 % 9.22 C
3321 30-11-2015 13:20:00 10.3 C 93 % 9.22 C
3322 30-11-2015 13:25:00 10.3 C 93 % 9.22 C
3323 30-11-2015 13:30:00 10.3 C 93 % 9.22 C
3324 30-11-2015 13:35:00 10.3 C 93 % 9.22 C
3325 30-11-2015 13:40:00 10.4 C 92 % 9.16 C
Sensor: Nr:Datum:Temp:Feuchte:Taupunkt:
Aussen-T/F 3326 30-11-2015 13:45:00 10.4 C 92 % 9.16 C
3327 30-11-2015 13:50:00 10.4 C 92 % 9.16 C
3328 30-11-2015 13:55:00 10.4 C 92 % 9.16 C
3329 30-11-2015 14:00:00 10.4 C 92 % 9.16 C
3330 30-11-2015 14:05:00 10.4 C 92 % 9.16 C
3331 30-11-2015 14:10:00 10.4 C 92 % 9.16 C
3332 30-11-2015 14:15:00 10.3 C 92 % 9.06 C
3333 30-11-2015 14:20:00 10.3 C 92 % 9.06 C
3334 30-11-2015 14:25:00 10.3 C 92 % 9.06 C
3335 30-11-2015 14:30:00 10.3 C 92 % 9.06 C
3336 30-11-2015 14:35:00 10.3 C 91 % 8.9 C
3337 30-11-2015 14:40:00 10.4 C 91 % 9 C
3338 30-11-2015 14:45:00 10.5 C 90 % 8.93 C
3339 30-11-2015 14:50:00 10.6 C 90 % 9.03 C
3340 30-11-2015 14:55:00 10.7 C 89 % 8.96 C
3341 30-11-2015 15:00:00 10.7 C 89 % 8.96 C
3342 30-11-2015 15:05:00 10.7 C 89 % 8.96 C
3343 30-11-2015 15:10:00 10.7 C 89 % 8.96 C
3344 30-11-2015 15:15:00 10.7 C 89 % 8.96 C
3345 30-11-2015 15:20:00 10.7 C 89 % 8.96 C
3346 30-11-2015 15:25:00 10.6 C 89 % 8.86 C
3347 30-11-2015 15:30:00 10.6 C 90 % 9.03 C
3348 30-11-2015 15:35:00 10.5 C 90 % 8.93 C
3349 30-11-2015 15:40:00 10.5 C 90 % 8.93 C
3350 30-11-2015 15:45:00 10.5 C 90 % 8.93 C
Sensor: Nr:Datum:Temp:Feuchte:Taupunkt:
Aussen-T/F 3351 30-11-2015 15:50:00 10.5 C 90 % 8.93 C
3352 30-11-2015 15:55:00 10.5 C 90 % 8.93 C
3353 30-11-2015 16:00:00 10.4 C 90 % 8.83 C
3354 30-11-2015 16:05:00 10.4 C 90 % 8.83 C
3355 30-11-2015 16:10:00 10.5 C 89 % 8.77 C
3356 30-11-2015 16:15:00 10.5 C 89 % 8.77 C
3357 30-11-2015 16:20:00 10.6 C 89 % 8.86 C
3358 30-11-2015 16:25:00 10.6 C 89 % 8.86 C
3359 30-11-2015 16:30:00 10.6 C 89 % 8.86 C
3360 30-11-2015 16:35:00 10.6 C 89 % 8.86 C
3361 30-11-2015 16:40:00 10.6 C 88 % 8.7 C
3362 30-11-2015 16:45:00 10.6 C 89 % 8.86 C
3363 30-11-2015 16:50:00 10.6 C 89 % 8.86 C
3364 30-11-2015 16:55:00 10.5 C 90 % 8.93 C
3365 30-11-2015 17:00:00 10.4 C 90 % 8.83 C
3366 30-11-2015 17:05:00 10.3 C 91 % 8.9 C
3367 30-11-2015 17:10:00 10.3 C 91 % 8.9 C
3368 30-11-2015 17:15:00 10.3 C 91 % 8.9 C
3369 30-11-2015 17:20:00 10.3 C 91 % 8.9 C
3370 30-11-2015 17:25:00 10.3 C 90 % 8.73 C
3371 30-11-2015 17:30:00 10.4 C 90 % 8.83 C
3372 30-11-2015 17:35:00 10.4 C 90 % 8.83 C
3373 30-11-2015 17:40:00 10.4 C 89 % 8.67 C
3374 30-11-2015 17:45:00 10.6 C 88 % 8.7 C
3375 30-11-2015 17:50:00 10.7 C 88 % 8.8 C
Sensor: Nr:Datum:Temp:Feuchte:Taupunkt:
Aussen-T/F 3376 30-11-2015 17:55:00 10.7 C 88 % 8.8 C
3377 30-11-2015 18:00:00 10.8 C 87 % 8.73 C
3378 30-11-2015 18:05:00 10.9 C 87 % 8.82 C
3379 30-11-2015 18:10:00 10.9 C 87 % 8.82 C
3380 30-11-2015 18:15:00 11 C 86 % 8.75 C
3381 30-11-2015 18:20:00 11 C 87 % 8.92 C
3382 30-11-2015 18:25:00 11 C 87 % 8.92 C
3383 30-11-2015 18:30:00 10.9 C 87 % 8.82 C
3384 30-11-2015 18:35:00 10.9 C 87 % 8.82 C
3385 30-11-2015 18:40:00 10.9 C 87 % 8.82 C
3386 30-11-2015 18:45:00 11 C 86 % 8.75 C
3387 30-11-2015 18:50:00 11.1 C 86 % 8.85 C
3388 30-11-2015 18:55:00 11.1 C 86 % 8.85 C
3389 30-11-2015 19:00:00 11.2 C 85 % 8.77 C
3390 30-11-2015 19:05:00 11.2 C 85 % 8.77 C
3391 30-11-2015 19:10:00 11.2 C 85 % 8.77 C
3392 30-11-2015 19:15:00 11.2 C 85 % 8.77 C
3393 30-11-2015 19:20:00 11.3 C 85 % 8.87 C
3394 30-11-2015 19:25:00 11.3 C 85 % 8.87 C
3395 30-11-2015 19:30:00 11.2 C 85 % 8.77 C
3396 30-11-2015 19:35:00 11.1 C 86 % 8.85 C
3397 30-11-2015 19:40:00 11.1 C 86 % 8.85 C
3398 30-11-2015 19:45:00 11 C 87 % 8.92 C
3399 30-11-2015 19:50:00 11 C 87 % 8.92 C
3400 30-11-2015 19:55:00 10.9 C 87 % 8.82 C
Sensor: Nr:Datum:Temp:Feuchte:Taupunkt:
Aussen-T/F 3401 30-11-2015 20:00:00 10.9 C 86 % 8.65 C
3402 30-11-2015 20:05:00 11 C 86 % 8.75 C
3403 30-11-2015 20:10:00 11.1 C 86 % 8.85 C
3404 30-11-2015 20:15:00 11.1 C 86 % 8.85 C
3405 30-11-2015 20:20:00 11.1 C 86 % 8.85 C
3406 30-11-2015 20:25:00 11.1 C 86 % 8.85 C
3407 30-11-2015 20:30:00 11.1 C 86 % 8.85 C
3408 30-11-2015 20:35:00 11.1 C 87 % 9.02 C
3409 30-11-2015 20:40:00 11 C 87 % 8.92 C
3410 30-11-2015 20:45:00 10.9 C 87 % 8.82 C
3411 30-11-2015 20:50:00 10.9 C 88 % 8.99 C
3412 30-11-2015 20:55:00 10.8 C 88 % 8.89 C
3413 30-11-2015 21:00:00 10.8 C 88 % 8.89 C
3414 30-11-2015 21:05:00 10.8 C 89 % 9.06 C
3415 30-11-2015 21:10:00 10.8 C 89 % 9.06 C
3416 30-11-2015 21:15:00 10.8 C 89 % 9.06 C
3417 30-11-2015 21:20:00 10.8 C 89 % 9.06 C
3418 30-11-2015 21:25:00 10.8 C 89 % 9.06 C
3419 30-11-2015 21:30:00 10.8 C 89 % 9.06 C
3420 30-11-2015 21:35:00 10.8 C 89 % 9.06 C
3421 30-11-2015 21:40:00 10.8 C 89 % 9.06 C
3422 30-11-2015 21:45:00 10.8 C 89 % 9.06 C
3423 30-11-2015 21:50:00 10.8 C 89 % 9.06 C
3424 30-11-2015 21:55:00 10.9 C 88 % 8.99 C
3425 30-11-2015 22:00:00 10.9 C 88 % 8.99 C
Sensor: Nr:Datum:Temp:Feuchte:Taupunkt:
Aussen-T/F 3426 30-11-2015 22:05:00 10.9 C 88 % 8.99 C
3427 30-11-2015 22:10:00 11 C 88 % 9.09 C
3428 30-11-2015 22:15:00 10.9 C 88 % 8.99 C
3429 30-11-2015 22:20:00 10.9 C 88 % 8.99 C
3430 30-11-2015 22:25:00 10.9 C 88 % 8.99 C
3431 30-11-2015 22:30:00 10.9 C 88 % 8.99 C
3432 30-11-2015 22:35:00 10.9 C 88 % 8.99 C
3433 30-11-2015 22:40:00 10.9 C 88 % 8.99 C
3434 30-11-2015 22:45:00 11 C 88 % 9.09 C
3435 30-11-2015 22:50:00 11 C 88 % 9.09 C
3436 30-11-2015 22:55:00 10.9 C 88 % 8.99 C
3437 30-11-2015 23:00:00 10.9 C 88 % 8.99 C
3438 30-11-2015 23:05:00 11 C 88 % 9.09 C
3439 30-11-2015 23:10:00 11 C 87 % 8.92 C
3440 30-11-2015 23:15:00 11 C 87 % 8.92 C
3441 30-11-2015 23:20:00 11.1 C 87 % 9.02 C
3442 30-11-2015 23:25:00 11.1 C 87 % 9.02 C
3443 30-11-2015 23:30:00 11.1 C 87 % 9.02 C
3444 30-11-2015 23:35:00 11.1 C 87 % 9.02 C
3445 30-11-2015 23:40:00 11.2 C 87 % 9.12 C
3446 30-11-2015 23:45:00 11.1 C 87 % 9.02 C
3447 30-11-2015 23:50:00 11.2 C 87 % 9.12 C
3448 30-11-2015 23:55:00 11.2 C 87 % 9.12 C
3449 01-12-2015 00:00:00 11.2 C 87 % 9.12 C
3450 01-12-2015 00:05:00 11.2 C 87 % 9.12 C
Sensor: Nr:Datum:Temp:Feuchte:Taupunkt:
Aussen-T/F 3451 01-12-2015 00:10:00 11.2 C 87 % 9.12 C
3452 01-12-2015 00:15:00 11.2 C 87 % 9.12 C
3453 01-12-2015 00:20:00 11.2 C 87 % 9.12 C
3454 01-12-2015 00:25:00 11.2 C 88 % 9.29 C
3455 01-12-2015 00:30:00 11.1 C 88 % 9.19 C
3456 01-12-2015 00:35:00 11.1 C 88 % 9.19 C
3457 01-12-2015 00:40:00 11.1 C 88 % 9.19 C
3458 01-12-2015 00:45:00 11.1 C 88 % 9.19 C
3459 01-12-2015 00:50:00 11.1 C 88 % 9.19 C
3460 01-12-2015 00:55:00 11.1 C 88 % 9.19 C
3461 01-12-2015 01:00:00 11.1 C 88 % 9.19 C
3462 01-12-2015 01:05:00 11.2 C 88 % 9.29 C
3463 01-12-2015 01:10:00 11.2 C 88 % 9.29 C
3464 01-12-2015 01:15:00 11.2 C 88 % 9.29 C
3465 01-12-2015 01:20:00 11.2 C 89 % 9.46 C
3466 01-12-2015 01:25:00 11.1 C 89 % 9.36 C
3467 01-12-2015 01:30:00 11.1 C 89 % 9.36 C
3468 01-12-2015 01:35:00 11.1 C 89 % 9.36 C
3469 01-12-2015 01:40:00 11.1 C 90 % 9.52 C
3470 01-12-2015 01:45:00 11.1 C 90 % 9.52 C
3471 01-12-2015 01:50:00 11.1 C 90 % 9.52 C
3472 01-12-2015 01:55:00 11 C 90 % 9.42 C
3473 01-12-2015 02:00:00 10.9 C 90 % 9.33 C
3474 01-12-2015 02:05:00 10.9 C 90 % 9.33 C
3475 01-12-2015 02:10:00 10.9 C 90 % 9.33 C
Sensor: Nr:Datum:Temp:Feuchte:Taupunkt:
Aussen-T/F 3476 01-12-2015 02:15:00 10.9 C 91 % 9.49 C
3477 01-12-2015 02:20:00 11 C 90 % 9.42 C
3478 01-12-2015 02:25:00 11.1 C 90 % 9.52 C
3479 01-12-2015 02:30:00 11.1 C 90 % 9.52 C
3480 01-12-2015 02:35:00 11.1 C 90 % 9.52 C
3481 01-12-2015 02:40:00 11.1 C 90 % 9.52 C
3482 01-12-2015 02:45:00 11.1 C 90 % 9.52 C
3483 01-12-2015 02:50:00 11.1 C 91 % 9.69 C
3484 01-12-2015 02:55:00 11 C 91 % 9.59 C
3485 01-12-2015 03:00:00 11 C 91 % 9.59 C
3486 01-12-2015 03:05:00 11 C 91 % 9.59 C
3487 01-12-2015 03:10:00 11.1 C 90 % 9.52 C
3488 01-12-2015 03:15:00 11.1 C 90 % 9.52 C
3489 01-12-2015 03:20:00 11.2 C 90 % 9.62 C
3490 01-12-2015 03:25:00 11.2 C 90 % 9.62 C
3491 01-12-2015 03:30:00 11.2 C 90 % 9.62 C
3492 01-12-2015 03:35:00 11.2 C 90 % 9.62 C
3493 01-12-2015 03:40:00 11.3 C 90 % 9.72 C
3494 01-12-2015 03:45:00 11.2 C 90 % 9.62 C
3495 01-12-2015 03:50:00 11.2 C 90 % 9.62 C
3496 01-12-2015 03:55:00 11.2 C 91 % 9.79 C
3497 01-12-2015 04:00:00 11.2 C 91 % 9.79 C
3498 01-12-2015 04:05:00 11.2 C 91 % 9.79 C
3499 01-12-2015 04:10:00 11.2 C 90 % 9.62 C
3500 01-12-2015 04:15:00 11.2 C 90 % 9.62 C
Sensor: Nr:Datum:Temp:Feuchte:Taupunkt:
Aussen-T/F 3501 01-12-2015 04:20:00 11.2 C 90 % 9.62 C
3502 01-12-2015 04:25:00 11.2 C 90 % 9.62 C
3503 01-12-2015 04:30:00 11.3 C 90 % 9.72 C
3504 01-12-2015 04:35:00 11.3 C 90 % 9.72 C
3505 01-12-2015 04:40:00 11.3 C 90 % 9.72 C
3506 01-12-2015 04:45:00 11.3 C 90 % 9.72 C
3507 01-12-2015 04:50:00 11.3 C 90 % 9.72 C
3508 01-12-2015 04:55:00 11.2 C 90 % 9.62 C
3509 01-12-2015 05:00:00 11.2 C 90 % 9.62 C
3510 01-12-2015 05:05:00 11.1 C 91 % 9.69 C
3511 01-12-2015 05:10:00 11.1 C 91 % 9.69 C
3512 01-12-2015 05:15:00 10.9 C 91 % 9.49 C
3513 01-12-2015 05:20:00 10.9 C 92 % 9.65 C
3514 01-12-2015 05:25:00 10.8 C 92 % 9.55 C
3515 01-12-2015 05:30:00 10.8 C 92 % 9.55 C
3516 01-12-2015 05:35:00 10.8 C 92 % 9.55 C
3517 01-12-2015 05:40:00 10.8 C 92 % 9.55 C
3518 01-12-2015 05:45:00 10.8 C 92 % 9.55 C
3519 01-12-2015 05:50:00 10.8 C 92 % 9.55 C
3520 01-12-2015 05:55:00 10.8 C 92 % 9.55 C
3521 01-12-2015 06:00:00 10.8 C 92 % 9.55 C
3522 01-12-2015 06:05:00 10.8 C 92 % 9.55 C
3523 01-12-2015 06:10:00 10.8 C 92 % 9.55 C
3524 01-12-2015 06:15:00 10.8 C 92 % 9.55 C
3525 01-12-2015 06:20:00 10.8 C 92 % 9.55 C
Sensor: Nr:Datum:Temp:Feuchte:Taupunkt:
Aussen-T/F 3526 01-12-2015 06:25:00 10.8 C 92 % 9.55 C
3527 01-12-2015 06:30:00 10.8 C 92 % 9.55 C
3528 01-12-2015 06:35:00 10.8 C 93 % 9.71 C
3529 01-12-2015 06:40:00 10.7 C 93 % 9.62 C
3530 01-12-2015 06:45:00 10.7 C 93 % 9.62 C
3531 01-12-2015 06:50:00 10.7 C 93 % 9.62 C
3532 01-12-2015 06:55:00 10.7 C 93 % 9.62 C
3533 01-12-2015 07:00:00 10.6 C 93 % 9.52 C
3534 01-12-2015 07:05:00 10.6 C 94 % 9.68 C
3535 01-12-2015 07:10:00 10.6 C 94 % 9.68 C
3536 01-12-2015 07:15:00 10.6 C 94 % 9.68 C
3537 01-12-2015 07:20:00 10.5 C 94 % 9.58 C
3538 01-12-2015 07:25:00 10.5 C 94 % 9.58 C
3539 01-12-2015 07:30:00 10.5 C 94 % 9.58 C
3540 01-12-2015 07:35:00 10.5 C 94 % 9.58 C
3541 01-12-2015 07:40:00 10.5 C 94 % 9.58 C
3542 01-12-2015 07:45:00 10.5 C 94 % 9.58 C
3543 01-12-2015 07:50:00 10.4 C 95 % 9.63 C
3544 01-12-2015 07:55:00 10.4 C 95 % 9.63 C
3545 01-12-2015 08:00:00 10.4 C 95 % 9.63 C
3546 01-12-2015 08:05:00 10.4 C 95 % 9.63 C
3547 01-12-2015 08:10:00 10.4 C 95 % 9.63 C
3548 01-12-2015 08:15:00 10.4 C 95 % 9.63 C
3549 01-12-2015 08:20:00 10.3 C 95 % 9.54 C
3550 01-12-2015 08:25:00 10.3 C 95 % 9.54 C
Sensor: Nr:Datum:Temp:Feuchte:Taupunkt:
Aussen-T/F 3551 01-12-2015 08:30:00 10.3 C 95 % 9.54 C
3552 01-12-2015 08:35:00 10.3 C 95 % 9.54 C
3553 01-12-2015 08:40:00 10.3 C 95 % 9.54 C
3554 01-12-2015 08:45:00 10.3 C 96 % 9.69 C
3555 01-12-2015 08:50:00 10.3 C 96 % 9.69 C
3556 01-12-2015 08:55:00 10.3 C 96 % 9.69 C
3557 01-12-2015 09:00:00 10.3 C 96 % 9.69 C
3558 01-12-2015 09:05:00 10.3 C 96 % 9.69 C
3559 01-12-2015 09:10:00 10.3 C 96 % 9.69 C
3560 01-12-2015 09:15:00 10.3 C 96 % 9.69 C
3561 01-12-2015 09:20:00 10.3 C 96 % 9.69 C
3562 01-12-2015 09:25:00 10.3 C 96 % 9.69 C
3563 01-12-2015 09:30:00 10.3 C 96 % 9.69 C
3564 01-12-2015 09:35:00 10.3 C 96 % 9.69 C
3565 01-12-2015 09:40:00 10.3 C 96 % 9.69 C
3566 01-12-2015 09:45:00 10.3 C 96 % 9.69 C
3567 01-12-2015 09:50:00 10.2 C 96 % 9.59 C
3568 01-12-2015 09:55:00 10.2 C 96 % 9.59 C
3569 01-12-2015 10:00:00 10.2 C 96 % 9.59 C
3570 01-12-2015 10:05:00 10.1 C 96 % 9.49 C
3571 01-12-2015 10:10:00 10.1 C 96 % 9.49 C
3572 01-12-2015 10:15:00 10.1 C 96 % 9.49 C
3573 01-12-2015 10:20:00 10.1 C 96 % 9.49 C
3574 01-12-2015 10:25:00 10 C 96 % 9.39 C
3575 01-12-2015 10:30:00 10 C 96 % 9.39 C
Sensor: Nr:Datum:Temp:Feuchte:Taupunkt:
Aussen-T/F 3576 01-12-2015 10:35:00 10 C 96 % 9.39 C
3577 01-12-2015 10:40:00 10 C 96 % 9.39 C
3578 01-12-2015 10:45:00 9.9 C 96 % 9.29 C
3579 01-12-2015 10:50:00 9.8 C 96 % 9.19 C
3580 01-12-2015 10:55:00 9.8 C 96 % 9.19 C
3581 01-12-2015 11:00:00 9.7 C 96 % 9.09 C
3582 01-12-2015 11:05:00 9.7 C 96 % 9.09 C
3583 01-12-2015 11:10:00 9.7 C 96 % 9.09 C
3584 01-12-2015 11:15:00 9.7 C 96 % 9.09 C
3585 01-12-2015 11:20:00 9.7 C 96 % 9.09 C
3586 01-12-2015 11:25:00 9.7 C 96 % 9.09 C
3587 01-12-2015 11:30:00 9.7 C 96 % 9.09 C
3588 01-12-2015 11:35:00 9.7 C 96 % 9.09 C
3589 01-12-2015 11:40:00 9.7 C 96 % 9.09 C
3590 01-12-2015 11:45:00 9.8 C 96 % 9.19 C
3591 01-12-2015 11:50:00 9.8 C 96 % 9.19 C
3592 01-12-2015 11:55:00 9.8 C 96 % 9.19 C
3593 01-12-2015 12:00:00 9.8 C 96 % 9.19 C
3594 01-12-2015 12:05:00 9.8 C 96 % 9.19 C
3595 01-12-2015 12:10:00 9.8 C 96 % 9.19 C
3596 01-12-2015 12:15:00 9.8 C 97 % 9.35 C
3597 01-12-2015 12:20:00 9.8 C 97 % 9.35 C
3598 01-12-2015 12:25:00 9.8 C 96 % 9.19 C
3599 01-12-2015 12:30:00 9.9 C 96 % 9.29 C
3600 01-12-2015 12:35:00 9.9 C 97 % 9.45 C
Sensor: Nr:Datum:Temp:Feuchte:Taupunkt:
Aussen-T/F 3601 01-12-2015 12:40:00 10.1 C 97 % 9.65 C
3602 01-12-2015 12:45:00 10.1 C 97 % 9.65 C
3603 01-12-2015 12:50:00 10.2 C 97 % 9.75 C
3604 01-12-2015 12:55:00 10.2 C 97 % 9.75 C
3605 01-12-2015 13:00:00 10.3 C 97 % 9.85 C
3606 01-12-2015 13:05:00 10.6 C 97 % 10.14 C
3607 01-12-2015 13:10:00 10.7 C 97 % 10.24 C
3608 01-12-2015 13:15:00 10.9 C 97 % 10.44 C
3609 01-12-2015 13:20:00 11.2 C 97 % 10.74 C
3610 01-12-2015 13:25:00 11.3 C 97 % 10.84 C
3611 01-12-2015 13:30:00 11.4 C 97 % 10.94 C
3612 01-12-2015 13:35:00 11.4 C 97 % 10.94 C
3613 01-12-2015 13:40:00 11.6 C 97 % 11.14 C
3614 01-12-2015 13:45:00 11.7 C 97 % 11.24 C
3615 01-12-2015 13:50:00 11.8 C 97 % 11.34 C
3616 01-12-2015 13:55:00 11.8 C 97 % 11.34 C
3617 01-12-2015 14:00:00 11.8 C 96 % 11.18 C
3618 01-12-2015 14:05:00 11.9 C 96 % 11.28 C
3619 01-12-2015 14:10:00 11.9 C 96 % 11.28 C
3620 01-12-2015 14:15:00 11.9 C 96 % 11.28 C
3621 01-12-2015 14:20:00 12 C 96 % 11.38 C
3622 01-12-2015 14:25:00 12.1 C 95 % 11.32 C
3623 01-12-2015 14:30:00 12.1 C 95 % 11.32 C
3624 01-12-2015 14:35:00 12.1 C 95 % 11.32 C
3625 01-12-2015 14:40:00 12.2 C 94 % 11.26 C
Sensor: Nr:Datum:Temp:Feuchte:Taupunkt:
Aussen-T/F 3626 01-12-2015 14:45:00 12.2 C 94 % 11.26 C
3627 01-12-2015 14:50:00 12.2 C 94 % 11.26 C
3628 01-12-2015 14:55:00 12.2 C 94 % 11.26 C
3629 01-12-2015 15:00:00 12.2 C 94 % 11.26 C
3630 01-12-2015 15:05:00 12.2 C 93 % 11.1 C
3631 01-12-2015 15:10:00 12.2 C 93 % 11.1 C
3632 01-12-2015 15:15:00 12.2 C 93 % 11.1 C
3633 01-12-2015 15:20:00 12.2 C 93 % 11.1 C
3634 01-12-2015 15:25:00 12.2 C 93 % 11.1 C
3635 01-12-2015 15:30:00 12.2 C 93 % 11.1 C
3636 01-12-2015 15:35:00 12.3 C 93 % 11.2 C
3637 01-12-2015 15:40:00 12.3 C 93 % 11.2 C
3638 01-12-2015 15:45:00 12.3 C 93 % 11.2 C
3639 01-12-2015 15:50:00 12.3 C 93 % 11.2 C
3640 01-12-2015 15:55:00 12.3 C 93 % 11.2 C
3641 01-12-2015 16:00:00 12.2 C 93 % 11.1 C
3642 01-12-2015 16:05:00 12.2 C 93 % 11.1 C
3643 01-12-2015 16:10:00 12.2 C 93 % 11.1 C
3644 01-12-2015 16:15:00 12.1 C 93 % 11 C
3645 01-12-2015 16:20:00 12.1 C 93 % 11 C
3646 01-12-2015 16:25:00 12.1 C 93 % 11 C
3647 01-12-2015 16:30:00 12.1 C 93 % 11 C
3648 01-12-2015 16:35:00 12.1 C 93 % 11 C
3649 01-12-2015 16:40:00 12.1 C 93 % 11 C
3650 01-12-2015 16:45:00 12.1 C 93 % 11 C
Sensor: Nr:Datum:Temp:Feuchte:Taupunkt:
Aussen-T/F 3651 01-12-2015 16:50:00 12.1 C 93 % 11 C
3652 01-12-2015 16:55:00 12.1 C 93 % 11 C
3653 01-12-2015 17:00:00 12.1 C 93 % 11 C
3654 01-12-2015 17:05:00 12.1 C 93 % 11 C
3655 01-12-2015 17:10:00 12.1 C 92 % 10.84 C
3656 01-12-2015 17:15:00 12.1 C 92 % 10.84 C
3657 01-12-2015 17:20:00 12.1 C 93 % 11 C
3658 01-12-2015 17:25:00 12.1 C 92 % 10.84 C
3659 01-12-2015 17:30:00 12.1 C 92 % 10.84 C
3660 01-12-2015 17:35:00 12.2 C 92 % 10.94 C
3661 01-12-2015 17:40:00 12.2 C 92 % 10.94 C
3662 01-12-2015 17:45:00 12.2 C 92 % 10.94 C
3663 01-12-2015 17:50:00 12.2 C 92 % 10.94 C
3664 01-12-2015 17:55:00 12.2 C 92 % 10.94 C
3665 01-12-2015 18:00:00 12.2 C 92 % 10.94 C
3666 01-12-2015 18:05:00 12.2 C 91 % 10.78 C
3667 01-12-2015 18:10:00 12.2 C 92 % 10.94 C
3668 01-12-2015 18:15:00 12.3 C 91 % 10.87 C
3669 01-12-2015 18:20:00 12.3 C 91 % 10.87 C
3670 01-12-2015 18:25:00 12.3 C 91 % 10.87 C
3671 01-12-2015 18:30:00 12.4 C 90 % 10.81 C
3672 01-12-2015 18:35:00 12.4 C 90 % 10.81 C
3673 01-12-2015 18:40:00 12.4 C 90 % 10.81 C
3674 01-12-2015 18:45:00 12.4 C 90 % 10.81 C
3675 01-12-2015 18:50:00 12.4 C 90 % 10.81 C
Sensor: Nr:Datum:Temp:Feuchte:Taupunkt:
Aussen-T/F 3676 01-12-2015 18:55:00 12.4 C 90 % 10.81 C
3677 01-12-2015 19:00:00 12.4 C 90 % 10.81 C
3678 01-12-2015 19:05:00 12.4 C 90 % 10.81 C
3679 01-12-2015 19:10:00 12.3 C 90 % 10.71 C
3680 01-12-2015 19:15:00 12.3 C 90 % 10.71 C
3681 01-12-2015 19:20:00 12.3 C 90 % 10.71 C
3682 01-12-2015 19:25:00 12.3 C 90 % 10.71 C
3683 01-12-2015 19:30:00 12.3 C 90 % 10.71 C
3684 01-12-2015 19:35:00 12.3 C 90 % 10.71 C
3685 01-12-2015 19:40:00 12.2 C 90 % 10.61 C
3686 01-12-2015 19:45:00 12.2 C 90 % 10.61 C
3687 01-12-2015 19:50:00 12.2 C 90 % 10.61 C
3688 01-12-2015 19:55:00 12.2 C 90 % 10.61 C
3689 01-12-2015 20:00:00 12.2 C 90 % 10.61 C
3690 01-12-2015 20:05:00 12.2 C 90 % 10.61 C
3691 01-12-2015 20:10:00 12.1 C 90 % 10.51 C
3692 01-12-2015 20:15:00 12.1 C 90 % 10.51 C
3693 01-12-2015 20:20:00 12.1 C 90 % 10.51 C
3694 01-12-2015 20:25:00 12.1 C 90 % 10.51 C
3695 01-12-2015 20:30:00 12.1 C 90 % 10.51 C
3696 01-12-2015 20:35:00 12.1 C 90 % 10.51 C
3697 01-12-2015 20:40:00 12.1 C 90 % 10.51 C
3698 01-12-2015 20:45:00 12.1 C 90 % 10.51 C
3699 01-12-2015 20:50:00 12.1 C 90 % 10.51 C
3700 01-12-2015 20:55:00 12.1 C 90 % 10.51 C
Sensor: Nr:Datum:Temp:Feuchte:Taupunkt:
Aussen-T/F 3701 01-12-2015 21:00:00 12.1 C 90 % 10.51 C
3702 01-12-2015 21:05:00 12.1 C 90 % 10.51 C
3703 01-12-2015 21:10:00 12.1 C 90 % 10.51 C
3704 01-12-2015 21:15:00 12.1 C 90 % 10.51 C
3705 01-12-2015 21:20:00 12 C 90 % 10.41 C
3706 01-12-2015 21:25:00 12 C 90 % 10.41 C
3707 01-12-2015 21:30:00 11.9 C 90 % 10.31 C
3708 01-12-2015 21:35:00 11.9 C 90 % 10.31 C
3709 01-12-2015 21:40:00 11.9 C 90 % 10.31 C
3710 01-12-2015 21:45:00 11.9 C 91 % 10.48 C
3711 01-12-2015 21:50:00 11.9 C 91 % 10.48 C
3712 01-12-2015 21:55:00 11.8 C 91 % 10.38 C
3713 01-12-2015 22:00:00 11.8 C 91 % 10.38 C
3714 01-12-2015 22:05:00 11.8 C 91 % 10.38 C
3715 01-12-2015 22:10:00 11.8 C 91 % 10.38 C
3716 01-12-2015 22:15:00 11.7 C 91 % 10.28 C
3717 01-12-2015 22:20:00 11.7 C 91 % 10.28 C
3718 01-12-2015 22:25:00 11.7 C 91 % 10.28 C
3719 01-12-2015 22:30:00 11.7 C 91 % 10.28 C
3720 01-12-2015 22:35:00 11.7 C 91 % 10.28 C
3721 01-12-2015 22:40:00 11.7 C 91 % 10.28 C
3722 01-12-2015 22:45:00 11.7 C 91 % 10.28 C
3723 01-12-2015 22:50:00 11.7 C 91 % 10.28 C
3724 01-12-2015 22:55:00 11.7 C 91 % 10.28 C
3725 01-12-2015 23:00:00 11.7 C 90 % 10.12 C
Sensor: Nr:Datum:Temp:Feuchte:Taupunkt:
Aussen-T/F 3726 01-12-2015 23:05:00 11.6 C 91 % 10.18 C
3727 01-12-2015 23:10:00 11.6 C 91 % 10.18 C
3728 01-12-2015 23:15:00 11.6 C 91 % 10.18 C
3729 01-12-2015 23:20:00 11.6 C 91 % 10.18 C
3730 01-12-2015 23:25:00 11.6 C 91 % 10.18 C
3731 01-12-2015 23:30:00 11.6 C 91 % 10.18 C
3732 01-12-2015 23:35:00 11.6 C 91 % 10.18 C
3733 01-12-2015 23:40:00 11.5 C 91 % 10.08 C
3734 01-12-2015 23:45:00 11.4 C 91 % 9.98 C
3735 01-12-2015 23:50:00 11.4 C 92 % 10.15 C
3736 01-12-2015 23:55:00 11.3 C 92 % 10.05 C
3737 02-12-2015 00:00:00 11.3 C 92 % 10.05 C
3738 02-12-2015 00:05:00 11.3 C 92 % 10.05 C
3739 02-12-2015 00:10:00 11.2 C 92 % 9.95 C
3740 02-12-2015 00:15:00 11.2 C 93 % 10.11 C
3741 02-12-2015 00:20:00 11.2 C 93 % 10.11 C
3742 02-12-2015 00:25:00 11.2 C 93 % 10.11 C
3743 02-12-2015 00:30:00 11.1 C 92 % 9.85 C
3744 02-12-2015 00:35:00 11.1 C 92 % 9.85 C
3745 02-12-2015 00:40:00 11.1 C 92 % 9.85 C
3746 02-12-2015 00:45:00 11.1 C 92 % 9.85 C
3747 02-12-2015 00:50:00 11.1 C 92 % 9.85 C
3748 02-12-2015 00:55:00 11.1 C 91 % 9.69 C
3749 02-12-2015 01:00:00 11.1 C 91 % 9.69 C
3750 02-12-2015 01:05:00 11.1 C 91 % 9.69 C
Sensor: Nr:Datum:Temp:Feuchte:Taupunkt:
Aussen-T/F 3751 02-12-2015 01:10:00 11.1 C 91 % 9.69 C
3752 02-12-2015 01:15:00 11.1 C 91 % 9.69 C
3753 02-12-2015 01:20:00 11 C 91 % 9.59 C
3754 02-12-2015 01:25:00 11 C 91 % 9.59 C
3755 02-12-2015 01:30:00 10.9 C 91 % 9.49 C
3756 02-12-2015 01:35:00 10.9 C 91 % 9.49 C
3757 02-12-2015 01:40:00 10.9 C 92 % 9.65 C
3758 02-12-2015 01:45:00 10.8 C 92 % 9.55 C
3759 02-12-2015 01:50:00 10.8 C 92 % 9.55 C
3760 02-12-2015 01:55:00 10.8 C 92 % 9.55 C
3761 02-12-2015 02:00:00 10.8 C 92 % 9.55 C
3762 02-12-2015 02:05:00 10.7 C 92 % 9.45 C
3763 02-12-2015 02:10:00 10.7 C 91 % 9.29 C
3764 02-12-2015 02:15:00 10.7 C 91 % 9.29 C
3765 02-12-2015 02:20:00 10.7 C 91 % 9.29 C
3766 02-12-2015 02:25:00 10.6 C 91 % 9.19 C
3767 02-12-2015 02:30:00 10.6 C 91 % 9.19 C
3768 02-12-2015 02:35:00 10.6 C 91 % 9.19 C
3769 02-12-2015 02:40:00 10.6 C 91 % 9.19 C
3770 02-12-2015 02:45:00 10.5 C 91 % 9.09 C
3771 02-12-2015 02:50:00 10.5 C 91 % 9.09 C
3772 02-12-2015 02:55:00 10.5 C 91 % 9.09 C
3773 02-12-2015 03:00:00 10.5 C 92 % 9.26 C
3774 02-12-2015 03:05:00 10.4 C 91 % 9 C
3775 02-12-2015 03:10:00 10.4 C 91 % 9 C
Sensor: Nr:Datum:Temp:Feuchte:Taupunkt:
Aussen-T/F 3776 02-12-2015 03:15:00 10.4 C 91 % 9 C
3777 02-12-2015 03:20:00 10.4 C 92 % 9.16 C
3778 02-12-2015 03:25:00 10.4 C 92 % 9.16 C
3779 02-12-2015 03:30:00 10.4 C 92 % 9.16 C
3780 02-12-2015 03:35:00 10.3 C 91 % 8.9 C
3781 02-12-2015 03:40:00 10.3 C 91 % 8.9 C
3782 02-12-2015 03:45:00 10.4 C 90 % 8.83 C
3783 02-12-2015 03:50:00 10.4 C 90 % 8.83 C
3784 02-12-2015 03:55:00 10.5 C 89 % 8.77 C
3785 02-12-2015 04:00:00 10.5 C 89 % 8.77 C
3786 02-12-2015 04:05:00 10.6 C 88 % 8.7 C
3787 02-12-2015 04:10:00 10.6 C 88 % 8.7 C
3788 02-12-2015 04:15:00 10.7 C 88 % 8.8 C
3789 02-12-2015 04:20:00 10.7 C 88 % 8.8 C
3790 02-12-2015 04:25:00 10.7 C 89 % 8.96 C
3791 02-12-2015 04:30:00 10.7 C 89 % 8.96 C
3792 02-12-2015 04:35:00 10.6 C 89 % 8.86 C
3793 02-12-2015 04:40:00 10.6 C 90 % 9.03 C
3794 02-12-2015 04:45:00 10.5 C 90 % 8.93 C
3795 02-12-2015 04:50:00 10.5 C 90 % 8.93 C
3796 02-12-2015 04:55:00 10.4 C 91 % 9 C
3797 02-12-2015 05:00:00 10.4 C 91 % 9 C
3798 02-12-2015 05:05:00 10.4 C 91 % 9 C
3799 02-12-2015 05:10:00 10.3 C 92 % 9.06 C
3800 02-12-2015 05:15:00 10.3 C 92 % 9.06 C
Sensor: Nr:Datum:Temp:Feuchte:Taupunkt:
Aussen-T/F 3801 02-12-2015 05:20:00 10.3 C 92 % 9.06 C
3802 02-12-2015 05:25:00 10.3 C 92 % 9.06 C
3803 02-12-2015 05:30:00 10.2 C 93 % 9.12 C
3804 02-12-2015 05:35:00 10.2 C 93 % 9.12 C
3805 02-12-2015 05:40:00 10.2 C 93 % 9.12 C
3806 02-12-2015 05:45:00 10.2 C 93 % 9.12 C
3807 02-12-2015 05:50:00 10.1 C 93 % 9.02 C
3808 02-12-2015 05:55:00 10.1 C 93 % 9.02 C
3809 02-12-2015 06:00:00 10.1 C 93 % 9.02 C
3810 02-12-2015 06:05:00 10.1 C 93 % 9.02 C
3811 02-12-2015 06:10:00 10 C 93 % 8.92 C
3812 02-12-2015 06:15:00 10 C 93 % 8.92 C
3813 02-12-2015 06:20:00 9.9 C 93 % 8.82 C
3814 02-12-2015 06:25:00 9.9 C 93 % 8.82 C
3815 02-12-2015 06:30:00 9.9 C 93 % 8.82 C
3816 02-12-2015 06:35:00 9.9 C 91 % 8.5 C
3817 02-12-2015 06:40:00 9.9 C 91 % 8.5 C
3818 02-12-2015 06:45:00 9.9 C 89 % 8.17 C
3819 02-12-2015 06:50:00 10 C 89 % 8.27 C
3820 02-12-2015 06:55:00 10 C 89 % 8.27 C
3821 02-12-2015 07:00:00 10 C 90 % 8.44 C
3822 02-12-2015 07:05:00 10 C 90 % 8.44 C
3823 02-12-2015 07:10:00 9.9 C 90 % 8.34 C
3824 02-12-2015 07:15:00 9.9 C 90 % 8.34 C
3825 02-12-2015 07:20:00 9.8 C 91 % 8.4 C
Sensor: Nr:Datum:Temp:Feuchte:Taupunkt:
Aussen-T/F 3826 02-12-2015 07:25:00 9.8 C 91 % 8.4 C
3827 02-12-2015 07:30:00 9.8 C 91 % 8.4 C
3828 02-12-2015 07:35:00 9.7 C 90 % 8.14 C
3829 02-12-2015 07:40:00 9.7 C 91 % 8.3 C
3830 02-12-2015 07:45:00 9.7 C 91 % 8.3 C
3831 02-12-2015 07:50:00 9.7 C 91 % 8.3 C
3832 02-12-2015 07:55:00 9.6 C 91 % 8.21 C
3833 02-12-2015 08:00:00 9.6 C 90 % 8.04 C
3834 02-12-2015 08:05:00 9.6 C 89 % 7.88 C
3835 02-12-2015 08:10:00 9.6 C 89 % 7.88 C
3836 02-12-2015 08:15:00 9.6 C 89 % 7.88 C
3837 02-12-2015 08:20:00 9.7 C 89 % 7.98 C
3838 02-12-2015 08:25:00 9.7 C 90 % 8.14 C
3839 02-12-2015 08:30:00 9.6 C 90 % 8.04 C
3840 02-12-2015 08:35:00 9.6 C 89 % 7.88 C
3841 02-12-2015 08:40:00 9.6 C 89 % 7.88 C
3842 02-12-2015 08:45:00 9.6 C 89 % 7.88 C
3843 02-12-2015 08:50:00 9.6 C 89 % 7.88 C
3844 02-12-2015 08:55:00 9.5 C 87 % 7.45 C
3845 02-12-2015 09:00:00 9.6 C 86 % 7.38 C
3846 02-12-2015 09:05:00 9.6 C 87 % 7.55 C
3847 02-12-2015 09:10:00 9.6 C 87 % 7.55 C
3848 02-12-2015 09:15:00 9.6 C 87 % 7.55 C
3849 02-12-2015 09:20:00 9.7 C 87 % 7.64 C
3850 02-12-2015 09:25:00 9.7 C 88 % 7.81 C
Sensor: Nr:Datum:Temp:Feuchte:Taupunkt:
Aussen-T/F 3851 02-12-2015 09:30:00 9.7 C 88 % 7.81 C
3852 02-12-2015 09:35:00 9.7 C 88 % 7.81 C
3853 02-12-2015 09:40:00 9.7 C 89 % 7.98 C
3854 02-12-2015 09:45:00 9.8 C 89 % 8.08 C
3855 02-12-2015 09:50:00 9.8 C 89 % 8.08 C
3856 02-12-2015 09:55:00 9.8 C 89 % 8.08 C
3857 02-12-2015 10:00:00 9.8 C 89 % 8.08 C
3858 02-12-2015 10:05:00 9.8 C 90 % 8.24 C
3859 02-12-2015 10:10:00 9.9 C 90 % 8.34 C
3860 02-12-2015 10:15:00 9.9 C 90 % 8.34 C
3861 02-12-2015 10:20:00 10 C 90 % 8.44 C
3862 02-12-2015 10:25:00 10 C 90 % 8.44 C
3863 02-12-2015 10:30:00 10 C 89 % 8.27 C
3864 02-12-2015 10:35:00 10 C 90 % 8.44 C
3865 02-12-2015 10:40:00 10.1 C 89 % 8.37 C
3866 02-12-2015 10:45:00 10.1 C 89 % 8.37 C
3867 02-12-2015 10:50:00 10.1 C 88 % 8.21 C
3868 02-12-2015 10:55:00 10.1 C 88 % 8.21 C
3869 02-12-2015 11:00:00 10.2 C 86 % 7.97 C
3870 02-12-2015 11:05:00 10.2 C 86 % 7.97 C
3871 02-12-2015 11:10:00 10.3 C 85 % 7.89 C
3872 02-12-2015 11:15:00 10.4 C 86 % 8.16 C
3873 02-12-2015 11:20:00 10.4 C 86 % 8.16 C
3874 02-12-2015 11:25:00 10.5 C 86 % 8.26 C
3875 02-12-2015 11:30:00 10.5 C 86 % 8.26 C
Sensor: Nr:Datum:Temp:Feuchte:Taupunkt:
Aussen-T/F 3876 02-12-2015 11:35:00 10.5 C 86 % 8.26 C
3877 02-12-2015 11:40:00 10.5 C 86 % 8.26 C
3878 02-12-2015 11:45:00 10.6 C 85 % 8.19 C
3879 02-12-2015 11:50:00 10.6 C 86 % 8.36 C
3880 02-12-2015 11:55:00 10.6 C 86 % 8.36 C
3881 02-12-2015 12:00:00 10.5 C 86 % 8.26 C
3882 02-12-2015 12:05:00 10.5 C 86 % 8.26 C
3883 02-12-2015 12:10:00 10.6 C 86 % 8.36 C
3884 02-12-2015 12:15:00 10.6 C 86 % 8.36 C
3885 02-12-2015 12:20:00 10.6 C 86 % 8.36 C
3886 02-12-2015 12:25:00 10.6 C 86 % 8.36 C
3887 02-12-2015 12:30:00 10.6 C 85 % 8.19 C
3888 02-12-2015 12:35:00 10.6 C 85 % 8.19 C
3889 02-12-2015 12:40:00 10.7 C 86 % 8.46 C
3890 02-12-2015 12:45:00 10.7 C 85 % 8.28 C
3891 02-12-2015 12:50:00 10.7 C 85 % 8.28 C
3892 02-12-2015 12:55:00 10.7 C 84 % 8.11 C
3893 02-12-2015 13:00:00 10.7 C 84 % 8.11 C
3894 02-12-2015 13:05:00 10.7 C 84 % 8.11 C
3895 02-12-2015 13:10:00 10.7 C 83 % 7.93 C
3896 02-12-2015 13:15:00 10.7 C 83 % 7.93 C
3897 02-12-2015 13:20:00 10.7 C 83 % 7.93 C
3898 02-12-2015 13:25:00 10.7 C 82 % 7.76 C
3899 02-12-2015 13:30:00 10.7 C 82 % 7.76 C
3900 02-12-2015 13:35:00 10.7 C 82 % 7.76 C
Sensor: Nr:Datum:Temp:Feuchte:Taupunkt: